<?xml version="1.0" encoding="UTF-8" standalone="no" ?>
<gpx xmlns="http://www.topografix.com/GPX/1/1" xmlns:xsi="http://www.w3.org/2001/XMLSchema-instance" xsi:schemaLocation="http://www.topografix.com/GPX/1/1 http://www.topografix.com/GPX/1/1/gpx.xsd" version="1.1" creator="VisuGPX - https://www.visugpx.com">
  <metadata>
    <name>La Ronde de Chavanod Bike &amp; Run</name>
    <desc><![CDATA[[img]http://www.larondedechavanod.fr/design/images/index/LRDC_AP.jpg[/img]
]]></desc>
  </metadata>
  <trk>
    <name><![CDATA[parcours run&bike chavanod]]></name>
    <trkseg>
      <trkpt lat="45.88251" lon="6.05344">
        <ele>525.79998779297</ele>
        <time>2012-04-09T06:44:14.000Z</time>
      </trkpt>
      <trkpt lat="45.88243" lon="6.05322">
        <ele>526.59997558594</ele>
        <time>2012-04-09T06:44:19.000Z</time>
      </trkpt>
      <trkpt lat="45.88234" lon="6.05299">
        <ele>527.79998779297</ele>
        <time>2012-04-09T06:44:23.000Z</time>
      </trkpt>
      <trkpt lat="45.88228" lon="6.05286">
        <ele>528.40002441406</ele>
        <time>2012-04-09T06:44:25.000Z</time>
      </trkpt>
      <trkpt lat="45.88217" lon="6.0527">
        <ele>529.20001220703</ele>
        <time>2012-04-09T06:44:28.000Z</time>
      </trkpt>
      <trkpt lat="45.88201" lon="6.0526">
        <ele>529.59997558594</ele>
        <time>2012-04-09T06:44:31.000Z</time>
      </trkpt>
      <trkpt lat="45.88187" lon="6.05254">
        <ele>529.79998779297</ele>
        <time>2012-04-09T06:44:34.000Z</time>
      </trkpt>
      <trkpt lat="45.88178" lon="6.05266">
        <ele>529.40002441406</ele>
        <time>2012-04-09T06:44:38.000Z</time>
      </trkpt>
      <trkpt lat="45.88172" lon="6.05296">
        <ele>528.40002441406</ele>
        <time>2012-04-09T06:44:42.000Z</time>
      </trkpt>
      <trkpt lat="45.88165" lon="6.05325">
        <ele>527.59997558594</ele>
        <time>2012-04-09T06:44:46.000Z</time>
      </trkpt>
      <trkpt lat="45.88159" lon="6.05356">
        <ele>527.40002441406</ele>
        <time>2012-04-09T06:44:50.000Z</time>
      </trkpt>
      <trkpt lat="45.88153" lon="6.05387">
        <ele>527</ele>
        <time>2012-04-09T06:44:54.000Z</time>
      </trkpt>
      <trkpt lat="45.88151" lon="6.05394">
        <ele>527</ele>
        <time>2012-04-09T06:44:55.000Z</time>
      </trkpt>
      <trkpt lat="45.88147" lon="6.05408">
        <ele>526.59997558594</ele>
        <time>2012-04-09T06:44:57.000Z</time>
      </trkpt>
      <trkpt lat="45.88127" lon="6.05437">
        <ele>526.40002441406</ele>
        <time>2012-04-09T06:45:02.000Z</time>
      </trkpt>
      <trkpt lat="45.88122" lon="6.05441">
        <ele>526.40002441406</ele>
        <time>2012-04-09T06:45:03.000Z</time>
      </trkpt>
      <trkpt lat="45.88101" lon="6.05458">
        <ele>526.40002441406</ele>
        <time>2012-04-09T06:45:07.000Z</time>
      </trkpt>
      <trkpt lat="45.88081" lon="6.05475">
        <ele>526.20001220703</ele>
        <time>2012-04-09T06:45:11.000Z</time>
      </trkpt>
      <trkpt lat="45.88062" lon="6.0549">
        <ele>525.59997558594</ele>
        <time>2012-04-09T06:45:14.000Z</time>
      </trkpt>
      <trkpt lat="45.88043" lon="6.05505">
        <ele>525</ele>
        <time>2012-04-09T06:45:19.000Z</time>
      </trkpt>
      <trkpt lat="45.88032" lon="6.05514">
        <ele>524.79998779297</ele>
        <time>2012-04-09T06:45:21.000Z</time>
      </trkpt>
      <trkpt lat="45.8802" lon="6.05541">
        <ele>525</ele>
        <time>2012-04-09T06:45:26.000Z</time>
      </trkpt>
      <trkpt lat="45.8802" lon="6.05549">
        <ele>525</ele>
        <time>2012-04-09T06:45:27.000Z</time>
      </trkpt>
      <trkpt lat="45.88017" lon="6.05583">
        <ele>525.59997558594</ele>
        <time>2012-04-09T06:45:31.000Z</time>
      </trkpt>
      <trkpt lat="45.88016" lon="6.05601">
        <ele>526.40002441406</ele>
        <time>2012-04-09T06:45:33.000Z</time>
      </trkpt>
      <trkpt lat="45.88023" lon="6.05632">
        <ele>527.20001220703</ele>
        <time>2012-04-09T06:45:38.000Z</time>
      </trkpt>
      <trkpt lat="45.88026" lon="6.0564">
        <ele>527.20001220703</ele>
        <time>2012-04-09T06:45:39.000Z</time>
      </trkpt>
      <trkpt lat="45.88034" lon="6.05669">
        <ele>527.59997558594</ele>
        <time>2012-04-09T06:45:44.000Z</time>
      </trkpt>
      <trkpt lat="45.88041" lon="6.05698">
        <ele>528</ele>
        <time>2012-04-09T06:45:48.000Z</time>
      </trkpt>
      <trkpt lat="45.88046" lon="6.05726">
        <ele>528.59997558594</ele>
        <time>2012-04-09T06:45:51.000Z</time>
      </trkpt>
      <trkpt lat="45.88052" lon="6.05757">
        <ele>529</ele>
        <time>2012-04-09T06:45:55.000Z</time>
      </trkpt>
      <trkpt lat="45.88057" lon="6.05788">
        <ele>528.20001220703</ele>
        <time>2012-04-09T06:46:00.000Z</time>
      </trkpt>
      <trkpt lat="45.88063" lon="6.05819">
        <ele>527.59997558594</ele>
        <time>2012-04-09T06:46:04.000Z</time>
      </trkpt>
      <trkpt lat="45.8807" lon="6.05849">
        <ele>527</ele>
        <time>2012-04-09T06:46:08.000Z</time>
      </trkpt>
      <trkpt lat="45.88078" lon="6.05878">
        <ele>526.59997558594</ele>
        <time>2012-04-09T06:46:12.000Z</time>
      </trkpt>
      <trkpt lat="45.88084" lon="6.05903">
        <ele>526.20001220703</ele>
        <time>2012-04-09T06:46:14.000Z</time>
      </trkpt>
      <trkpt lat="45.88091" lon="6.05931">
        <ele>525.40002441406</ele>
        <time>2012-04-09T06:46:18.000Z</time>
      </trkpt>
      <trkpt lat="45.88099" lon="6.0596">
        <ele>524.40002441406</ele>
        <time>2012-04-09T06:46:21.000Z</time>
      </trkpt>
      <trkpt lat="45.88108" lon="6.05992">
        <ele>523</ele>
        <time>2012-04-09T06:46:24.000Z</time>
      </trkpt>
      <trkpt lat="45.88117" lon="6.06027">
        <ele>521.40002441406</ele>
        <time>2012-04-09T06:46:27.000Z</time>
      </trkpt>
      <trkpt lat="45.88127" lon="6.06061">
        <ele>519.79998779297</ele>
        <time>2012-04-09T06:46:29.000Z</time>
      </trkpt>
      <trkpt lat="45.88161" lon="6.06134">
        <ele>518</ele>
        <time>2012-04-09T06:46:38.000Z</time>
      </trkpt>
      <trkpt lat="45.88175" lon="6.06159">
        <ele>517.79998779297</ele>
        <time>2012-04-09T06:46:41.000Z</time>
      </trkpt>
      <trkpt lat="45.8819" lon="6.06186">
        <ele>518</ele>
        <time>2012-04-09T06:46:44.000Z</time>
      </trkpt>
      <trkpt lat="45.88194" lon="6.06194">
        <ele>518</ele>
        <time>2012-04-09T06:46:45.000Z</time>
      </trkpt>
      <trkpt lat="45.88212" lon="6.06211">
        <ele>518</ele>
        <time>2012-04-09T06:46:48.000Z</time>
      </trkpt>
      <trkpt lat="45.88219" lon="6.06212">
        <ele>517.59997558594</ele>
        <time>2012-04-09T06:46:49.000Z</time>
      </trkpt>
      <trkpt lat="45.88238" lon="6.06199">
        <ele>516.79998779297</ele>
        <time>2012-04-09T06:46:51.000Z</time>
      </trkpt>
      <trkpt lat="45.88245" lon="6.06193">
        <ele>516.40002441406</ele>
        <time>2012-04-09T06:46:53.000Z</time>
      </trkpt>
      <trkpt lat="45.8825" lon="6.06186">
        <ele>516.20001220703</ele>
        <time>2012-04-09T06:46:54.000Z</time>
      </trkpt>
      <trkpt lat="45.88268" lon="6.06168">
        <ele>515.59997558594</ele>
        <time>2012-04-09T06:46:57.000Z</time>
      </trkpt>
      <trkpt lat="45.88275" lon="6.06165">
        <ele>515.40002441406</ele>
        <time>2012-04-09T06:46:58.000Z</time>
      </trkpt>
      <trkpt lat="45.88297" lon="6.06171">
        <ele>514.79998779297</ele>
        <time>2012-04-09T06:47:01.000Z</time>
      </trkpt>
      <trkpt lat="45.88303" lon="6.06176">
        <ele>514.79998779297</ele>
        <time>2012-04-09T06:47:02.000Z</time>
      </trkpt>
      <trkpt lat="45.88323" lon="6.06191">
        <ele>514.20001220703</ele>
        <time>2012-04-09T06:47:05.000Z</time>
      </trkpt>
      <trkpt lat="45.88344" lon="6.06201">
        <ele>513.79998779297</ele>
        <time>2012-04-09T06:47:08.000Z</time>
      </trkpt>
      <trkpt lat="45.88368" lon="6.06201">
        <ele>513.40002441406</ele>
        <time>2012-04-09T06:47:12.000Z</time>
      </trkpt>
      <trkpt lat="45.88371" lon="6.06186">
        <ele>513.20001220703</ele>
        <time>2012-04-09T06:47:14.000Z</time>
      </trkpt>
      <trkpt lat="45.88373" lon="6.06157">
        <ele>513.59997558594</ele>
        <time>2012-04-09T06:47:18.000Z</time>
      </trkpt>
      <trkpt lat="45.88373" lon="6.06151">
        <ele>514</ele>
        <time>2012-04-09T06:47:19.000Z</time>
      </trkpt>
      <trkpt lat="45.88372" lon="6.06132">
        <ele>515.20001220703</ele>
        <time>2012-04-09T06:47:23.000Z</time>
      </trkpt>
      <trkpt lat="45.88368" lon="6.06116">
        <ele>516.59997558594</ele>
        <time>2012-04-09T06:47:29.000Z</time>
      </trkpt>
      <trkpt lat="45.88368" lon="6.06109">
        <ele>517</ele>
        <time>2012-04-09T06:47:32.000Z</time>
      </trkpt>
      <trkpt lat="45.88361" lon="6.06091">
        <ele>518.79998779297</ele>
        <time>2012-04-09T06:47:42.000Z</time>
      </trkpt>
      <trkpt lat="45.88359" lon="6.06083">
        <ele>519.59997558594</ele>
        <time>2012-04-09T06:47:47.000Z</time>
      </trkpt>
      <trkpt lat="45.88355" lon="6.06072">
        <ele>521</ele>
        <time>2012-04-09T06:47:53.000Z</time>
      </trkpt>
      <trkpt lat="45.88351" lon="6.06062">
        <ele>522.59997558594</ele>
        <time>2012-04-09T06:47:58.000Z</time>
      </trkpt>
      <trkpt lat="45.88348" lon="6.0605">
        <ele>524</ele>
        <time>2012-04-09T06:48:03.000Z</time>
      </trkpt>
      <trkpt lat="45.88346" lon="6.0604">
        <ele>525.40002441406</ele>
        <time>2012-04-09T06:48:08.000Z</time>
      </trkpt>
      <trkpt lat="45.88345" lon="6.06036">
        <ele>526</ele>
        <time>2012-04-09T06:48:09.000Z</time>
      </trkpt>
      <trkpt lat="45.88341" lon="6.06023">
        <ele>528</ele>
        <time>2012-04-09T06:48:16.000Z</time>
      </trkpt>
      <trkpt lat="45.88338" lon="6.06009">
        <ele>530.20001220703</ele>
        <time>2012-04-09T06:48:22.000Z</time>
      </trkpt>
      <trkpt lat="45.88336" lon="6.06004">
        <ele>531</ele>
        <time>2012-04-09T06:48:24.000Z</time>
      </trkpt>
      <trkpt lat="45.88332" lon="6.05996">
        <ele>532</ele>
        <time>2012-04-09T06:48:28.000Z</time>
      </trkpt>
      <trkpt lat="45.88323" lon="6.05985">
        <ele>531.59997558594</ele>
        <time>2012-04-09T06:48:34.000Z</time>
      </trkpt>
      <trkpt lat="45.88319" lon="6.05979">
        <ele>531.59997558594</ele>
        <time>2012-04-09T06:48:38.000Z</time>
      </trkpt>
      <trkpt lat="45.88317" lon="6.05966">
        <ele>532.20001220703</ele>
        <time>2012-04-09T06:48:42.000Z</time>
      </trkpt>
      <trkpt lat="45.88313" lon="6.05951">
        <ele>532.59997558594</ele>
        <time>2012-04-09T06:48:49.000Z</time>
      </trkpt>
      <trkpt lat="45.88307" lon="6.05939">
        <ele>533</ele>
        <time>2012-04-09T06:48:54.000Z</time>
      </trkpt>
      <trkpt lat="45.88307" lon="6.05926">
        <ele>533.79998779297</ele>
        <time>2012-04-09T06:48:59.000Z</time>
      </trkpt>
      <trkpt lat="45.88304" lon="6.05919">
        <ele>534.20001220703</ele>
        <time>2012-04-09T06:49:03.000Z</time>
      </trkpt>
      <trkpt lat="45.88297" lon="6.05904">
        <ele>533.79998779297</ele>
        <time>2012-04-09T06:49:08.000Z</time>
      </trkpt>
      <trkpt lat="45.88287" lon="6.05888">
        <ele>533.40002441406</ele>
        <time>2012-04-09T06:49:13.000Z</time>
      </trkpt>
      <trkpt lat="45.88277" lon="6.05863">
        <ele>533</ele>
        <time>2012-04-09T06:49:18.000Z</time>
      </trkpt>
      <trkpt lat="45.88269" lon="6.0584">
        <ele>533.20001220703</ele>
        <time>2012-04-09T06:49:21.000Z</time>
      </trkpt>
      <trkpt lat="45.88264" lon="6.05826">
        <ele>533</ele>
        <time>2012-04-09T06:49:24.000Z</time>
      </trkpt>
      <trkpt lat="45.88261" lon="6.05811">
        <ele>532.59997558594</ele>
        <time>2012-04-09T06:49:28.000Z</time>
      </trkpt>
      <trkpt lat="45.88256" lon="6.05792">
        <ele>532.20001220703</ele>
        <time>2012-04-09T06:49:33.000Z</time>
      </trkpt>
      <trkpt lat="45.88251" lon="6.05778">
        <ele>532</ele>
        <time>2012-04-09T06:49:39.000Z</time>
      </trkpt>
      <trkpt lat="45.88251" lon="6.05777">
        <ele>532</ele>
        <time>2012-04-09T06:49:40.000Z</time>
      </trkpt>
      <trkpt lat="45.88248" lon="6.05771">
        <ele>531.59997558594</ele>
        <time>2012-04-09T06:49:44.000Z</time>
      </trkpt>
      <trkpt lat="45.88246" lon="6.05768">
        <ele>531.40002441406</ele>
        <time>2012-04-09T06:49:46.000Z</time>
      </trkpt>
      <trkpt lat="45.88242" lon="6.05757">
        <ele>530.79998779297</ele>
        <time>2012-04-09T06:49:53.000Z</time>
      </trkpt>
      <trkpt lat="45.88234" lon="6.0574">
        <ele>529.59997558594</ele>
        <time>2012-04-09T06:49:57.000Z</time>
      </trkpt>
      <trkpt lat="45.88232" lon="6.05735">
        <ele>529.40002441406</ele>
        <time>2012-04-09T06:49:58.000Z</time>
      </trkpt>
      <trkpt lat="45.88219" lon="6.05711">
        <ele>528</ele>
        <time>2012-04-09T06:50:04.000Z</time>
      </trkpt>
      <trkpt lat="45.88213" lon="6.05692">
        <ele>527.20001220703</ele>
        <time>2012-04-09T06:50:08.000Z</time>
      </trkpt>
      <trkpt lat="45.88212" lon="6.05689">
        <ele>527.20001220703</ele>
        <time>2012-04-09T06:50:09.000Z</time>
      </trkpt>
      <trkpt lat="45.88215" lon="6.05668">
        <ele>526.59997558594</ele>
        <time>2012-04-09T06:50:13.000Z</time>
      </trkpt>
      <trkpt lat="45.88218" lon="6.05663">
        <ele>526.59997558594</ele>
        <time>2012-04-09T06:50:14.000Z</time>
      </trkpt>
      <trkpt lat="45.88231" lon="6.05635">
        <ele>526</ele>
        <time>2012-04-09T06:50:18.000Z</time>
      </trkpt>
      <trkpt lat="45.88242" lon="6.0561">
        <ele>525.59997558594</ele>
        <time>2012-04-09T06:50:21.000Z</time>
      </trkpt>
      <trkpt lat="45.88248" lon="6.05593">
        <ele>525.20001220703</ele>
        <time>2012-04-09T06:50:23.000Z</time>
      </trkpt>
      <trkpt lat="45.88256" lon="6.05553">
        <ele>525</ele>
        <time>2012-04-09T06:50:28.000Z</time>
      </trkpt>
      <trkpt lat="45.88258" lon="6.05547">
        <ele>525</ele>
        <time>2012-04-09T06:50:29.000Z</time>
      </trkpt>
      <trkpt lat="45.88285" lon="6.05507">
        <ele>525</ele>
        <time>2012-04-09T06:50:38.000Z</time>
      </trkpt>
      <trkpt lat="45.88291" lon="6.05495">
        <ele>525</ele>
        <time>2012-04-09T06:50:40.000Z</time>
      </trkpt>
      <trkpt lat="45.88294" lon="6.05483">
        <ele>525.20001220703</ele>
        <time>2012-04-09T06:50:42.000Z</time>
      </trkpt>
      <trkpt lat="45.88289" lon="6.05449">
        <ele>525.20001220703</ele>
        <time>2012-04-09T06:50:47.000Z</time>
      </trkpt>
      <trkpt lat="45.8828" lon="6.05433">
        <ele>525.20001220703</ele>
        <time>2012-04-09T06:50:50.000Z</time>
      </trkpt>
      <trkpt lat="45.88263" lon="6.05408">
        <ele>525.40002441406</ele>
        <time>2012-04-09T06:50:55.000Z</time>
      </trkpt>
      <trkpt lat="45.88252" lon="6.05392">
        <ele>525.40002441406</ele>
        <time>2012-04-09T06:50:58.000Z</time>
      </trkpt>
      <trkpt lat="45.88247" lon="6.05358">
        <ele>525.79998779297</ele>
        <time>2012-04-09T06:51:03.000Z</time>
      </trkpt>
      <trkpt lat="45.88243" lon="6.0534">
        <ele>526</ele>
        <time>2012-04-09T06:51:07.000Z</time>
      </trkpt>
      <trkpt lat="45.88233" lon="6.05307">
        <ele>527.40002441406</ele>
        <time>2012-04-09T06:51:13.000Z</time>
      </trkpt>
      <trkpt lat="45.88231" lon="6.05302">
        <ele>527.59997558594</ele>
        <time>2012-04-09T06:51:14.000Z</time>
      </trkpt>
      <trkpt lat="45.88219" lon="6.05278">
        <ele>528.79998779297</ele>
        <time>2012-04-09T06:51:18.000Z</time>
      </trkpt>
      <trkpt lat="45.88216" lon="6.05275">
        <ele>529</ele>
        <time>2012-04-09T06:51:19.000Z</time>
      </trkpt>
      <trkpt lat="45.8821" lon="6.05267">
        <ele>529.20001220703</ele>
        <time>2012-04-09T06:51:21.000Z</time>
      </trkpt>
      <trkpt lat="45.88191" lon="6.05258">
        <ele>529.59997558594</ele>
        <time>2012-04-09T06:51:26.000Z</time>
      </trkpt>
      <trkpt lat="45.88183" lon="6.05255">
        <ele>529.79998779297</ele>
        <time>2012-04-09T06:51:29.000Z</time>
      </trkpt>
      <trkpt lat="45.88174" lon="6.05274">
        <ele>529</ele>
        <time>2012-04-09T06:51:33.000Z</time>
      </trkpt>
      <trkpt lat="45.88167" lon="6.05304">
        <ele>528</ele>
        <time>2012-04-09T06:51:39.000Z</time>
      </trkpt>
      <trkpt lat="45.88161" lon="6.05332">
        <ele>527.79998779297</ele>
        <time>2012-04-09T06:51:44.000Z</time>
      </trkpt>
      <trkpt lat="45.88157" lon="6.05358">
        <ele>527.59997558594</ele>
        <time>2012-04-09T06:51:48.000Z</time>
      </trkpt>
      <trkpt lat="45.88151" lon="6.05386">
        <ele>527.20001220703</ele>
        <time>2012-04-09T06:51:51.000Z</time>
      </trkpt>
      <trkpt lat="45.88145" lon="6.05406">
        <ele>526.79998779297</ele>
        <time>2012-04-09T06:51:54.000Z</time>
      </trkpt>
      <trkpt lat="45.88126" lon="6.05435">
        <ele>526.40002441406</ele>
        <time>2012-04-09T06:51:59.000Z</time>
      </trkpt>
      <trkpt lat="45.8812" lon="6.0544">
        <ele>526.40002441406</ele>
        <time>2012-04-09T06:52:01.000Z</time>
      </trkpt>
      <trkpt lat="45.88103" lon="6.05454">
        <ele>526.40002441406</ele>
        <time>2012-04-09T06:52:03.000Z</time>
      </trkpt>
      <trkpt lat="45.88085" lon="6.05469">
        <ele>526.40002441406</ele>
        <time>2012-04-09T06:52:07.000Z</time>
      </trkpt>
      <trkpt lat="45.88069" lon="6.05482">
        <ele>525.79998779297</ele>
        <time>2012-04-09T06:52:09.000Z</time>
      </trkpt>
      <trkpt lat="45.88053" lon="6.05495">
        <ele>525.20001220703</ele>
        <time>2012-04-09T06:52:13.000Z</time>
      </trkpt>
      <trkpt lat="45.8803" lon="6.05513">
        <ele>524.79998779297</ele>
        <time>2012-04-09T06:52:17.000Z</time>
      </trkpt>
      <trkpt lat="45.88018" lon="6.05541">
        <ele>525</ele>
        <time>2012-04-09T06:52:22.000Z</time>
      </trkpt>
      <trkpt lat="45.88018" lon="6.05548">
        <ele>525</ele>
        <time>2012-04-09T06:52:24.000Z</time>
      </trkpt>
      <trkpt lat="45.88016" lon="6.05579">
        <ele>525.59997558594</ele>
        <time>2012-04-09T06:52:28.000Z</time>
      </trkpt>
      <trkpt lat="45.88024" lon="6.0564">
        <ele>527.40002441406</ele>
        <time>2012-04-09T06:52:38.000Z</time>
      </trkpt>
      <trkpt lat="45.88031" lon="6.05664">
        <ele>527.79998779297</ele>
        <time>2012-04-09T06:52:43.000Z</time>
      </trkpt>
      <trkpt lat="45.88038" lon="6.05689">
        <ele>528</ele>
        <time>2012-04-09T06:52:47.000Z</time>
      </trkpt>
      <trkpt lat="45.88039" lon="6.05696">
        <ele>528</ele>
        <time>2012-04-09T06:52:48.000Z</time>
      </trkpt>
      <trkpt lat="45.88044" lon="6.05727">
        <ele>528.59997558594</ele>
        <time>2012-04-09T06:52:53.000Z</time>
      </trkpt>
      <trkpt lat="45.8805" lon="6.05753">
        <ele>529.20001220703</ele>
        <time>2012-04-09T06:52:57.000Z</time>
      </trkpt>
      <trkpt lat="45.88054" lon="6.05773">
        <ele>528.59997558594</ele>
        <time>2012-04-09T06:53:00.000Z</time>
      </trkpt>
      <trkpt lat="45.88061" lon="6.05808">
        <ele>527.79998779297</ele>
        <time>2012-04-09T06:53:04.000Z</time>
      </trkpt>
      <trkpt lat="45.88068" lon="6.05839">
        <ele>527.20001220703</ele>
        <time>2012-04-09T06:53:09.000Z</time>
      </trkpt>
      <trkpt lat="45.88075" lon="6.0587">
        <ele>526.59997558594</ele>
        <time>2012-04-09T06:53:13.000Z</time>
      </trkpt>
      <trkpt lat="45.88083" lon="6.05902">
        <ele>526.20001220703</ele>
        <time>2012-04-09T06:53:17.000Z</time>
      </trkpt>
      <trkpt lat="45.8809" lon="6.05927">
        <ele>525.59997558594</ele>
        <time>2012-04-09T06:53:19.000Z</time>
      </trkpt>
      <trkpt lat="45.88097" lon="6.05953">
        <ele>524.59997558594</ele>
        <time>2012-04-09T06:53:23.000Z</time>
      </trkpt>
      <trkpt lat="45.88104" lon="6.05981">
        <ele>523.59997558594</ele>
        <time>2012-04-09T06:53:26.000Z</time>
      </trkpt>
      <trkpt lat="45.88112" lon="6.0601">
        <ele>522.20001220703</ele>
        <time>2012-04-09T06:53:29.000Z</time>
      </trkpt>
      <trkpt lat="45.88121" lon="6.06045">
        <ele>520.59997558594</ele>
        <time>2012-04-09T06:53:32.000Z</time>
      </trkpt>
      <trkpt lat="45.88129" lon="6.06069">
        <ele>519.40002441406</ele>
        <time>2012-04-09T06:53:35.000Z</time>
      </trkpt>
      <trkpt lat="45.8814" lon="6.06096">
        <ele>518.59997558594</ele>
        <time>2012-04-09T06:53:38.000Z</time>
      </trkpt>
      <trkpt lat="45.88156" lon="6.06129">
        <ele>518.20001220703</ele>
        <time>2012-04-09T06:53:42.000Z</time>
      </trkpt>
      <trkpt lat="45.8817" lon="6.06154">
        <ele>517.79998779297</ele>
        <time>2012-04-09T06:53:44.000Z</time>
      </trkpt>
      <trkpt lat="45.88186" lon="6.0618">
        <ele>518</ele>
        <time>2012-04-09T06:53:48.000Z</time>
      </trkpt>
      <trkpt lat="45.88195" lon="6.06196">
        <ele>518.20001220703</ele>
        <time>2012-04-09T06:53:49.000Z</time>
      </trkpt>
      <trkpt lat="45.88219" lon="6.06212">
        <ele>517.59997558594</ele>
        <time>2012-04-09T06:53:54.000Z</time>
      </trkpt>
      <trkpt lat="45.88238" lon="6.06201">
        <ele>516.79998779297</ele>
        <time>2012-04-09T06:53:57.000Z</time>
      </trkpt>
      <trkpt lat="45.88244" lon="6.06196">
        <ele>516.59997558594</ele>
        <time>2012-04-09T06:53:58.000Z</time>
      </trkpt>
      <trkpt lat="45.88256" lon="6.06184">
        <ele>516</ele>
        <time>2012-04-09T06:53:59.000Z</time>
      </trkpt>
      <trkpt lat="45.88268" lon="6.06172">
        <ele>515.59997558594</ele>
        <time>2012-04-09T06:54:02.000Z</time>
      </trkpt>
      <trkpt lat="45.88274" lon="6.06168">
        <ele>515.40002441406</ele>
        <time>2012-04-09T06:54:03.000Z</time>
      </trkpt>
      <trkpt lat="45.88293" lon="6.0617">
        <ele>515</ele>
        <time>2012-04-09T06:54:06.000Z</time>
      </trkpt>
      <trkpt lat="45.88299" lon="6.06174">
        <ele>514.79998779297</ele>
        <time>2012-04-09T06:54:07.000Z</time>
      </trkpt>
      <trkpt lat="45.88322" lon="6.06191">
        <ele>514.40002441406</ele>
        <time>2012-04-09T06:54:11.000Z</time>
      </trkpt>
      <trkpt lat="45.88327" lon="6.06195">
        <ele>514.20001220703</ele>
        <time>2012-04-09T06:54:12.000Z</time>
      </trkpt>
      <trkpt lat="45.88344" lon="6.06201">
        <ele>513.79998779297</ele>
        <time>2012-04-09T06:54:15.000Z</time>
      </trkpt>
      <trkpt lat="45.88354" lon="6.06208">
        <ele>513.59997558594</ele>
        <time>2012-04-09T06:54:17.000Z</time>
      </trkpt>
      <trkpt lat="45.88369" lon="6.06196">
        <ele>513.20001220703</ele>
        <time>2012-04-09T06:54:21.000Z</time>
      </trkpt>
      <trkpt lat="45.88372" lon="6.06177">
        <ele>513.20001220703</ele>
        <time>2012-04-09T06:54:24.000Z</time>
      </trkpt>
      <trkpt lat="45.88374" lon="6.06166">
        <ele>513</ele>
        <time>2012-04-09T06:54:26.000Z</time>
      </trkpt>
      <trkpt lat="45.88375" lon="6.0616">
        <ele>513.40002441406</ele>
        <time>2012-04-09T06:54:27.000Z</time>
      </trkpt>
      <trkpt lat="45.88374" lon="6.06133">
        <ele>515.20001220703</ele>
        <time>2012-04-09T06:54:33.000Z</time>
      </trkpt>
      <trkpt lat="45.8837" lon="6.06122">
        <ele>516</ele>
        <time>2012-04-09T06:54:38.000Z</time>
      </trkpt>
      <trkpt lat="45.8837" lon="6.06104">
        <ele>517.20001220703</ele>
        <time>2012-04-09T06:54:46.000Z</time>
      </trkpt>
      <trkpt lat="45.88365" lon="6.06098">
        <ele>518</ele>
        <time>2012-04-09T06:54:50.000Z</time>
      </trkpt>
      <trkpt lat="45.88361" lon="6.06089">
        <ele>519</ele>
        <time>2012-04-09T06:54:55.000Z</time>
      </trkpt>
      <trkpt lat="45.8836" lon="6.0608">
        <ele>519.79998779297</ele>
        <time>2012-04-09T06:54:59.000Z</time>
      </trkpt>
      <trkpt lat="45.88355" lon="6.06073">
        <ele>521</ele>
        <time>2012-04-09T06:55:04.000Z</time>
      </trkpt>
      <trkpt lat="45.88352" lon="6.06064">
        <ele>522.20001220703</ele>
        <time>2012-04-09T06:55:08.000Z</time>
      </trkpt>
      <trkpt lat="45.88351" lon="6.06061">
        <ele>522.59997558594</ele>
        <time>2012-04-09T06:55:09.000Z</time>
      </trkpt>
      <trkpt lat="45.88349" lon="6.06046">
        <ele>524.40002441406</ele>
        <time>2012-04-09T06:55:16.000Z</time>
      </trkpt>
      <trkpt lat="45.88348" lon="6.06045">
        <ele>524.59997558594</ele>
        <time>2012-04-09T06:55:17.000Z</time>
      </trkpt>
      <trkpt lat="45.88346" lon="6.06036">
        <ele>526</ele>
        <time>2012-04-09T06:55:21.000Z</time>
      </trkpt>
      <trkpt lat="45.8834" lon="6.06022">
        <ele>528.20001220703</ele>
        <time>2012-04-09T06:55:28.000Z</time>
      </trkpt>
      <trkpt lat="45.88339" lon="6.0602">
        <ele>528.59997558594</ele>
        <time>2012-04-09T06:55:29.000Z</time>
      </trkpt>
      <trkpt lat="45.88336" lon="6.06003">
        <ele>531</ele>
        <time>2012-04-09T06:55:35.000Z</time>
      </trkpt>
      <trkpt lat="45.88334" lon="6.05997">
        <ele>532</ele>
        <time>2012-04-09T06:55:38.000Z</time>
      </trkpt>
      <trkpt lat="45.88331" lon="6.05994">
        <ele>532</ele>
        <time>2012-04-09T06:55:41.000Z</time>
      </trkpt>
      <trkpt lat="45.88322" lon="6.05981">
        <ele>531.79998779297</ele>
        <time>2012-04-09T06:55:48.000Z</time>
      </trkpt>
      <trkpt lat="45.8832" lon="6.05977">
        <ele>531.79998779297</ele>
        <time>2012-04-09T06:55:50.000Z</time>
      </trkpt>
      <trkpt lat="45.88319" lon="6.05969">
        <ele>532.20001220703</ele>
        <time>2012-04-09T06:55:53.000Z</time>
      </trkpt>
      <trkpt lat="45.88315" lon="6.05953">
        <ele>532.59997558594</ele>
        <time>2012-04-09T06:55:59.000Z</time>
      </trkpt>
      <trkpt lat="45.88314" lon="6.05948">
        <ele>532.79998779297</ele>
        <time>2012-04-09T06:56:01.000Z</time>
      </trkpt>
      <trkpt lat="45.88309" lon="6.05938">
        <ele>533.20001220703</ele>
        <time>2012-04-09T06:56:05.000Z</time>
      </trkpt>
      <trkpt lat="45.88308" lon="6.05922">
        <ele>534</ele>
        <time>2012-04-09T06:56:11.000Z</time>
      </trkpt>
      <trkpt lat="45.88304" lon="6.05912">
        <ele>534.20001220703</ele>
        <time>2012-04-09T06:56:15.000Z</time>
      </trkpt>
      <trkpt lat="45.88303" lon="6.05909">
        <ele>534</ele>
        <time>2012-04-09T06:56:16.000Z</time>
      </trkpt>
      <trkpt lat="45.88293" lon="6.05893">
        <ele>533.40002441406</ele>
        <time>2012-04-09T06:56:21.000Z</time>
      </trkpt>
      <trkpt lat="45.88283" lon="6.05865">
        <ele>533</ele>
        <time>2012-04-09T06:56:26.000Z</time>
      </trkpt>
      <trkpt lat="45.88263" lon="6.05811">
        <ele>532.59997558594</ele>
        <time>2012-04-09T06:56:35.000Z</time>
      </trkpt>
      <trkpt lat="45.88258" lon="6.05791">
        <ele>532</ele>
        <time>2012-04-09T06:56:38.000Z</time>
      </trkpt>
      <trkpt lat="45.88255" lon="6.05782">
        <ele>532</ele>
        <time>2012-04-09T06:56:41.000Z</time>
      </trkpt>
      <trkpt lat="45.88248" lon="6.05767">
        <ele>531.40002441406</ele>
        <time>2012-04-09T06:56:48.000Z</time>
      </trkpt>
      <trkpt lat="45.88241" lon="6.05755">
        <ele>530.59997558594</ele>
        <time>2012-04-09T06:56:53.000Z</time>
      </trkpt>
      <trkpt lat="45.88235" lon="6.05743">
        <ele>529.79998779297</ele>
        <time>2012-04-09T06:56:57.000Z</time>
      </trkpt>
      <trkpt lat="45.88224" lon="6.05721">
        <ele>528.40002441406</ele>
        <time>2012-04-09T06:57:04.000Z</time>
      </trkpt>
      <trkpt lat="45.88212" lon="6.05696">
        <ele>527.40002441406</ele>
        <time>2012-04-09T06:57:09.000Z</time>
      </trkpt>
      <trkpt lat="45.88209" lon="6.05686">
        <ele>527</ele>
        <time>2012-04-09T06:57:11.000Z</time>
      </trkpt>
      <trkpt lat="45.88216" lon="6.05664">
        <ele>526.59997558594</ele>
        <time>2012-04-09T06:57:15.000Z</time>
      </trkpt>
      <trkpt lat="45.88227" lon="6.0564">
        <ele>526.20001220703</ele>
        <time>2012-04-09T06:57:18.000Z</time>
      </trkpt>
      <trkpt lat="45.8824" lon="6.05611">
        <ele>525.59997558594</ele>
        <time>2012-04-09T06:57:21.000Z</time>
      </trkpt>
      <trkpt lat="45.8825" lon="6.05581">
        <ele>525</ele>
        <time>2012-04-09T06:57:24.000Z</time>
      </trkpt>
      <trkpt lat="45.88258" lon="6.05555">
        <ele>525</ele>
        <time>2012-04-09T06:57:27.000Z</time>
      </trkpt>
      <trkpt lat="45.8826" lon="6.05548">
        <ele>525</ele>
        <time>2012-04-09T06:57:28.000Z</time>
      </trkpt>
      <trkpt lat="45.8827" lon="6.05526">
        <ele>525</ele>
        <time>2012-04-09T06:57:31.000Z</time>
      </trkpt>
      <trkpt lat="45.88276" lon="6.05518">
        <ele>525</ele>
        <time>2012-04-09T06:57:33.000Z</time>
      </trkpt>
      <trkpt lat="45.88282" lon="6.0551">
        <ele>525</ele>
        <time>2012-04-09T06:57:35.000Z</time>
      </trkpt>
      <trkpt lat="45.88292" lon="6.05481">
        <ele>525.20001220703</ele>
        <time>2012-04-09T06:57:39.000Z</time>
      </trkpt>
      <trkpt lat="45.8829" lon="6.05457">
        <ele>525.20001220703</ele>
        <time>2012-04-09T06:57:42.000Z</time>
      </trkpt>
      <trkpt lat="45.88276" lon="6.05432">
        <ele>525.20001220703</ele>
        <time>2012-04-09T06:57:46.000Z</time>
      </trkpt>
      <trkpt lat="45.88271" lon="6.05426">
        <ele>525.20001220703</ele>
        <time>2012-04-09T06:57:47.000Z</time>
      </trkpt>
      <trkpt lat="45.88256" lon="6.05403">
        <ele>525.20001220703</ele>
        <time>2012-04-09T06:57:51.000Z</time>
      </trkpt>
      <trkpt lat="45.88252" lon="6.05397">
        <ele>525.20001220703</ele>
        <time>2012-04-09T06:57:52.000Z</time>
      </trkpt>
      <trkpt lat="45.88247" lon="6.05367">
        <ele>525.59997558594</ele>
        <time>2012-04-09T06:57:56.000Z</time>
      </trkpt>
      <trkpt lat="45.88251" lon="6.05356">
        <ele>525.79998779297</ele>
        <time>2012-04-09T06:57:59.000Z</time>
      </trkpt>
      <trkpt lat="45.88251" lon="6.05356">
        <ele>525.79998779297</ele>
        <time>2012-04-09T06:58:03.000Z</time>
      </trkpt>
      <trkpt lat="45.88251" lon="6.05354">
        <ele>525.79998779297</ele>
        <time>2012-04-09T06:59:26.000Z</time>
      </trkpt>
      <trkpt lat="45.8825" lon="6.05353">
        <ele>525.79998779297</ele>
        <time>2012-04-09T06:59:57.000Z</time>
      </trkpt>
      <trkpt lat="45.88245" lon="6.05341">
        <ele>526</ele>
        <time>2012-04-09T07:00:03.000Z</time>
      </trkpt>
      <trkpt lat="45.88239" lon="6.05322">
        <ele>526.59997558594</ele>
        <time>2012-04-09T07:00:09.000Z</time>
      </trkpt>
      <trkpt lat="45.88235" lon="6.05312">
        <ele>527.20001220703</ele>
        <time>2012-04-09T07:00:12.000Z</time>
      </trkpt>
      <trkpt lat="45.88228" lon="6.05299">
        <ele>527.79998779297</ele>
        <time>2012-04-09T07:00:17.000Z</time>
      </trkpt>
      <trkpt lat="45.88215" lon="6.05275">
        <ele>529</ele>
        <time>2012-04-09T07:00:26.000Z</time>
      </trkpt>
      <trkpt lat="45.88203" lon="6.05264">
        <ele>529.40002441406</ele>
        <time>2012-04-09T07:00:32.000Z</time>
      </trkpt>
      <trkpt lat="45.88199" lon="6.05262">
        <ele>529.59997558594</ele>
        <time>2012-04-09T07:00:34.000Z</time>
      </trkpt>
      <trkpt lat="45.88183" lon="6.05259">
        <ele>529.59997558594</ele>
        <time>2012-04-09T07:00:41.000Z</time>
      </trkpt>
      <trkpt lat="45.88175" lon="6.05269">
        <ele>529.40002441406</ele>
        <time>2012-04-09T07:00:46.000Z</time>
      </trkpt>
      <trkpt lat="45.88169" lon="6.05291">
        <ele>528.40002441406</ele>
        <time>2012-04-09T07:00:52.000Z</time>
      </trkpt>
      <trkpt lat="45.88162" lon="6.05317">
        <ele>528.20001220703</ele>
        <time>2012-04-09T07:00:59.000Z</time>
      </trkpt>
      <trkpt lat="45.88158" lon="6.05342">
        <ele>528</ele>
        <time>2012-04-09T07:01:06.000Z</time>
      </trkpt>
      <trkpt lat="45.88154" lon="6.05364">
        <ele>527.79998779297</ele>
        <time>2012-04-09T07:01:13.000Z</time>
      </trkpt>
      <trkpt lat="45.88148" lon="6.05392">
        <ele>527.20001220703</ele>
        <time>2012-04-09T07:01:21.000Z</time>
      </trkpt>
      <trkpt lat="45.88138" lon="6.05415">
        <ele>526.40002441406</ele>
        <time>2012-04-09T07:01:28.000Z</time>
      </trkpt>
      <trkpt lat="45.88125" lon="6.05433">
        <ele>526.40002441406</ele>
        <time>2012-04-09T07:01:35.000Z</time>
      </trkpt>
      <trkpt lat="45.88109" lon="6.05447">
        <ele>526.40002441406</ele>
        <time>2012-04-09T07:01:41.000Z</time>
      </trkpt>
      <trkpt lat="45.88092" lon="6.05461">
        <ele>526.40002441406</ele>
        <time>2012-04-09T07:01:49.000Z</time>
      </trkpt>
      <trkpt lat="45.88075" lon="6.05473">
        <ele>526</ele>
        <time>2012-04-09T07:01:56.000Z</time>
      </trkpt>
      <trkpt lat="45.8806" lon="6.05485">
        <ele>525.59997558594</ele>
        <time>2012-04-09T07:02:03.000Z</time>
      </trkpt>
      <trkpt lat="45.88042" lon="6.055">
        <ele>525</ele>
        <time>2012-04-09T07:02:11.000Z</time>
      </trkpt>
      <trkpt lat="45.88024" lon="6.05514">
        <ele>524.79998779297</ele>
        <time>2012-04-09T07:02:19.000Z</time>
      </trkpt>
      <trkpt lat="45.88012" lon="6.05513">
        <ele>524.59997558594</ele>
        <time>2012-04-09T07:02:24.000Z</time>
      </trkpt>
      <trkpt lat="45.88001" lon="6.05498">
        <ele>524</ele>
        <time>2012-04-09T07:02:30.000Z</time>
      </trkpt>
      <trkpt lat="45.87993" lon="6.05484">
        <ele>523.79998779297</ele>
        <time>2012-04-09T07:02:35.000Z</time>
      </trkpt>
      <trkpt lat="45.87976" lon="6.05456">
        <ele>523.40002441406</ele>
        <time>2012-04-09T07:02:45.000Z</time>
      </trkpt>
      <trkpt lat="45.87963" lon="6.05432">
        <ele>523.20001220703</ele>
        <time>2012-04-09T07:02:53.000Z</time>
      </trkpt>
      <trkpt lat="45.87951" lon="6.05412">
        <ele>523</ele>
        <time>2012-04-09T07:03:01.000Z</time>
      </trkpt>
      <trkpt lat="45.87938" lon="6.05407">
        <ele>523</ele>
        <time>2012-04-09T07:03:07.000Z</time>
      </trkpt>
      <trkpt lat="45.87928" lon="6.05413">
        <ele>523</ele>
        <time>2012-04-09T07:03:12.000Z</time>
      </trkpt>
      <trkpt lat="45.87914" lon="6.05427">
        <ele>523</ele>
        <time>2012-04-09T07:03:18.000Z</time>
      </trkpt>
      <trkpt lat="45.87898" lon="6.05442">
        <ele>522.59997558594</ele>
        <time>2012-04-09T07:03:25.000Z</time>
      </trkpt>
      <trkpt lat="45.87881" lon="6.05459">
        <ele>522.59997558594</ele>
        <time>2012-04-09T07:03:33.000Z</time>
      </trkpt>
      <trkpt lat="45.87864" lon="6.05476">
        <ele>522.59997558594</ele>
        <time>2012-04-09T07:03:41.000Z</time>
      </trkpt>
      <trkpt lat="45.87848" lon="6.0549">
        <ele>522.79998779297</ele>
        <time>2012-04-09T07:03:49.000Z</time>
      </trkpt>
      <trkpt lat="45.87833" lon="6.05505">
        <ele>523.20001220703</ele>
        <time>2012-04-09T07:03:56.000Z</time>
      </trkpt>
      <trkpt lat="45.87819" lon="6.05519">
        <ele>523</ele>
        <time>2012-04-09T07:04:02.000Z</time>
      </trkpt>
      <trkpt lat="45.87803" lon="6.05532">
        <ele>522.59997558594</ele>
        <time>2012-04-09T07:04:09.000Z</time>
      </trkpt>
      <trkpt lat="45.87788" lon="6.05546">
        <ele>521.79998779297</ele>
        <time>2012-04-09T07:04:15.000Z</time>
      </trkpt>
      <trkpt lat="45.87772" lon="6.05563">
        <ele>520.79998779297</ele>
        <time>2012-04-09T07:04:22.000Z</time>
      </trkpt>
      <trkpt lat="45.87761" lon="6.05572">
        <ele>520</ele>
        <time>2012-04-09T07:04:28.000Z</time>
      </trkpt>
      <trkpt lat="45.8775" lon="6.05579">
        <ele>519</ele>
        <time>2012-04-09T07:04:33.000Z</time>
      </trkpt>
      <trkpt lat="45.87731" lon="6.05579">
        <ele>517.59997558594</ele>
        <time>2012-04-09T07:04:39.000Z</time>
      </trkpt>
      <trkpt lat="45.87715" lon="6.0557">
        <ele>516.40002441406</ele>
        <time>2012-04-09T07:04:46.000Z</time>
      </trkpt>
      <trkpt lat="45.877" lon="6.05559">
        <ele>515.59997558594</ele>
        <time>2012-04-09T07:04:52.000Z</time>
      </trkpt>
      <trkpt lat="45.87683" lon="6.0555">
        <ele>514.40002441406</ele>
        <time>2012-04-09T07:04:59.000Z</time>
      </trkpt>
      <trkpt lat="45.87664" lon="6.05548">
        <ele>513.40002441406</ele>
        <time>2012-04-09T07:05:06.000Z</time>
      </trkpt>
      <trkpt lat="45.87647" lon="6.05553">
        <ele>514.20001220703</ele>
        <time>2012-04-09T07:05:13.000Z</time>
      </trkpt>
      <trkpt lat="45.87628" lon="6.0556">
        <ele>515.40002441406</ele>
        <time>2012-04-09T07:05:21.000Z</time>
      </trkpt>
      <trkpt lat="45.87612" lon="6.05566">
        <ele>516.40002441406</ele>
        <time>2012-04-09T07:05:28.000Z</time>
      </trkpt>
      <trkpt lat="45.87593" lon="6.05573">
        <ele>518</ele>
        <time>2012-04-09T07:05:34.000Z</time>
      </trkpt>
      <trkpt lat="45.8758" lon="6.05573">
        <ele>518.79998779297</ele>
        <time>2012-04-09T07:05:39.000Z</time>
      </trkpt>
      <trkpt lat="45.87566" lon="6.05558">
        <ele>519</ele>
        <time>2012-04-09T07:05:45.000Z</time>
      </trkpt>
      <trkpt lat="45.87552" lon="6.05538">
        <ele>519.40002441406</ele>
        <time>2012-04-09T07:05:49.000Z</time>
      </trkpt>
      <trkpt lat="45.87541" lon="6.05521">
        <ele>519.59997558594</ele>
        <time>2012-04-09T07:05:52.000Z</time>
      </trkpt>
      <trkpt lat="45.87534" lon="6.05514">
        <ele>519.79998779297</ele>
        <time>2012-04-09T07:05:54.000Z</time>
      </trkpt>
      <trkpt lat="45.87526" lon="6.05497">
        <ele>520</ele>
        <time>2012-04-09T07:05:59.000Z</time>
      </trkpt>
      <trkpt lat="45.87522" lon="6.05487">
        <ele>519.59997558594</ele>
        <time>2012-04-09T07:06:02.000Z</time>
      </trkpt>
      <trkpt lat="45.87522" lon="6.05485">
        <ele>519.59997558594</ele>
        <time>2012-04-09T07:06:08.000Z</time>
      </trkpt>
      <trkpt lat="45.87514" lon="6.05463">
        <ele>518.79998779297</ele>
        <time>2012-04-09T07:06:13.000Z</time>
      </trkpt>
      <trkpt lat="45.87514" lon="6.0546">
        <ele>518.79998779297</ele>
        <time>2012-04-09T07:06:14.000Z</time>
      </trkpt>
      <trkpt lat="45.87508" lon="6.05438">
        <ele>517.79998779297</ele>
        <time>2012-04-09T07:06:19.000Z</time>
      </trkpt>
      <trkpt lat="45.87503" lon="6.0542">
        <ele>517</ele>
        <time>2012-04-09T07:06:23.000Z</time>
      </trkpt>
      <trkpt lat="45.87503" lon="6.05398">
        <ele>515.79998779297</ele>
        <time>2012-04-09T07:06:28.000Z</time>
      </trkpt>
      <trkpt lat="45.87502" lon="6.0537">
        <ele>514.20001220703</ele>
        <time>2012-04-09T07:06:35.000Z</time>
      </trkpt>
      <trkpt lat="45.87502" lon="6.05361">
        <ele>513.59997558594</ele>
        <time>2012-04-09T07:06:37.000Z</time>
      </trkpt>
      <trkpt lat="45.875" lon="6.0535">
        <ele>513</ele>
        <time>2012-04-09T07:06:40.000Z</time>
      </trkpt>
      <trkpt lat="45.87496" lon="6.05329">
        <ele>513</ele>
        <time>2012-04-09T07:06:45.000Z</time>
      </trkpt>
      <trkpt lat="45.87492" lon="6.05315">
        <ele>513.40002441406</ele>
        <time>2012-04-09T07:06:50.000Z</time>
      </trkpt>
      <trkpt lat="45.87488" lon="6.05301">
        <ele>513.79998779297</ele>
        <time>2012-04-09T07:06:56.000Z</time>
      </trkpt>
      <trkpt lat="45.87482" lon="6.0528">
        <ele>514.20001220703</ele>
        <time>2012-04-09T07:07:04.000Z</time>
      </trkpt>
      <trkpt lat="45.87477" lon="6.05266">
        <ele>514.59997558594</ele>
        <time>2012-04-09T07:07:11.000Z</time>
      </trkpt>
      <trkpt lat="45.87471" lon="6.05252">
        <ele>515</ele>
        <time>2012-04-09T07:07:17.000Z</time>
      </trkpt>
      <trkpt lat="45.87464" lon="6.0523">
        <ele>515.59997558594</ele>
        <time>2012-04-09T07:07:25.000Z</time>
      </trkpt>
      <trkpt lat="45.87457" lon="6.05205">
        <ele>515.79998779297</ele>
        <time>2012-04-09T07:07:33.000Z</time>
      </trkpt>
      <trkpt lat="45.87447" lon="6.0518">
        <ele>516</ele>
        <time>2012-04-09T07:07:41.000Z</time>
      </trkpt>
      <trkpt lat="45.87437" lon="6.05164">
        <ele>516.40002441406</ele>
        <time>2012-04-09T07:07:46.000Z</time>
      </trkpt>
      <trkpt lat="45.87429" lon="6.05148">
        <ele>517.40002441406</ele>
        <time>2012-04-09T07:07:50.000Z</time>
      </trkpt>
      <trkpt lat="45.87425" lon="6.05139">
        <ele>517.79998779297</ele>
        <time>2012-04-09T07:07:52.000Z</time>
      </trkpt>
      <trkpt lat="45.87423" lon="6.05106">
        <ele>518.40002441406</ele>
        <time>2012-04-09T07:07:59.000Z</time>
      </trkpt>
      <trkpt lat="45.87423" lon="6.05084">
        <ele>518.59997558594</ele>
        <time>2012-04-09T07:08:04.000Z</time>
      </trkpt>
      <trkpt lat="45.87427" lon="6.05065">
        <ele>520.59997558594</ele>
        <time>2012-04-09T07:08:09.000Z</time>
      </trkpt>
      <trkpt lat="45.87432" lon="6.05058">
        <ele>520.79998779297</ele>
        <time>2012-04-09T07:08:12.000Z</time>
      </trkpt>
      <trkpt lat="45.87437" lon="6.05038">
        <ele>522.20001220703</ele>
        <time>2012-04-09T07:08:18.000Z</time>
      </trkpt>
      <trkpt lat="45.87439" lon="6.0503">
        <ele>522.79998779297</ele>
        <time>2012-04-09T07:08:21.000Z</time>
      </trkpt>
      <trkpt lat="45.87445" lon="6.05019">
        <ele>523</ele>
        <time>2012-04-09T07:08:26.000Z</time>
      </trkpt>
      <trkpt lat="45.87456" lon="6.05004">
        <ele>522.59997558594</ele>
        <time>2012-04-09T07:08:33.000Z</time>
      </trkpt>
      <trkpt lat="45.87465" lon="6.04992">
        <ele>523</ele>
        <time>2012-04-09T07:08:39.000Z</time>
      </trkpt>
      <trkpt lat="45.87465" lon="6.04992">
        <ele>523</ele>
        <time>2012-04-09T07:08:40.000Z</time>
      </trkpt>
      <trkpt lat="45.87467" lon="6.0499">
        <ele>523</ele>
        <time>2012-04-09T07:08:42.000Z</time>
      </trkpt>
      <trkpt lat="45.87468" lon="6.0499">
        <ele>522.79998779297</ele>
        <time>2012-04-09T07:08:49.000Z</time>
      </trkpt>
      <trkpt lat="45.87468" lon="6.04988">
        <ele>523.20001220703</ele>
        <time>2012-04-09T07:08:55.000Z</time>
      </trkpt>
      <trkpt lat="45.8747" lon="6.04984">
        <ele>523.59997558594</ele>
        <time>2012-04-09T07:09:06.000Z</time>
      </trkpt>
      <trkpt lat="45.8747" lon="6.04985">
        <ele>523.40002441406</ele>
        <time>2012-04-09T07:10:28.000Z</time>
      </trkpt>
      <trkpt lat="45.87482" lon="6.04976">
        <ele>523.20001220703</ele>
        <time>2012-04-09T07:10:33.000Z</time>
      </trkpt>
      <trkpt lat="45.87493" lon="6.04966">
        <ele>523.20001220703</ele>
        <time>2012-04-09T07:10:38.000Z</time>
      </trkpt>
      <trkpt lat="45.87506" lon="6.04955">
        <ele>523.59997558594</ele>
        <time>2012-04-09T07:10:43.000Z</time>
      </trkpt>
      <trkpt lat="45.87513" lon="6.04947">
        <ele>523.79998779297</ele>
        <time>2012-04-09T07:10:47.000Z</time>
      </trkpt>
      <trkpt lat="45.87516" lon="6.04946">
        <ele>523.40002441406</ele>
        <time>2012-04-09T07:10:51.000Z</time>
      </trkpt>
      <trkpt lat="45.87524" lon="6.04938">
        <ele>523.59997558594</ele>
        <time>2012-04-09T07:10:57.000Z</time>
      </trkpt>
      <trkpt lat="45.87536" lon="6.04926">
        <ele>523</ele>
        <time>2012-04-09T07:11:02.000Z</time>
      </trkpt>
      <trkpt lat="45.87549" lon="6.04917">
        <ele>521.59997558594</ele>
        <time>2012-04-09T07:11:07.000Z</time>
      </trkpt>
      <trkpt lat="45.87552" lon="6.04917">
        <ele>521</ele>
        <time>2012-04-09T07:11:08.000Z</time>
      </trkpt>
      <trkpt lat="45.87555" lon="6.04931">
        <ele>519.20001220703</ele>
        <time>2012-04-09T07:11:13.000Z</time>
      </trkpt>
      <trkpt lat="45.87555" lon="6.04933">
        <ele>519.20001220703</ele>
        <time>2012-04-09T07:11:14.000Z</time>
      </trkpt>
      <trkpt lat="45.87545" lon="6.04943">
        <ele>519.79998779297</ele>
        <time>2012-04-09T07:11:20.000Z</time>
      </trkpt>
      <trkpt lat="45.87529" lon="6.04954">
        <ele>520.59997558594</ele>
        <time>2012-04-09T07:11:27.000Z</time>
      </trkpt>
      <trkpt lat="45.87515" lon="6.04971">
        <ele>520</ele>
        <time>2012-04-09T07:11:34.000Z</time>
      </trkpt>
      <trkpt lat="45.87504" lon="6.04979">
        <ele>519.59997558594</ele>
        <time>2012-04-09T07:11:39.000Z</time>
      </trkpt>
      <trkpt lat="45.87493" lon="6.04989">
        <ele>519</ele>
        <time>2012-04-09T07:11:44.000Z</time>
      </trkpt>
      <trkpt lat="45.87482" lon="6.05004">
        <ele>518.59997558594</ele>
        <time>2012-04-09T07:11:50.000Z</time>
      </trkpt>
      <trkpt lat="45.87484" lon="6.05019">
        <ele>517.79998779297</ele>
        <time>2012-04-09T07:11:54.000Z</time>
      </trkpt>
      <trkpt lat="45.8749" lon="6.05028">
        <ele>516.79998779297</ele>
        <time>2012-04-09T07:11:57.000Z</time>
      </trkpt>
      <trkpt lat="45.87506" lon="6.05024">
        <ele>515.59997558594</ele>
        <time>2012-04-09T07:12:02.000Z</time>
      </trkpt>
      <trkpt lat="45.87523" lon="6.05016">
        <ele>515.40002441406</ele>
        <time>2012-04-09T07:12:07.000Z</time>
      </trkpt>
      <trkpt lat="45.87543" lon="6.05007">
        <ele>514.79998779297</ele>
        <time>2012-04-09T07:12:12.000Z</time>
      </trkpt>
      <trkpt lat="45.87564" lon="6.04997">
        <ele>514</ele>
        <time>2012-04-09T07:12:17.000Z</time>
      </trkpt>
      <trkpt lat="45.87582" lon="6.04984">
        <ele>513.40002441406</ele>
        <time>2012-04-09T07:12:22.000Z</time>
      </trkpt>
      <trkpt lat="45.87602" lon="6.04971">
        <ele>514</ele>
        <time>2012-04-09T07:12:27.000Z</time>
      </trkpt>
      <trkpt lat="45.87621" lon="6.04958">
        <ele>514.20001220703</ele>
        <time>2012-04-09T07:12:33.000Z</time>
      </trkpt>
      <trkpt lat="45.87636" lon="6.04943">
        <ele>513.79998779297</ele>
        <time>2012-04-09T07:12:45.000Z</time>
      </trkpt>
      <trkpt lat="45.8765" lon="6.04933">
        <ele>513.40002441406</ele>
        <time>2012-04-09T07:13:49.000Z</time>
      </trkpt>
      <trkpt lat="45.87668" lon="6.04923">
        <ele>512.59997558594</ele>
        <time>2012-04-09T07:13:57.000Z</time>
      </trkpt>
      <trkpt lat="45.87685" lon="6.04911">
        <ele>513.40002441406</ele>
        <time>2012-04-09T07:14:04.000Z</time>
      </trkpt>
      <trkpt lat="45.87701" lon="6.049">
        <ele>514.59997558594</ele>
        <time>2012-04-09T07:14:11.000Z</time>
      </trkpt>
      <trkpt lat="45.87718" lon="6.04889">
        <ele>516</ele>
        <time>2012-04-09T07:14:19.000Z</time>
      </trkpt>
      <trkpt lat="45.87727" lon="6.04892">
        <ele>516.59997558594</ele>
        <time>2012-04-09T07:14:24.000Z</time>
      </trkpt>
      <trkpt lat="45.87737" lon="6.04904">
        <ele>517</ele>
        <time>2012-04-09T07:14:30.000Z</time>
      </trkpt>
      <trkpt lat="45.87743" lon="6.04916">
        <ele>517.40002441406</ele>
        <time>2012-04-09T07:14:36.000Z</time>
      </trkpt>
      <trkpt lat="45.87756" lon="6.04927">
        <ele>518.59997558594</ele>
        <time>2012-04-09T07:14:44.000Z</time>
      </trkpt>
      <trkpt lat="45.87766" lon="6.04939">
        <ele>519.20001220703</ele>
        <time>2012-04-09T07:14:51.000Z</time>
      </trkpt>
      <trkpt lat="45.87767" lon="6.04941">
        <ele>519.40002441406</ele>
        <time>2012-04-09T07:14:52.000Z</time>
      </trkpt>
      <trkpt lat="45.87779" lon="6.04934">
        <ele>520.20001220703</ele>
        <time>2012-04-09T07:14:59.000Z</time>
      </trkpt>
      <trkpt lat="45.87787" lon="6.04923">
        <ele>520.59997558594</ele>
        <time>2012-04-09T07:15:05.000Z</time>
      </trkpt>
      <trkpt lat="45.87792" lon="6.04903">
        <ele>521.40002441406</ele>
        <time>2012-04-09T07:15:13.000Z</time>
      </trkpt>
      <trkpt lat="45.87793" lon="6.04884">
        <ele>522.20001220703</ele>
        <time>2012-04-09T07:15:20.000Z</time>
      </trkpt>
      <trkpt lat="45.87794" lon="6.04863">
        <ele>522.79998779297</ele>
        <time>2012-04-09T07:15:28.000Z</time>
      </trkpt>
      <trkpt lat="45.87795" lon="6.04843">
        <ele>523.59997558594</ele>
        <time>2012-04-09T07:15:36.000Z</time>
      </trkpt>
      <trkpt lat="45.87795" lon="6.04823">
        <ele>524.20001220703</ele>
        <time>2012-04-09T07:15:44.000Z</time>
      </trkpt>
      <trkpt lat="45.87795" lon="6.04795">
        <ele>525.20001220703</ele>
        <time>2012-04-09T07:15:53.000Z</time>
      </trkpt>
      <trkpt lat="45.87796" lon="6.04791">
        <ele>525.40002441406</ele>
        <time>2012-04-09T07:15:55.000Z</time>
      </trkpt>
      <trkpt lat="45.87797" lon="6.04788">
        <ele>525.59997558594</ele>
        <time>2012-04-09T07:16:04.000Z</time>
      </trkpt>
      <trkpt lat="45.87797" lon="6.04775">
        <ele>526.20001220703</ele>
        <time>2012-04-09T07:16:39.000Z</time>
      </trkpt>
      <trkpt lat="45.87796" lon="6.04758">
        <ele>526.59997558594</ele>
        <time>2012-04-09T07:16:43.000Z</time>
      </trkpt>
      <trkpt lat="45.87799" lon="6.04732">
        <ele>527</ele>
        <time>2012-04-09T07:16:49.000Z</time>
      </trkpt>
      <trkpt lat="45.87801" lon="6.0471">
        <ele>527</ele>
        <time>2012-04-09T07:16:55.000Z</time>
      </trkpt>
      <trkpt lat="45.87801" lon="6.04693">
        <ele>526.40002441406</ele>
        <time>2012-04-09T07:17:01.000Z</time>
      </trkpt>
      <trkpt lat="45.87803" lon="6.0467">
        <ele>526.20001220703</ele>
        <time>2012-04-09T07:17:08.000Z</time>
      </trkpt>
      <trkpt lat="45.87806" lon="6.04647">
        <ele>525</ele>
        <time>2012-04-09T07:17:14.000Z</time>
      </trkpt>
      <trkpt lat="45.87806" lon="6.0462">
        <ele>523</ele>
        <time>2012-04-09T07:17:20.000Z</time>
      </trkpt>
      <trkpt lat="45.8781" lon="6.04591">
        <ele>521.20001220703</ele>
        <time>2012-04-09T07:17:26.000Z</time>
      </trkpt>
      <trkpt lat="45.87814" lon="6.04565">
        <ele>520.40002441406</ele>
        <time>2012-04-09T07:17:32.000Z</time>
      </trkpt>
      <trkpt lat="45.87826" lon="6.04551">
        <ele>521</ele>
        <time>2012-04-09T07:17:37.000Z</time>
      </trkpt>
      <trkpt lat="45.87842" lon="6.04535">
        <ele>522</ele>
        <time>2012-04-09T07:17:44.000Z</time>
      </trkpt>
      <trkpt lat="45.87858" lon="6.04521">
        <ele>522.79998779297</ele>
        <time>2012-04-09T07:17:50.000Z</time>
      </trkpt>
      <trkpt lat="45.87874" lon="6.04505">
        <ele>524</ele>
        <time>2012-04-09T07:17:57.000Z</time>
      </trkpt>
      <trkpt lat="45.87884" lon="6.04488">
        <ele>525.20001220703</ele>
        <time>2012-04-09T07:18:02.000Z</time>
      </trkpt>
      <trkpt lat="45.87892" lon="6.04468">
        <ele>526.40002441406</ele>
        <time>2012-04-09T07:18:08.000Z</time>
      </trkpt>
      <trkpt lat="45.87893" lon="6.04449">
        <ele>527</ele>
        <time>2012-04-09T07:18:13.000Z</time>
      </trkpt>
      <trkpt lat="45.87885" lon="6.04423">
        <ele>526.79998779297</ele>
        <time>2012-04-09T07:18:20.000Z</time>
      </trkpt>
      <trkpt lat="45.87874" lon="6.04398">
        <ele>526.40002441406</ele>
        <time>2012-04-09T07:18:26.000Z</time>
      </trkpt>
      <trkpt lat="45.87862" lon="6.04369">
        <ele>526.20001220703</ele>
        <time>2012-04-09T07:18:33.000Z</time>
      </trkpt>
      <trkpt lat="45.87852" lon="6.04345">
        <ele>526</ele>
        <time>2012-04-09T07:18:39.000Z</time>
      </trkpt>
      <trkpt lat="45.87842" lon="6.04319">
        <ele>526.20001220703</ele>
        <time>2012-04-09T07:18:46.000Z</time>
      </trkpt>
      <trkpt lat="45.8783" lon="6.04298">
        <ele>526.59997558594</ele>
        <time>2012-04-09T07:18:52.000Z</time>
      </trkpt>
      <trkpt lat="45.87819" lon="6.04277">
        <ele>526.79998779297</ele>
        <time>2012-04-09T07:18:58.000Z</time>
      </trkpt>
      <trkpt lat="45.87809" lon="6.0427">
        <ele>526.59997558594</ele>
        <time>2012-04-09T07:19:02.000Z</time>
      </trkpt>
      <trkpt lat="45.87807" lon="6.0427">
        <ele>526.59997558594</ele>
        <time>2012-04-09T07:19:03.000Z</time>
      </trkpt>
      <trkpt lat="45.87792" lon="6.04281">
        <ele>525.20001220703</ele>
        <time>2012-04-09T07:19:08.000Z</time>
      </trkpt>
      <trkpt lat="45.87777" lon="6.04305">
        <ele>522.79998779297</ele>
        <time>2012-04-09T07:19:14.000Z</time>
      </trkpt>
      <trkpt lat="45.87765" lon="6.04325">
        <ele>520.59997558594</ele>
        <time>2012-04-09T07:19:18.000Z</time>
      </trkpt>
      <trkpt lat="45.8776" lon="6.04327">
        <ele>520.20001220703</ele>
        <time>2012-04-09T07:19:19.000Z</time>
      </trkpt>
      <trkpt lat="45.87752" lon="6.04326">
        <ele>519.59997558594</ele>
        <time>2012-04-09T07:19:21.000Z</time>
      </trkpt>
      <trkpt lat="45.8774" lon="6.04315">
        <ele>519</ele>
        <time>2012-04-09T07:19:25.000Z</time>
      </trkpt>
      <trkpt lat="45.87729" lon="6.04303">
        <ele>518.59997558594</ele>
        <time>2012-04-09T07:19:32.000Z</time>
      </trkpt>
      <trkpt lat="45.87719" lon="6.04288">
        <ele>518.59997558594</ele>
        <time>2012-04-09T07:19:37.000Z</time>
      </trkpt>
      <trkpt lat="45.87706" lon="6.0427">
        <ele>518.20001220703</ele>
        <time>2012-04-09T07:19:41.000Z</time>
      </trkpt>
      <trkpt lat="45.87691" lon="6.04248">
        <ele>518</ele>
        <time>2012-04-09T07:19:45.000Z</time>
      </trkpt>
      <trkpt lat="45.87674" lon="6.04214">
        <ele>517</ele>
        <time>2012-04-09T07:19:51.000Z</time>
      </trkpt>
      <trkpt lat="45.87673" lon="6.04216">
        <ele>516.79998779297</ele>
        <time>2012-04-09T07:19:59.000Z</time>
      </trkpt>
      <trkpt lat="45.87672" lon="6.04223">
        <ele>516.59997558594</ele>
        <time>2012-04-09T07:20:06.000Z</time>
      </trkpt>
      <trkpt lat="45.87675" lon="6.04231">
        <ele>516.59997558594</ele>
        <time>2012-04-09T07:20:12.000Z</time>
      </trkpt>
      <trkpt lat="45.87679" lon="6.04253">
        <ele>516.20001220703</ele>
        <time>2012-04-09T07:20:17.000Z</time>
      </trkpt>
      <trkpt lat="45.87687" lon="6.04276">
        <ele>515.59997558594</ele>
        <time>2012-04-09T07:20:21.000Z</time>
      </trkpt>
      <trkpt lat="45.87689" lon="6.04284">
        <ele>515.20001220703</ele>
        <time>2012-04-09T07:20:22.000Z</time>
      </trkpt>
      <trkpt lat="45.87682" lon="6.04294">
        <ele>513.59997558594</ele>
        <time>2012-04-09T07:20:25.000Z</time>
      </trkpt>
      <trkpt lat="45.87678" lon="6.04291">
        <ele>513.40002441406</ele>
        <time>2012-04-09T07:20:26.000Z</time>
      </trkpt>
      <trkpt lat="45.87673" lon="6.04286">
        <ele>513.20001220703</ele>
        <time>2012-04-09T07:20:29.000Z</time>
      </trkpt>
      <trkpt lat="45.87662" lon="6.04274">
        <ele>512.79998779297</ele>
        <time>2012-04-09T07:20:33.000Z</time>
      </trkpt>
      <trkpt lat="45.8764" lon="6.04263">
        <ele>511</ele>
        <time>2012-04-09T07:20:37.000Z</time>
      </trkpt>
      <trkpt lat="45.87636" lon="6.04261">
        <ele>510.60000610352</ele>
        <time>2012-04-09T07:20:38.000Z</time>
      </trkpt>
      <trkpt lat="45.87614" lon="6.0427">
        <ele>507.79998779297</ele>
        <time>2012-04-09T07:20:42.000Z</time>
      </trkpt>
      <trkpt lat="45.87608" lon="6.04282">
        <ele>506.79998779297</ele>
        <time>2012-04-09T07:20:44.000Z</time>
      </trkpt>
      <trkpt lat="45.87603" lon="6.04297">
        <ele>505.60000610352</ele>
        <time>2012-04-09T07:20:46.000Z</time>
      </trkpt>
      <trkpt lat="45.87597" lon="6.04311">
        <ele>504.60000610352</ele>
        <time>2012-04-09T07:20:48.000Z</time>
      </trkpt>
      <trkpt lat="45.87578" lon="6.04335">
        <ele>502.60000610352</ele>
        <time>2012-04-09T07:20:53.000Z</time>
      </trkpt>
      <trkpt lat="45.87574" lon="6.04337">
        <ele>502.39999389648</ele>
        <time>2012-04-09T07:20:54.000Z</time>
      </trkpt>
      <trkpt lat="45.87571" lon="6.04339">
        <ele>502.20001220703</ele>
        <time>2012-04-09T07:20:55.000Z</time>
      </trkpt>
      <trkpt lat="45.87563" lon="6.04346">
        <ele>501.79998779297</ele>
        <time>2012-04-09T07:21:00.000Z</time>
      </trkpt>
      <trkpt lat="45.87559" lon="6.04351">
        <ele>501.60000610352</ele>
        <time>2012-04-09T07:21:22.000Z</time>
      </trkpt>
      <trkpt lat="45.87543" lon="6.04372">
        <ele>501.20001220703</ele>
        <time>2012-04-09T07:21:28.000Z</time>
      </trkpt>
      <trkpt lat="45.87534" lon="6.04383">
        <ele>501.20001220703</ele>
        <time>2012-04-09T07:21:32.000Z</time>
      </trkpt>
      <trkpt lat="45.87521" lon="6.04395">
        <ele>501</ele>
        <time>2012-04-09T07:21:37.000Z</time>
      </trkpt>
      <trkpt lat="45.87506" lon="6.04407">
        <ele>500.79998779297</ele>
        <time>2012-04-09T07:21:43.000Z</time>
      </trkpt>
      <trkpt lat="45.87488" lon="6.04416">
        <ele>501.60000610352</ele>
        <time>2012-04-09T07:21:51.000Z</time>
      </trkpt>
      <trkpt lat="45.87471" lon="6.04422">
        <ele>503.39999389648</ele>
        <time>2012-04-09T07:21:58.000Z</time>
      </trkpt>
      <trkpt lat="45.87458" lon="6.04434">
        <ele>505.60000610352</ele>
        <time>2012-04-09T07:22:05.000Z</time>
      </trkpt>
      <trkpt lat="45.87449" lon="6.04451">
        <ele>508.20001220703</ele>
        <time>2012-04-09T07:22:11.000Z</time>
      </trkpt>
      <trkpt lat="45.87438" lon="6.04475">
        <ele>512.20001220703</ele>
        <time>2012-04-09T07:22:18.000Z</time>
      </trkpt>
      <trkpt lat="45.87431" lon="6.0449">
        <ele>514.40002441406</ele>
        <time>2012-04-09T07:22:23.000Z</time>
      </trkpt>
      <trkpt lat="45.87424" lon="6.04508">
        <ele>516.79998779297</ele>
        <time>2012-04-09T07:22:29.000Z</time>
      </trkpt>
      <trkpt lat="45.87418" lon="6.04533">
        <ele>518.59997558594</ele>
        <time>2012-04-09T07:22:36.000Z</time>
      </trkpt>
      <trkpt lat="45.87412" lon="6.04559">
        <ele>521</ele>
        <time>2012-04-09T07:22:43.000Z</time>
      </trkpt>
      <trkpt lat="45.87407" lon="6.04579">
        <ele>523</ele>
        <time>2012-04-09T07:22:49.000Z</time>
      </trkpt>
      <trkpt lat="45.874" lon="6.04597">
        <ele>525.20001220703</ele>
        <time>2012-04-09T07:22:55.000Z</time>
      </trkpt>
      <trkpt lat="45.87396" lon="6.04603">
        <ele>526.40002441406</ele>
        <time>2012-04-09T07:22:58.000Z</time>
      </trkpt>
      <trkpt lat="45.87385" lon="6.04611">
        <ele>528.40002441406</ele>
        <time>2012-04-09T07:23:03.000Z</time>
      </trkpt>
      <trkpt lat="45.87369" lon="6.04618">
        <ele>531.20001220703</ele>
        <time>2012-04-09T07:23:10.000Z</time>
      </trkpt>
      <trkpt lat="45.87354" lon="6.0462">
        <ele>533.59997558594</ele>
        <time>2012-04-09T07:23:16.000Z</time>
      </trkpt>
      <trkpt lat="45.87344" lon="6.04622">
        <ele>535</ele>
        <time>2012-04-09T07:23:20.000Z</time>
      </trkpt>
      <trkpt lat="45.87329" lon="6.04622">
        <ele>536.59997558594</ele>
        <time>2012-04-09T07:23:26.000Z</time>
      </trkpt>
      <trkpt lat="45.87313" lon="6.04629">
        <ele>535.59997558594</ele>
        <time>2012-04-09T07:23:33.000Z</time>
      </trkpt>
      <trkpt lat="45.87299" lon="6.04638">
        <ele>534.40002441406</ele>
        <time>2012-04-09T07:23:40.000Z</time>
      </trkpt>
      <trkpt lat="45.87287" lon="6.04649">
        <ele>532.59997558594</ele>
        <time>2012-04-09T07:23:46.000Z</time>
      </trkpt>
      <trkpt lat="45.87274" lon="6.04665">
        <ele>530</ele>
        <time>2012-04-09T07:23:53.000Z</time>
      </trkpt>
      <trkpt lat="45.87264" lon="6.04678">
        <ele>529.40002441406</ele>
        <time>2012-04-09T07:23:59.000Z</time>
      </trkpt>
      <trkpt lat="45.8726" lon="6.04692">
        <ele>529.59997558594</ele>
        <time>2012-04-09T07:24:04.000Z</time>
      </trkpt>
      <trkpt lat="45.87253" lon="6.04704">
        <ele>529.20001220703</ele>
        <time>2012-04-09T07:24:09.000Z</time>
      </trkpt>
      <trkpt lat="45.87243" lon="6.04718">
        <ele>529</ele>
        <time>2012-04-09T07:24:16.000Z</time>
      </trkpt>
      <trkpt lat="45.87232" lon="6.04731">
        <ele>529</ele>
        <time>2012-04-09T07:24:23.000Z</time>
      </trkpt>
      <trkpt lat="45.87224" lon="6.04743">
        <ele>529</ele>
        <time>2012-04-09T07:24:29.000Z</time>
      </trkpt>
      <trkpt lat="45.87214" lon="6.04752">
        <ele>528.79998779297</ele>
        <time>2012-04-09T07:24:36.000Z</time>
      </trkpt>
      <trkpt lat="45.87192" lon="6.04766">
        <ele>529</ele>
        <time>2012-04-09T07:24:48.000Z</time>
      </trkpt>
      <trkpt lat="45.87174" lon="6.04767">
        <ele>528.40002441406</ele>
        <time>2012-04-09T07:24:56.000Z</time>
      </trkpt>
      <trkpt lat="45.87161" lon="6.04772">
        <ele>528.40002441406</ele>
        <time>2012-04-09T07:25:02.000Z</time>
      </trkpt>
      <trkpt lat="45.87144" lon="6.04782">
        <ele>529.40002441406</ele>
        <time>2012-04-09T07:25:10.000Z</time>
      </trkpt>
      <trkpt lat="45.87125" lon="6.04785">
        <ele>529.79998779297</ele>
        <time>2012-04-09T07:25:18.000Z</time>
      </trkpt>
      <trkpt lat="45.8711" lon="6.04783">
        <ele>530</ele>
        <time>2012-04-09T07:25:26.000Z</time>
      </trkpt>
      <trkpt lat="45.87103" lon="6.04776">
        <ele>529.79998779297</ele>
        <time>2012-04-09T07:25:32.000Z</time>
      </trkpt>
      <trkpt lat="45.87102" lon="6.04775">
        <ele>530</ele>
        <time>2012-04-09T07:25:33.000Z</time>
      </trkpt>
      <trkpt lat="45.87097" lon="6.0477">
        <ele>530</ele>
        <time>2012-04-09T07:25:38.000Z</time>
      </trkpt>
      <trkpt lat="45.87093" lon="6.04766">
        <ele>530</ele>
        <time>2012-04-09T07:25:43.000Z</time>
      </trkpt>
      <trkpt lat="45.87093" lon="6.04768">
        <ele>530</ele>
        <time>2012-04-09T07:25:47.000Z</time>
      </trkpt>
      <trkpt lat="45.87093" lon="6.04768">
        <ele>530</ele>
        <time>2012-04-09T07:26:00.000Z</time>
      </trkpt>
      <trkpt lat="45.87093" lon="6.04769">
        <ele>530</ele>
        <time>2012-04-09T07:26:05.000Z</time>
      </trkpt>
      <trkpt lat="45.87089" lon="6.04765">
        <ele>530</ele>
        <time>2012-04-09T07:26:51.000Z</time>
      </trkpt>
      <trkpt lat="45.87089" lon="6.04764">
        <ele>530</ele>
        <time>2012-04-09T07:26:52.000Z</time>
      </trkpt>
      <trkpt lat="45.87089" lon="6.04764">
        <ele>530</ele>
        <time>2012-04-09T07:26:59.000Z</time>
      </trkpt>
      <trkpt lat="45.8709" lon="6.04766">
        <ele>530</ele>
        <time>2012-04-09T07:27:04.000Z</time>
      </trkpt>
      <trkpt lat="45.87089" lon="6.04766">
        <ele>530</ele>
        <time>2012-04-09T07:27:11.000Z</time>
      </trkpt>
      <trkpt lat="45.87082" lon="6.04759">
        <ele>530.20001220703</ele>
        <time>2012-04-09T07:27:16.000Z</time>
      </trkpt>
      <trkpt lat="45.87081" lon="6.04758">
        <ele>530.20001220703</ele>
        <time>2012-04-09T07:27:17.000Z</time>
      </trkpt>
      <trkpt lat="45.8707" lon="6.04766">
        <ele>530.40002441406</ele>
        <time>2012-04-09T07:27:22.000Z</time>
      </trkpt>
      <trkpt lat="45.87066" lon="6.04773">
        <ele>530.59997558594</ele>
        <time>2012-04-09T07:27:24.000Z</time>
      </trkpt>
      <trkpt lat="45.87056" lon="6.04794">
        <ele>531</ele>
        <time>2012-04-09T07:27:31.000Z</time>
      </trkpt>
      <trkpt lat="45.87054" lon="6.04796">
        <ele>531</ele>
        <time>2012-04-09T07:27:32.000Z</time>
      </trkpt>
      <trkpt lat="45.87039" lon="6.04805">
        <ele>531.40002441406</ele>
        <time>2012-04-09T07:27:39.000Z</time>
      </trkpt>
      <trkpt lat="45.87019" lon="6.04814">
        <ele>531.79998779297</ele>
        <time>2012-04-09T07:27:47.000Z</time>
      </trkpt>
      <trkpt lat="45.87002" lon="6.04825">
        <ele>532</ele>
        <time>2012-04-09T07:27:54.000Z</time>
      </trkpt>
      <trkpt lat="45.86985" lon="6.04836">
        <ele>532.59997558594</ele>
        <time>2012-04-09T07:28:01.000Z</time>
      </trkpt>
      <trkpt lat="45.86967" lon="6.04851">
        <ele>533.59997558594</ele>
        <time>2012-04-09T07:28:09.000Z</time>
      </trkpt>
      <trkpt lat="45.86952" lon="6.04865">
        <ele>534.20001220703</ele>
        <time>2012-04-09T07:28:16.000Z</time>
      </trkpt>
      <trkpt lat="45.86936" lon="6.04881">
        <ele>535</ele>
        <time>2012-04-09T07:28:24.000Z</time>
      </trkpt>
      <trkpt lat="45.86923" lon="6.04895">
        <ele>535.59997558594</ele>
        <time>2012-04-09T07:28:31.000Z</time>
      </trkpt>
      <trkpt lat="45.86907" lon="6.0491">
        <ele>536.40002441406</ele>
        <time>2012-04-09T07:28:39.000Z</time>
      </trkpt>
      <trkpt lat="45.86892" lon="6.04926">
        <ele>537.59997558594</ele>
        <time>2012-04-09T07:28:47.000Z</time>
      </trkpt>
      <trkpt lat="45.86879" lon="6.04941">
        <ele>538.79998779297</ele>
        <time>2012-04-09T07:28:54.000Z</time>
      </trkpt>
      <trkpt lat="45.86866" lon="6.04959">
        <ele>539.79998779297</ele>
        <time>2012-04-09T07:29:01.000Z</time>
      </trkpt>
      <trkpt lat="45.86856" lon="6.04977">
        <ele>540.40002441406</ele>
        <time>2012-04-09T07:29:07.000Z</time>
      </trkpt>
      <trkpt lat="45.86844" lon="6.04998">
        <ele>541</ele>
        <time>2012-04-09T07:29:15.000Z</time>
      </trkpt>
      <trkpt lat="45.86835" lon="6.0501">
        <ele>541</ele>
        <time>2012-04-09T07:29:22.000Z</time>
      </trkpt>
      <trkpt lat="45.8682" lon="6.05009">
        <ele>541.40002441406</ele>
        <time>2012-04-09T07:29:28.000Z</time>
      </trkpt>
      <trkpt lat="45.86815" lon="6.05004">
        <ele>541.59997558594</ele>
        <time>2012-04-09T07:29:33.000Z</time>
      </trkpt>
      <trkpt lat="45.86815" lon="6.05004">
        <ele>541.59997558594</ele>
        <time>2012-04-09T07:29:39.000Z</time>
      </trkpt>
      <trkpt lat="45.86809" lon="6.05002">
        <ele>541.79998779297</ele>
        <time>2012-04-09T07:30:01.000Z</time>
      </trkpt>
      <trkpt lat="45.86809" lon="6.05001">
        <ele>541.79998779297</ele>
        <time>2012-04-09T07:30:06.000Z</time>
      </trkpt>
      <trkpt lat="45.86802" lon="6.04998">
        <ele>542.20001220703</ele>
        <time>2012-04-09T07:30:22.000Z</time>
      </trkpt>
      <trkpt lat="45.86784" lon="6.04994">
        <ele>542.79998779297</ele>
        <time>2012-04-09T07:30:30.000Z</time>
      </trkpt>
      <trkpt lat="45.86764" lon="6.04992">
        <ele>543.59997558594</ele>
        <time>2012-04-09T07:30:39.000Z</time>
      </trkpt>
      <trkpt lat="45.8675" lon="6.04992">
        <ele>544.20001220703</ele>
        <time>2012-04-09T07:30:45.000Z</time>
      </trkpt>
      <trkpt lat="45.86732" lon="6.04992">
        <ele>546.40002441406</ele>
        <time>2012-04-09T07:30:53.000Z</time>
      </trkpt>
      <trkpt lat="45.86714" lon="6.0499">
        <ele>548.59997558594</ele>
        <time>2012-04-09T07:31:01.000Z</time>
      </trkpt>
      <trkpt lat="45.86699" lon="6.04986">
        <ele>550.40002441406</ele>
        <time>2012-04-09T07:31:08.000Z</time>
      </trkpt>
      <trkpt lat="45.86688" lon="6.04982">
        <ele>551.59997558594</ele>
        <time>2012-04-09T07:31:13.000Z</time>
      </trkpt>
      <trkpt lat="45.86669" lon="6.04974">
        <ele>554</ele>
        <time>2012-04-09T07:31:22.000Z</time>
      </trkpt>
      <trkpt lat="45.86652" lon="6.04969">
        <ele>554.79998779297</ele>
        <time>2012-04-09T07:31:31.000Z</time>
      </trkpt>
      <trkpt lat="45.86637" lon="6.04969">
        <ele>555.40002441406</ele>
        <time>2012-04-09T07:31:39.000Z</time>
      </trkpt>
      <trkpt lat="45.86625" lon="6.04967">
        <ele>555.79998779297</ele>
        <time>2012-04-09T07:31:46.000Z</time>
      </trkpt>
      <trkpt lat="45.86609" lon="6.04964">
        <ele>556.40002441406</ele>
        <time>2012-04-09T07:31:55.000Z</time>
      </trkpt>
      <trkpt lat="45.86596" lon="6.0496">
        <ele>557</ele>
        <time>2012-04-09T07:32:02.000Z</time>
      </trkpt>
      <trkpt lat="45.86581" lon="6.04948">
        <ele>558</ele>
        <time>2012-04-09T07:32:11.000Z</time>
      </trkpt>
      <trkpt lat="45.86568" lon="6.04936">
        <ele>559.59997558594</ele>
        <time>2012-04-09T07:32:19.000Z</time>
      </trkpt>
      <trkpt lat="45.86558" lon="6.04923">
        <ele>561</ele>
        <time>2012-04-09T07:32:26.000Z</time>
      </trkpt>
      <trkpt lat="45.86547" lon="6.04909">
        <ele>563.20001220703</ele>
        <time>2012-04-09T07:32:34.000Z</time>
      </trkpt>
      <trkpt lat="45.86534" lon="6.04893">
        <ele>565.79998779297</ele>
        <time>2012-04-09T07:32:43.000Z</time>
      </trkpt>
      <trkpt lat="45.86524" lon="6.04882">
        <ele>568.20001220703</ele>
        <time>2012-04-09T07:32:50.000Z</time>
      </trkpt>
      <trkpt lat="45.86514" lon="6.0487">
        <ele>570.59997558594</ele>
        <time>2012-04-09T07:32:57.000Z</time>
      </trkpt>
      <trkpt lat="45.86508" lon="6.04861">
        <ele>572.59997558594</ele>
        <time>2012-04-09T07:33:03.000Z</time>
      </trkpt>
      <trkpt lat="45.86501" lon="6.04852">
        <ele>574.59997558594</ele>
        <time>2012-04-09T07:33:10.000Z</time>
      </trkpt>
      <trkpt lat="45.86493" lon="6.04847">
        <ele>576</ele>
        <time>2012-04-09T07:33:16.000Z</time>
      </trkpt>
      <trkpt lat="45.86485" lon="6.04839">
        <ele>577.79998779297</ele>
        <time>2012-04-09T07:33:23.000Z</time>
      </trkpt>
      <trkpt lat="45.86477" lon="6.04834">
        <ele>579.20001220703</ele>
        <time>2012-04-09T07:33:29.000Z</time>
      </trkpt>
      <trkpt lat="45.86466" lon="6.04834">
        <ele>580.20001220703</ele>
        <time>2012-04-09T07:33:36.000Z</time>
      </trkpt>
      <trkpt lat="45.86456" lon="6.04832">
        <ele>581.20001220703</ele>
        <time>2012-04-09T07:33:42.000Z</time>
      </trkpt>
      <trkpt lat="45.86448" lon="6.0483">
        <ele>582</ele>
        <time>2012-04-09T07:33:47.000Z</time>
      </trkpt>
      <trkpt lat="45.86447" lon="6.0483">
        <ele>582.20001220703</ele>
        <time>2012-04-09T07:33:53.000Z</time>
      </trkpt>
      <trkpt lat="45.86442" lon="6.04832">
        <ele>582.59997558594</ele>
        <time>2012-04-09T07:34:17.000Z</time>
      </trkpt>
      <trkpt lat="45.86438" lon="6.04834">
        <ele>582.79998779297</ele>
        <time>2012-04-09T07:34:44.000Z</time>
      </trkpt>
      <trkpt lat="45.86436" lon="6.04843">
        <ele>581.79998779297</ele>
        <time>2012-04-09T07:34:49.000Z</time>
      </trkpt>
      <trkpt lat="45.86433" lon="6.04854">
        <ele>580.59997558594</ele>
        <time>2012-04-09T07:34:55.000Z</time>
      </trkpt>
      <trkpt lat="45.86429" lon="6.04866">
        <ele>579.20001220703</ele>
        <time>2012-04-09T07:35:00.000Z</time>
      </trkpt>
      <trkpt lat="45.8642" lon="6.04884">
        <ele>577.40002441406</ele>
        <time>2012-04-09T07:35:05.000Z</time>
      </trkpt>
      <trkpt lat="45.86407" lon="6.04904">
        <ele>575.79998779297</ele>
        <time>2012-04-09T07:35:10.000Z</time>
      </trkpt>
      <trkpt lat="45.86395" lon="6.04923">
        <ele>575</ele>
        <time>2012-04-09T07:35:15.000Z</time>
      </trkpt>
      <trkpt lat="45.86381" lon="6.04945">
        <ele>575.59997558594</ele>
        <time>2012-04-09T07:35:20.000Z</time>
      </trkpt>
      <trkpt lat="45.86368" lon="6.04966">
        <ele>576.20001220703</ele>
        <time>2012-04-09T07:35:24.000Z</time>
      </trkpt>
      <trkpt lat="45.86363" lon="6.04975">
        <ele>576.59997558594</ele>
        <time>2012-04-09T07:35:26.000Z</time>
      </trkpt>
      <trkpt lat="45.86358" lon="6.04985">
        <ele>577</ele>
        <time>2012-04-09T07:35:28.000Z</time>
      </trkpt>
      <trkpt lat="45.86353" lon="6.05012">
        <ele>576.20001220703</ele>
        <time>2012-04-09T07:35:33.000Z</time>
      </trkpt>
      <trkpt lat="45.86357" lon="6.05029">
        <ele>574.40002441406</ele>
        <time>2012-04-09T07:35:35.000Z</time>
      </trkpt>
      <trkpt lat="45.8636" lon="6.05043">
        <ele>573</ele>
        <time>2012-04-09T07:35:37.000Z</time>
      </trkpt>
      <trkpt lat="45.86365" lon="6.05062">
        <ele>571.20001220703</ele>
        <time>2012-04-09T07:35:40.000Z</time>
      </trkpt>
      <trkpt lat="45.86377" lon="6.05094">
        <ele>568.40002441406</ele>
        <time>2012-04-09T07:35:45.000Z</time>
      </trkpt>
      <trkpt lat="45.86379" lon="6.05099">
        <ele>568</ele>
        <time>2012-04-09T07:35:46.000Z</time>
      </trkpt>
      <trkpt lat="45.86395" lon="6.05114">
        <ele>566.40002441406</ele>
        <time>2012-04-09T07:35:51.000Z</time>
      </trkpt>
      <trkpt lat="45.86399" lon="6.05116">
        <ele>566</ele>
        <time>2012-04-09T07:35:52.000Z</time>
      </trkpt>
      <trkpt lat="45.86418" lon="6.05118">
        <ele>565.20001220703</ele>
        <time>2012-04-09T07:35:56.000Z</time>
      </trkpt>
      <trkpt lat="45.86438" lon="6.05119">
        <ele>564.79998779297</ele>
        <time>2012-04-09T07:36:00.000Z</time>
      </trkpt>
      <trkpt lat="45.86443" lon="6.05119">
        <ele>564.59997558594</ele>
        <time>2012-04-09T07:36:01.000Z</time>
      </trkpt>
      <trkpt lat="45.86462" lon="6.05133">
        <ele>564.20001220703</ele>
        <time>2012-04-09T07:36:06.000Z</time>
      </trkpt>
      <trkpt lat="45.86467" lon="6.05144">
        <ele>564</ele>
        <time>2012-04-09T07:36:08.000Z</time>
      </trkpt>
      <trkpt lat="45.86473" lon="6.05163">
        <ele>564</ele>
        <time>2012-04-09T07:36:11.000Z</time>
      </trkpt>
      <trkpt lat="45.86479" lon="6.05181">
        <ele>563.59997558594</ele>
        <time>2012-04-09T07:36:14.000Z</time>
      </trkpt>
      <trkpt lat="45.86492" lon="6.05211">
        <ele>562.79998779297</ele>
        <time>2012-04-09T07:36:19.000Z</time>
      </trkpt>
      <trkpt lat="45.86495" lon="6.05216">
        <ele>562.79998779297</ele>
        <time>2012-04-09T07:36:20.000Z</time>
      </trkpt>
      <trkpt lat="45.86501" lon="6.05231">
        <ele>562.40002441406</ele>
        <time>2012-04-09T07:36:24.000Z</time>
      </trkpt>
      <trkpt lat="45.86506" lon="6.05239">
        <ele>561.79998779297</ele>
        <time>2012-04-09T07:36:28.000Z</time>
      </trkpt>
      <trkpt lat="45.86507" lon="6.05247">
        <ele>561.59997558594</ele>
        <time>2012-04-09T07:36:32.000Z</time>
      </trkpt>
      <trkpt lat="45.86511" lon="6.05258">
        <ele>561.20001220703</ele>
        <time>2012-04-09T07:36:40.000Z</time>
      </trkpt>
      <trkpt lat="45.86511" lon="6.05259">
        <ele>561</ele>
        <time>2012-04-09T07:36:49.000Z</time>
      </trkpt>
      <trkpt lat="45.86512" lon="6.05262">
        <ele>561</ele>
        <time>2012-04-09T07:37:01.000Z</time>
      </trkpt>
      <trkpt lat="45.8651" lon="6.05255">
        <ele>561.20001220703</ele>
        <time>2012-04-09T07:37:05.000Z</time>
      </trkpt>
      <trkpt lat="45.86505" lon="6.05242">
        <ele>561.79998779297</ele>
        <time>2012-04-09T07:37:10.000Z</time>
      </trkpt>
      <trkpt lat="45.86504" lon="6.05239">
        <ele>562</ele>
        <time>2012-04-09T07:37:14.000Z</time>
      </trkpt>
      <trkpt lat="45.86504" lon="6.0524">
        <ele>562</ele>
        <time>2012-04-09T07:37:22.000Z</time>
      </trkpt>
      <trkpt lat="45.86506" lon="6.05245">
        <ele>561.79998779297</ele>
        <time>2012-04-09T07:37:43.000Z</time>
      </trkpt>
      <trkpt lat="45.86506" lon="6.05247">
        <ele>561.79998779297</ele>
        <time>2012-04-09T07:37:52.000Z</time>
      </trkpt>
      <trkpt lat="45.86509" lon="6.05256">
        <ele>561.20001220703</ele>
        <time>2012-04-09T07:38:05.000Z</time>
      </trkpt>
      <trkpt lat="45.86518" lon="6.05281">
        <ele>560.20001220703</ele>
        <time>2012-04-09T07:38:12.000Z</time>
      </trkpt>
      <trkpt lat="45.86529" lon="6.05302">
        <ele>559.40002441406</ele>
        <time>2012-04-09T07:38:19.000Z</time>
      </trkpt>
      <trkpt lat="45.86542" lon="6.05325">
        <ele>559</ele>
        <time>2012-04-09T07:38:26.000Z</time>
      </trkpt>
      <trkpt lat="45.86554" lon="6.05343">
        <ele>559</ele>
        <time>2012-04-09T07:38:31.000Z</time>
      </trkpt>
      <trkpt lat="45.86567" lon="6.05363">
        <ele>558.79998779297</ele>
        <time>2012-04-09T07:38:36.000Z</time>
      </trkpt>
      <trkpt lat="45.86578" lon="6.0538">
        <ele>559</ele>
        <time>2012-04-09T07:38:42.000Z</time>
      </trkpt>
      <trkpt lat="45.86591" lon="6.05397">
        <ele>558.59997558594</ele>
        <time>2012-04-09T07:38:47.000Z</time>
      </trkpt>
      <trkpt lat="45.86605" lon="6.05417">
        <ele>558</ele>
        <time>2012-04-09T07:38:53.000Z</time>
      </trkpt>
      <trkpt lat="45.86614" lon="6.05429">
        <ele>557</ele>
        <time>2012-04-09T07:38:57.000Z</time>
      </trkpt>
      <trkpt lat="45.86625" lon="6.05446">
        <ele>556</ele>
        <time>2012-04-09T07:39:01.000Z</time>
      </trkpt>
      <trkpt lat="45.8664" lon="6.05466">
        <ele>554.79998779297</ele>
        <time>2012-04-09T07:39:05.000Z</time>
      </trkpt>
      <trkpt lat="45.86652" lon="6.05478">
        <ele>554</ele>
        <time>2012-04-09T07:39:08.000Z</time>
      </trkpt>
      <trkpt lat="45.86671" lon="6.05481">
        <ele>553.20001220703</ele>
        <time>2012-04-09T07:39:12.000Z</time>
      </trkpt>
      <trkpt lat="45.86677" lon="6.05481">
        <ele>553</ele>
        <time>2012-04-09T07:39:13.000Z</time>
      </trkpt>
      <trkpt lat="45.86696" lon="6.05484">
        <ele>552.20001220703</ele>
        <time>2012-04-09T07:39:17.000Z</time>
      </trkpt>
      <trkpt lat="45.86701" lon="6.05495">
        <ele>552.20001220703</ele>
        <time>2012-04-09T07:39:19.000Z</time>
      </trkpt>
      <trkpt lat="45.8671" lon="6.0553">
        <ele>550.20001220703</ele>
        <time>2012-04-09T07:39:25.000Z</time>
      </trkpt>
      <trkpt lat="45.86712" lon="6.05534">
        <ele>550</ele>
        <time>2012-04-09T07:39:26.000Z</time>
      </trkpt>
      <trkpt lat="45.86714" lon="6.05543">
        <ele>549.59997558594</ele>
        <time>2012-04-09T07:39:28.000Z</time>
      </trkpt>
      <trkpt lat="45.86721" lon="6.0556">
        <ele>549.20001220703</ele>
        <time>2012-04-09T07:39:34.000Z</time>
      </trkpt>
      <trkpt lat="45.86725" lon="6.05567">
        <ele>549.20001220703</ele>
        <time>2012-04-09T07:39:38.000Z</time>
      </trkpt>
      <trkpt lat="45.86727" lon="6.05566">
        <ele>549.40002441406</ele>
        <time>2012-04-09T07:39:40.000Z</time>
      </trkpt>
      <trkpt lat="45.86738" lon="6.05559">
        <ele>550.20001220703</ele>
        <time>2012-04-09T07:39:47.000Z</time>
      </trkpt>
      <trkpt lat="45.86742" lon="6.05557">
        <ele>550.59997558594</ele>
        <time>2012-04-09T07:39:49.000Z</time>
      </trkpt>
      <trkpt lat="45.8675" lon="6.05547">
        <ele>551</ele>
        <time>2012-04-09T07:39:55.000Z</time>
      </trkpt>
      <trkpt lat="45.86751" lon="6.05545">
        <ele>551</ele>
        <time>2012-04-09T07:39:59.000Z</time>
      </trkpt>
      <trkpt lat="45.86753" lon="6.05541">
        <ele>551.20001220703</ele>
        <time>2012-04-09T07:40:04.000Z</time>
      </trkpt>
      <trkpt lat="45.86754" lon="6.05541">
        <ele>551.20001220703</ele>
        <time>2012-04-09T07:40:05.000Z</time>
      </trkpt>
      <trkpt lat="45.86758" lon="6.05536">
        <ele>551.40002441406</ele>
        <time>2012-04-09T07:40:12.000Z</time>
      </trkpt>
      <trkpt lat="45.86762" lon="6.05536">
        <ele>551.59997558594</ele>
        <time>2012-04-09T07:40:37.000Z</time>
      </trkpt>
      <trkpt lat="45.86768" lon="6.0553">
        <ele>552</ele>
        <time>2012-04-09T07:40:58.000Z</time>
      </trkpt>
      <trkpt lat="45.86774" lon="6.05521">
        <ele>552.40002441406</ele>
        <time>2012-04-09T07:41:03.000Z</time>
      </trkpt>
      <trkpt lat="45.86776" lon="6.0552">
        <ele>552.40002441406</ele>
        <time>2012-04-09T07:41:04.000Z</time>
      </trkpt>
      <trkpt lat="45.86783" lon="6.05517">
        <ele>552.79998779297</ele>
        <time>2012-04-09T07:41:09.000Z</time>
      </trkpt>
      <trkpt lat="45.86785" lon="6.05516">
        <ele>553</ele>
        <time>2012-04-09T07:41:10.000Z</time>
      </trkpt>
      <trkpt lat="45.86793" lon="6.05514">
        <ele>553.40002441406</ele>
        <time>2012-04-09T07:41:15.000Z</time>
      </trkpt>
      <trkpt lat="45.86801" lon="6.05508">
        <ele>554</ele>
        <time>2012-04-09T07:41:21.000Z</time>
      </trkpt>
      <trkpt lat="45.86803" lon="6.05505">
        <ele>554.20001220703</ele>
        <time>2012-04-09T07:41:23.000Z</time>
      </trkpt>
      <trkpt lat="45.86813" lon="6.055">
        <ele>554.79998779297</ele>
        <time>2012-04-09T07:41:39.000Z</time>
      </trkpt>
      <trkpt lat="45.86826" lon="6.05496">
        <ele>555</ele>
        <time>2012-04-09T07:41:44.000Z</time>
      </trkpt>
      <trkpt lat="45.86837" lon="6.05501">
        <ele>555.40002441406</ele>
        <time>2012-04-09T07:41:49.000Z</time>
      </trkpt>
      <trkpt lat="45.86839" lon="6.05504">
        <ele>555</ele>
        <time>2012-04-09T07:41:51.000Z</time>
      </trkpt>
      <trkpt lat="45.8685" lon="6.05506">
        <ele>553.59997558594</ele>
        <time>2012-04-09T07:42:37.000Z</time>
      </trkpt>
      <trkpt lat="45.86852" lon="6.05509">
        <ele>553.20001220703</ele>
        <time>2012-04-09T07:42:44.000Z</time>
      </trkpt>
      <trkpt lat="45.86853" lon="6.05512">
        <ele>553</ele>
        <time>2012-04-09T07:43:08.000Z</time>
      </trkpt>
      <trkpt lat="45.86858" lon="6.05522">
        <ele>552.20001220703</ele>
        <time>2012-04-09T07:43:16.000Z</time>
      </trkpt>
      <trkpt lat="45.86868" lon="6.05538">
        <ele>550.59997558594</ele>
        <time>2012-04-09T07:43:19.000Z</time>
      </trkpt>
      <trkpt lat="45.86881" lon="6.05564">
        <ele>548.40002441406</ele>
        <time>2012-04-09T07:43:23.000Z</time>
      </trkpt>
      <trkpt lat="45.86888" lon="6.05575">
        <ele>547.20001220703</ele>
        <time>2012-04-09T07:43:25.000Z</time>
      </trkpt>
      <trkpt lat="45.86892" lon="6.05585">
        <ele>546.40002441406</ele>
        <time>2012-04-09T07:43:31.000Z</time>
      </trkpt>
      <trkpt lat="45.86895" lon="6.05588">
        <ele>545.79998779297</ele>
        <time>2012-04-09T07:43:37.000Z</time>
      </trkpt>
      <trkpt lat="45.86896" lon="6.05589">
        <ele>545.40002441406</ele>
        <time>2012-04-09T07:43:38.000Z</time>
      </trkpt>
      <trkpt lat="45.86905" lon="6.05601">
        <ele>543.40002441406</ele>
        <time>2012-04-09T07:43:42.000Z</time>
      </trkpt>
      <trkpt lat="45.86908" lon="6.05606">
        <ele>542.59997558594</ele>
        <time>2012-04-09T07:43:44.000Z</time>
      </trkpt>
      <trkpt lat="45.86912" lon="6.05608">
        <ele>542.20001220703</ele>
        <time>2012-04-09T07:43:46.000Z</time>
      </trkpt>
      <trkpt lat="45.86918" lon="6.05613">
        <ele>541.20001220703</ele>
        <time>2012-04-09T07:43:49.000Z</time>
      </trkpt>
      <trkpt lat="45.86927" lon="6.05617">
        <ele>540.79998779297</ele>
        <time>2012-04-09T07:43:52.000Z</time>
      </trkpt>
      <trkpt lat="45.8693" lon="6.05619">
        <ele>540.59997558594</ele>
        <time>2012-04-09T07:43:53.000Z</time>
      </trkpt>
      <trkpt lat="45.86941" lon="6.05628">
        <ele>540</ele>
        <time>2012-04-09T07:43:59.000Z</time>
      </trkpt>
      <trkpt lat="45.86942" lon="6.05629">
        <ele>539.79998779297</ele>
        <time>2012-04-09T07:44:00.000Z</time>
      </trkpt>
      <trkpt lat="45.86948" lon="6.05634">
        <ele>539.59997558594</ele>
        <time>2012-04-09T07:44:06.000Z</time>
      </trkpt>
      <trkpt lat="45.86951" lon="6.05634">
        <ele>539.59997558594</ele>
        <time>2012-04-09T07:44:10.000Z</time>
      </trkpt>
      <trkpt lat="45.86958" lon="6.0563">
        <ele>539.59997558594</ele>
        <time>2012-04-09T07:44:46.000Z</time>
      </trkpt>
      <trkpt lat="45.86966" lon="6.05617">
        <ele>539.59997558594</ele>
        <time>2012-04-09T07:44:52.000Z</time>
      </trkpt>
      <trkpt lat="45.86967" lon="6.05616">
        <ele>539.59997558594</ele>
        <time>2012-04-09T07:44:53.000Z</time>
      </trkpt>
      <trkpt lat="45.86967" lon="6.05615">
        <ele>539.59997558594</ele>
        <time>2012-04-09T07:44:54.000Z</time>
      </trkpt>
      <trkpt lat="45.86968" lon="6.05614">
        <ele>539.59997558594</ele>
        <time>2012-04-09T07:44:55.000Z</time>
      </trkpt>
      <trkpt lat="45.86975" lon="6.05605">
        <ele>539.40002441406</ele>
        <time>2012-04-09T07:45:01.000Z</time>
      </trkpt>
      <trkpt lat="45.86978" lon="6.05601">
        <ele>539.40002441406</ele>
        <time>2012-04-09T07:45:02.000Z</time>
      </trkpt>
      <trkpt lat="45.86991" lon="6.0559">
        <ele>538.59997558594</ele>
        <time>2012-04-09T07:45:05.000Z</time>
      </trkpt>
      <trkpt lat="45.87008" lon="6.0558">
        <ele>537.59997558594</ele>
        <time>2012-04-09T07:45:08.000Z</time>
      </trkpt>
      <trkpt lat="45.87011" lon="6.0558">
        <ele>537.40002441406</ele>
        <time>2012-04-09T07:45:09.000Z</time>
      </trkpt>
      <trkpt lat="45.87017" lon="6.05577">
        <ele>537.20001220703</ele>
        <time>2012-04-09T07:45:13.000Z</time>
      </trkpt>
      <trkpt lat="45.87025" lon="6.05569">
        <ele>536.59997558594</ele>
        <time>2012-04-09T07:45:16.000Z</time>
      </trkpt>
      <trkpt lat="45.87038" lon="6.05573">
        <ele>536.40002441406</ele>
        <time>2012-04-09T07:45:21.000Z</time>
      </trkpt>
      <trkpt lat="45.87049" lon="6.05584">
        <ele>536.20001220703</ele>
        <time>2012-04-09T07:45:26.000Z</time>
      </trkpt>
      <trkpt lat="45.87067" lon="6.056">
        <ele>536.40002441406</ele>
        <time>2012-04-09T07:45:33.000Z</time>
      </trkpt>
      <trkpt lat="45.87077" lon="6.05614">
        <ele>537</ele>
        <time>2012-04-09T07:45:38.000Z</time>
      </trkpt>
      <trkpt lat="45.87081" lon="6.05647">
        <ele>538.79998779297</ele>
        <time>2012-04-09T07:45:45.000Z</time>
      </trkpt>
      <trkpt lat="45.87081" lon="6.05651">
        <ele>539</ele>
        <time>2012-04-09T07:45:46.000Z</time>
      </trkpt>
      <trkpt lat="45.87079" lon="6.05654">
        <ele>539.20001220703</ele>
        <time>2012-04-09T07:45:47.000Z</time>
      </trkpt>
      <trkpt lat="45.87075" lon="6.05665">
        <ele>540</ele>
        <time>2012-04-09T07:45:51.000Z</time>
      </trkpt>
      <trkpt lat="45.87075" lon="6.05668">
        <ele>539.79998779297</ele>
        <time>2012-04-09T07:45:52.000Z</time>
      </trkpt>
      <trkpt lat="45.87082" lon="6.05685">
        <ele>538.40002441406</ele>
        <time>2012-04-09T07:45:57.000Z</time>
      </trkpt>
      <trkpt lat="45.87086" lon="6.057">
        <ele>537.20001220703</ele>
        <time>2012-04-09T07:46:02.000Z</time>
      </trkpt>
      <trkpt lat="45.87093" lon="6.05713">
        <ele>536.20001220703</ele>
        <time>2012-04-09T07:46:06.000Z</time>
      </trkpt>
      <trkpt lat="45.87095" lon="6.05717">
        <ele>535.79998779297</ele>
        <time>2012-04-09T07:46:07.000Z</time>
      </trkpt>
      <trkpt lat="45.87109" lon="6.05733">
        <ele>534.79998779297</ele>
        <time>2012-04-09T07:46:13.000Z</time>
      </trkpt>
      <trkpt lat="45.87124" lon="6.05747">
        <ele>534.20001220703</ele>
        <time>2012-04-09T07:46:19.000Z</time>
      </trkpt>
      <trkpt lat="45.87142" lon="6.05756">
        <ele>534</ele>
        <time>2012-04-09T07:46:24.000Z</time>
      </trkpt>
      <trkpt lat="45.87163" lon="6.0577">
        <ele>533.40002441406</ele>
        <time>2012-04-09T07:46:29.000Z</time>
      </trkpt>
      <trkpt lat="45.87178" lon="6.05782">
        <ele>533</ele>
        <time>2012-04-09T07:46:32.000Z</time>
      </trkpt>
      <trkpt lat="45.87196" lon="6.05798">
        <ele>532.40002441406</ele>
        <time>2012-04-09T07:46:36.000Z</time>
      </trkpt>
      <trkpt lat="45.87204" lon="6.05807">
        <ele>532.20001220703</ele>
        <time>2012-04-09T07:46:38.000Z</time>
      </trkpt>
      <trkpt lat="45.87216" lon="6.0582">
        <ele>531.59997558594</ele>
        <time>2012-04-09T07:46:40.000Z</time>
      </trkpt>
      <trkpt lat="45.87237" lon="6.05842">
        <ele>531.59997558594</ele>
        <time>2012-04-09T07:46:45.000Z</time>
      </trkpt>
      <trkpt lat="45.87244" lon="6.05851">
        <ele>532</ele>
        <time>2012-04-09T07:46:48.000Z</time>
      </trkpt>
      <trkpt lat="45.87247" lon="6.05864">
        <ele>532.20001220703</ele>
        <time>2012-04-09T07:46:53.000Z</time>
      </trkpt>
      <trkpt lat="45.87248" lon="6.05866">
        <ele>532.40002441406</ele>
        <time>2012-04-09T07:46:55.000Z</time>
      </trkpt>
      <trkpt lat="45.87247" lon="6.05883">
        <ele>532.40002441406</ele>
        <time>2012-04-09T07:47:01.000Z</time>
      </trkpt>
      <trkpt lat="45.87247" lon="6.05889">
        <ele>532.59997558594</ele>
        <time>2012-04-09T07:47:03.000Z</time>
      </trkpt>
      <trkpt lat="45.87247" lon="6.05892">
        <ele>532.59997558594</ele>
        <time>2012-04-09T07:47:05.000Z</time>
      </trkpt>
      <trkpt lat="45.87252" lon="6.05903">
        <ele>532.59997558594</ele>
        <time>2012-04-09T07:47:11.000Z</time>
      </trkpt>
      <trkpt lat="45.87263" lon="6.0591">
        <ele>531.59997558594</ele>
        <time>2012-04-09T07:47:16.000Z</time>
      </trkpt>
      <trkpt lat="45.87265" lon="6.0591">
        <ele>531.40002441406</ele>
        <time>2012-04-09T07:47:17.000Z</time>
      </trkpt>
      <trkpt lat="45.87277" lon="6.05915">
        <ele>530.40002441406</ele>
        <time>2012-04-09T07:47:22.000Z</time>
      </trkpt>
      <trkpt lat="45.87285" lon="6.05919">
        <ele>530</ele>
        <time>2012-04-09T07:47:26.000Z</time>
      </trkpt>
      <trkpt lat="45.87296" lon="6.05925">
        <ele>530</ele>
        <time>2012-04-09T07:47:31.000Z</time>
      </trkpt>
      <trkpt lat="45.87309" lon="6.05934">
        <ele>530.59997558594</ele>
        <time>2012-04-09T07:47:36.000Z</time>
      </trkpt>
      <trkpt lat="45.87324" lon="6.05944">
        <ele>531.59997558594</ele>
        <time>2012-04-09T07:47:42.000Z</time>
      </trkpt>
      <trkpt lat="45.87335" lon="6.05948">
        <ele>531.79998779297</ele>
        <time>2012-04-09T07:47:46.000Z</time>
      </trkpt>
      <trkpt lat="45.87338" lon="6.05949">
        <ele>531.79998779297</ele>
        <time>2012-04-09T07:47:47.000Z</time>
      </trkpt>
      <trkpt lat="45.87353" lon="6.05956">
        <ele>531.79998779297</ele>
        <time>2012-04-09T07:47:52.000Z</time>
      </trkpt>
      <trkpt lat="45.87367" lon="6.05958">
        <ele>531.20001220703</ele>
        <time>2012-04-09T07:47:56.000Z</time>
      </trkpt>
      <trkpt lat="45.8737" lon="6.05958">
        <ele>531.20001220703</ele>
        <time>2012-04-09T07:47:57.000Z</time>
      </trkpt>
      <trkpt lat="45.87382" lon="6.05968">
        <ele>532</ele>
        <time>2012-04-09T07:48:02.000Z</time>
      </trkpt>
      <trkpt lat="45.8739" lon="6.05974">
        <ele>532.40002441406</ele>
        <time>2012-04-09T07:48:05.000Z</time>
      </trkpt>
      <trkpt lat="45.87393" lon="6.05979">
        <ele>532.79998779297</ele>
        <time>2012-04-09T07:48:10.000Z</time>
      </trkpt>
      <trkpt lat="45.87394" lon="6.05981">
        <ele>533</ele>
        <time>2012-04-09T07:48:22.000Z</time>
      </trkpt>
      <trkpt lat="45.87399" lon="6.05979">
        <ele>532.40002441406</ele>
        <time>2012-04-09T07:48:34.000Z</time>
      </trkpt>
      <trkpt lat="45.87403" lon="6.0598">
        <ele>532.20001220703</ele>
        <time>2012-04-09T07:48:37.000Z</time>
      </trkpt>
      <trkpt lat="45.87413" lon="6.05986">
        <ele>532.20001220703</ele>
        <time>2012-04-09T07:48:41.000Z</time>
      </trkpt>
      <trkpt lat="45.87416" lon="6.05988">
        <ele>532.20001220703</ele>
        <time>2012-04-09T07:48:42.000Z</time>
      </trkpt>
      <trkpt lat="45.87435" lon="6.05998">
        <ele>531.40002441406</ele>
        <time>2012-04-09T07:48:47.000Z</time>
      </trkpt>
      <trkpt lat="45.87443" lon="6.06006">
        <ele>530.59997558594</ele>
        <time>2012-04-09T07:48:50.000Z</time>
      </trkpt>
      <trkpt lat="45.87446" lon="6.06009">
        <ele>530.40002441406</ele>
        <time>2012-04-09T07:48:51.000Z</time>
      </trkpt>
      <trkpt lat="45.87456" lon="6.06018">
        <ele>529.40002441406</ele>
        <time>2012-04-09T07:48:55.000Z</time>
      </trkpt>
      <trkpt lat="45.87459" lon="6.06021">
        <ele>529.20001220703</ele>
        <time>2012-04-09T07:48:56.000Z</time>
      </trkpt>
      <trkpt lat="45.87476" lon="6.06039">
        <ele>527.79998779297</ele>
        <time>2012-04-09T07:49:03.000Z</time>
      </trkpt>
      <trkpt lat="45.87493" lon="6.06054">
        <ele>526.40002441406</ele>
        <time>2012-04-09T07:49:09.000Z</time>
      </trkpt>
      <trkpt lat="45.8751" lon="6.06067">
        <ele>526.40002441406</ele>
        <time>2012-04-09T07:49:15.000Z</time>
      </trkpt>
      <trkpt lat="45.87526" lon="6.06078">
        <ele>527.20001220703</ele>
        <time>2012-04-09T07:49:21.000Z</time>
      </trkpt>
      <trkpt lat="45.87544" lon="6.06091">
        <ele>528.40002441406</ele>
        <time>2012-04-09T07:49:29.000Z</time>
      </trkpt>
      <trkpt lat="45.87561" lon="6.06106">
        <ele>529.40002441406</ele>
        <time>2012-04-09T07:49:37.000Z</time>
      </trkpt>
      <trkpt lat="45.87565" lon="6.0612">
        <ele>530</ele>
        <time>2012-04-09T07:49:42.000Z</time>
      </trkpt>
      <trkpt lat="45.87566" lon="6.06146">
        <ele>530.79998779297</ele>
        <time>2012-04-09T07:49:50.000Z</time>
      </trkpt>
      <trkpt lat="45.87576" lon="6.0616">
        <ele>531</ele>
        <time>2012-04-09T07:49:56.000Z</time>
      </trkpt>
      <trkpt lat="45.87592" lon="6.06177">
        <ele>532</ele>
        <time>2012-04-09T07:50:04.000Z</time>
      </trkpt>
      <trkpt lat="45.87607" lon="6.06196">
        <ele>533.59997558594</ele>
        <time>2012-04-09T07:50:12.000Z</time>
      </trkpt>
      <trkpt lat="45.87622" lon="6.06214">
        <ele>535</ele>
        <time>2012-04-09T07:50:20.000Z</time>
      </trkpt>
      <trkpt lat="45.87631" lon="6.06224">
        <ele>535.59997558594</ele>
        <time>2012-04-09T07:50:27.000Z</time>
      </trkpt>
      <trkpt lat="45.87631" lon="6.06224">
        <ele>535.59997558594</ele>
        <time>2012-04-09T07:50:34.000Z</time>
      </trkpt>
      <trkpt lat="45.87632" lon="6.06224">
        <ele>535.59997558594</ele>
        <time>2012-04-09T07:50:42.000Z</time>
      </trkpt>
      <trkpt lat="45.87635" lon="6.0622">
        <ele>535.40002441406</ele>
        <time>2012-04-09T07:51:58.000Z</time>
      </trkpt>
      <trkpt lat="45.87638" lon="6.06219">
        <ele>535.59997558594</ele>
        <time>2012-04-09T07:52:04.000Z</time>
      </trkpt>
      <trkpt lat="45.87639" lon="6.06217">
        <ele>535.40002441406</ele>
        <time>2012-04-09T07:52:06.000Z</time>
      </trkpt>
      <trkpt lat="45.87641" lon="6.06217">
        <ele>535.59997558594</ele>
        <time>2012-04-09T07:52:09.000Z</time>
      </trkpt>
      <trkpt lat="45.87648" lon="6.06214">
        <ele>535.59997558594</ele>
        <time>2012-04-09T07:52:14.000Z</time>
      </trkpt>
      <trkpt lat="45.87652" lon="6.06212">
        <ele>535.59997558594</ele>
        <time>2012-04-09T07:52:18.000Z</time>
      </trkpt>
      <trkpt lat="45.87654" lon="6.06208">
        <ele>535.59997558594</ele>
        <time>2012-04-09T07:52:23.000Z</time>
      </trkpt>
      <trkpt lat="45.8767" lon="6.06192">
        <ele>535.79998779297</ele>
        <time>2012-04-09T07:52:31.000Z</time>
      </trkpt>
      <trkpt lat="45.87686" lon="6.06174">
        <ele>536.20001220703</ele>
        <time>2012-04-09T07:52:37.000Z</time>
      </trkpt>
      <trkpt lat="45.877" lon="6.06158">
        <ele>536.40002441406</ele>
        <time>2012-04-09T07:52:42.000Z</time>
      </trkpt>
      <trkpt lat="45.87716" lon="6.0614">
        <ele>536.59997558594</ele>
        <time>2012-04-09T07:52:48.000Z</time>
      </trkpt>
      <trkpt lat="45.87735" lon="6.06126">
        <ele>537.20001220703</ele>
        <time>2012-04-09T07:52:54.000Z</time>
      </trkpt>
      <trkpt lat="45.87752" lon="6.06114">
        <ele>538</ele>
        <time>2012-04-09T07:53:00.000Z</time>
      </trkpt>
      <trkpt lat="45.87765" lon="6.06098">
        <ele>539</ele>
        <time>2012-04-09T07:53:06.000Z</time>
      </trkpt>
      <trkpt lat="45.87768" lon="6.06094">
        <ele>539.20001220703</ele>
        <time>2012-04-09T07:53:09.000Z</time>
      </trkpt>
      <trkpt lat="45.87768" lon="6.06093">
        <ele>539.20001220703</ele>
        <time>2012-04-09T07:53:19.000Z</time>
      </trkpt>
      <trkpt lat="45.87773" lon="6.0608">
        <ele>539.20001220703</ele>
        <time>2012-04-09T07:53:23.000Z</time>
      </trkpt>
      <trkpt lat="45.87782" lon="6.06055">
        <ele>538.79998779297</ele>
        <time>2012-04-09T07:53:29.000Z</time>
      </trkpt>
      <trkpt lat="45.87798" lon="6.06014">
        <ele>537.40002441406</ele>
        <time>2012-04-09T07:53:38.000Z</time>
      </trkpt>
      <trkpt lat="45.878" lon="6.06005">
        <ele>537</ele>
        <time>2012-04-09T07:53:40.000Z</time>
      </trkpt>
      <trkpt lat="45.87804" lon="6.0598">
        <ele>535.20001220703</ele>
        <time>2012-04-09T07:53:47.000Z</time>
      </trkpt>
      <trkpt lat="45.87808" lon="6.05953">
        <ele>533.20001220703</ele>
        <time>2012-04-09T07:53:54.000Z</time>
      </trkpt>
      <trkpt lat="45.87814" lon="6.05927">
        <ele>531.59997558594</ele>
        <time>2012-04-09T07:54:01.000Z</time>
      </trkpt>
      <trkpt lat="45.87818" lon="6.05922">
        <ele>531.40002441406</ele>
        <time>2012-04-09T07:54:04.000Z</time>
      </trkpt>
      <trkpt lat="45.87824" lon="6.05931">
        <ele>532.59997558594</ele>
        <time>2012-04-09T07:54:09.000Z</time>
      </trkpt>
      <trkpt lat="45.87832" lon="6.05952">
        <ele>534.79998779297</ele>
        <time>2012-04-09T07:54:17.000Z</time>
      </trkpt>
      <trkpt lat="45.87839" lon="6.0597">
        <ele>536</ele>
        <time>2012-04-09T07:54:24.000Z</time>
      </trkpt>
      <trkpt lat="45.87855" lon="6.06011">
        <ele>538.40002441406</ele>
        <time>2012-04-09T07:54:40.000Z</time>
      </trkpt>
      <trkpt lat="45.87863" lon="6.06024">
        <ele>539</ele>
        <time>2012-04-09T07:54:46.000Z</time>
      </trkpt>
      <trkpt lat="45.87872" lon="6.06044">
        <ele>540.59997558594</ele>
        <time>2012-04-09T07:54:54.000Z</time>
      </trkpt>
      <trkpt lat="45.87879" lon="6.06061">
        <ele>542.40002441406</ele>
        <time>2012-04-09T07:55:01.000Z</time>
      </trkpt>
      <trkpt lat="45.87888" lon="6.06083">
        <ele>544.59997558594</ele>
        <time>2012-04-09T07:55:10.000Z</time>
      </trkpt>
      <trkpt lat="45.87895" lon="6.061">
        <ele>546.59997558594</ele>
        <time>2012-04-09T07:55:17.000Z</time>
      </trkpt>
      <trkpt lat="45.87903" lon="6.06117">
        <ele>549.20001220703</ele>
        <time>2012-04-09T07:55:24.000Z</time>
      </trkpt>
      <trkpt lat="45.87909" lon="6.06133">
        <ele>551.79998779297</ele>
        <time>2012-04-09T07:55:31.000Z</time>
      </trkpt>
      <trkpt lat="45.87913" lon="6.06149">
        <ele>554.59997558594</ele>
        <time>2012-04-09T07:55:39.000Z</time>
      </trkpt>
      <trkpt lat="45.87902" lon="6.06167">
        <ele>556.20001220703</ele>
        <time>2012-04-09T07:55:51.000Z</time>
      </trkpt>
      <trkpt lat="45.87895" lon="6.0618">
        <ele>556.40002441406</ele>
        <time>2012-04-09T07:55:58.000Z</time>
      </trkpt>
      <trkpt lat="45.8789" lon="6.06196">
        <ele>557</ele>
        <time>2012-04-09T07:56:06.000Z</time>
      </trkpt>
      <trkpt lat="45.87894" lon="6.06208">
        <ele>558.59997558594</ele>
        <time>2012-04-09T07:56:12.000Z</time>
      </trkpt>
      <trkpt lat="45.87902" lon="6.06225">
        <ele>561.20001220703</ele>
        <time>2012-04-09T07:56:20.000Z</time>
      </trkpt>
      <trkpt lat="45.87912" lon="6.06237">
        <ele>564</ele>
        <time>2012-04-09T07:56:27.000Z</time>
      </trkpt>
      <trkpt lat="45.87923" lon="6.06251">
        <ele>565.40002441406</ele>
        <time>2012-04-09T07:56:35.000Z</time>
      </trkpt>
      <trkpt lat="45.87932" lon="6.06268">
        <ele>564.20001220703</ele>
        <time>2012-04-09T07:56:42.000Z</time>
      </trkpt>
      <trkpt lat="45.87938" lon="6.06287">
        <ele>563.59997558594</ele>
        <time>2012-04-09T07:56:47.000Z</time>
      </trkpt>
      <trkpt lat="45.87943" lon="6.06302">
        <ele>563.20001220703</ele>
        <time>2012-04-09T07:56:52.000Z</time>
      </trkpt>
      <trkpt lat="45.87949" lon="6.06318">
        <ele>563.20001220703</ele>
        <time>2012-04-09T07:56:58.000Z</time>
      </trkpt>
      <trkpt lat="45.87954" lon="6.06323">
        <ele>563.20001220703</ele>
        <time>2012-04-09T07:57:04.000Z</time>
      </trkpt>
      <trkpt lat="45.87953" lon="6.06324">
        <ele>563.20001220703</ele>
        <time>2012-04-09T07:57:12.000Z</time>
      </trkpt>
      <trkpt lat="45.87961" lon="6.06311">
        <ele>563.20001220703</ele>
        <time>2012-04-09T07:57:37.000Z</time>
      </trkpt>
      <trkpt lat="45.87961" lon="6.06304">
        <ele>563.20001220703</ele>
        <time>2012-04-09T07:57:39.000Z</time>
      </trkpt>
      <trkpt lat="45.87963" lon="6.06285">
        <ele>562.79998779297</ele>
        <time>2012-04-09T07:57:45.000Z</time>
      </trkpt>
      <trkpt lat="45.87965" lon="6.06281">
        <ele>562.59997558594</ele>
        <time>2012-04-09T07:57:46.000Z</time>
      </trkpt>
      <trkpt lat="45.87972" lon="6.06283">
        <ele>562.40002441406</ele>
        <time>2012-04-09T07:57:49.000Z</time>
      </trkpt>
      <trkpt lat="45.87977" lon="6.06288">
        <ele>562.40002441406</ele>
        <time>2012-04-09T07:57:51.000Z</time>
      </trkpt>
      <trkpt lat="45.87982" lon="6.06291">
        <ele>562.40002441406</ele>
        <time>2012-04-09T07:57:53.000Z</time>
      </trkpt>
      <trkpt lat="45.87986" lon="6.06282">
        <ele>561.79998779297</ele>
        <time>2012-04-09T07:57:57.000Z</time>
      </trkpt>
      <trkpt lat="45.87985" lon="6.06274">
        <ele>561.40002441406</ele>
        <time>2012-04-09T07:57:59.000Z</time>
      </trkpt>
      <trkpt lat="45.87984" lon="6.06268">
        <ele>561.20001220703</ele>
        <time>2012-04-09T07:58:01.000Z</time>
      </trkpt>
      <trkpt lat="45.87989" lon="6.06265">
        <ele>560.79998779297</ele>
        <time>2012-04-09T07:58:05.000Z</time>
      </trkpt>
      <trkpt lat="45.87992" lon="6.06267">
        <ele>560.79998779297</ele>
        <time>2012-04-09T07:58:06.000Z</time>
      </trkpt>
      <trkpt lat="45.88007" lon="6.06281">
        <ele>559</ele>
        <time>2012-04-09T07:58:12.000Z</time>
      </trkpt>
      <trkpt lat="45.88009" lon="6.06284">
        <ele>558.59997558594</ele>
        <time>2012-04-09T07:58:13.000Z</time>
      </trkpt>
      <trkpt lat="45.88013" lon="6.06286">
        <ele>557.59997558594</ele>
        <time>2012-04-09T07:58:19.000Z</time>
      </trkpt>
      <trkpt lat="45.88019" lon="6.06288">
        <ele>555.79998779297</ele>
        <time>2012-04-09T07:59:13.000Z</time>
      </trkpt>
      <trkpt lat="45.88024" lon="6.06266">
        <ele>552.20001220703</ele>
        <time>2012-04-09T07:59:17.000Z</time>
      </trkpt>
      <trkpt lat="45.88027" lon="6.06247">
        <ele>549</ele>
        <time>2012-04-09T07:59:21.000Z</time>
      </trkpt>
      <trkpt lat="45.88028" lon="6.0623">
        <ele>546.40002441406</ele>
        <time>2012-04-09T07:59:26.000Z</time>
      </trkpt>
      <trkpt lat="45.88029" lon="6.06217">
        <ele>544.20001220703</ele>
        <time>2012-04-09T07:59:29.000Z</time>
      </trkpt>
      <trkpt lat="45.88029" lon="6.06215">
        <ele>544</ele>
        <time>2012-04-09T07:59:34.000Z</time>
      </trkpt>
      <trkpt lat="45.88031" lon="6.06215">
        <ele>543.40002441406</ele>
        <time>2012-04-09T07:59:48.000Z</time>
      </trkpt>
      <trkpt lat="45.88037" lon="6.06208">
        <ele>540.40002441406</ele>
        <time>2012-04-09T07:59:52.000Z</time>
      </trkpt>
      <trkpt lat="45.88043" lon="6.06191">
        <ele>536.79998779297</ele>
        <time>2012-04-09T07:59:56.000Z</time>
      </trkpt>
      <trkpt lat="45.88052" lon="6.06175">
        <ele>532.40002441406</ele>
        <time>2012-04-09T08:00:00.000Z</time>
      </trkpt>
      <trkpt lat="45.88055" lon="6.06172">
        <ele>531.40002441406</ele>
        <time>2012-04-09T08:00:03.000Z</time>
      </trkpt>
      <trkpt lat="45.8806" lon="6.06165">
        <ele>529.59997558594</ele>
        <time>2012-04-09T08:00:57.000Z</time>
      </trkpt>
      <trkpt lat="45.88072" lon="6.06156">
        <ele>526.20001220703</ele>
        <time>2012-04-09T08:01:01.000Z</time>
      </trkpt>
      <trkpt lat="45.88089" lon="6.06139">
        <ele>522.59997558594</ele>
        <time>2012-04-09T08:01:05.000Z</time>
      </trkpt>
      <trkpt lat="45.88106" lon="6.06122">
        <ele>521</ele>
        <time>2012-04-09T08:01:09.000Z</time>
      </trkpt>
      <trkpt lat="45.88121" lon="6.06108">
        <ele>519.79998779297</ele>
        <time>2012-04-09T08:01:13.000Z</time>
      </trkpt>
      <trkpt lat="45.88132" lon="6.06096">
        <ele>519</ele>
        <time>2012-04-09T08:01:17.000Z</time>
      </trkpt>
      <trkpt lat="45.88134" lon="6.06093">
        <ele>518.79998779297</ele>
        <time>2012-04-09T08:01:21.000Z</time>
      </trkpt>
      <trkpt lat="45.88134" lon="6.06092">
        <ele>518.79998779297</ele>
        <time>2012-04-09T08:01:28.000Z</time>
      </trkpt>
      <trkpt lat="45.88143" lon="6.06105">
        <ele>518.59997558594</ele>
        <time>2012-04-09T08:01:37.000Z</time>
      </trkpt>
      <trkpt lat="45.88156" lon="6.06129">
        <ele>518.20001220703</ele>
        <time>2012-04-09T08:01:43.000Z</time>
      </trkpt>
      <trkpt lat="45.88168" lon="6.06151">
        <ele>517.79998779297</ele>
        <time>2012-04-09T08:01:48.000Z</time>
      </trkpt>
      <trkpt lat="45.88179" lon="6.06167">
        <ele>517.79998779297</ele>
        <time>2012-04-09T08:01:53.000Z</time>
      </trkpt>
      <trkpt lat="45.8819" lon="6.06187">
        <ele>518</ele>
        <time>2012-04-09T08:01:59.000Z</time>
      </trkpt>
      <trkpt lat="45.88202" lon="6.06206">
        <ele>518.20001220703</ele>
        <time>2012-04-09T08:02:06.000Z</time>
      </trkpt>
      <trkpt lat="45.88217" lon="6.06211">
        <ele>517.79998779297</ele>
        <time>2012-04-09T08:02:12.000Z</time>
      </trkpt>
      <trkpt lat="45.88229" lon="6.06205">
        <ele>517.20001220703</ele>
        <time>2012-04-09T08:02:16.000Z</time>
      </trkpt>
      <trkpt lat="45.88244" lon="6.0619">
        <ele>516.40002441406</ele>
        <time>2012-04-09T08:02:22.000Z</time>
      </trkpt>
      <trkpt lat="45.88258" lon="6.06176">
        <ele>516</ele>
        <time>2012-04-09T08:02:28.000Z</time>
      </trkpt>
      <trkpt lat="45.88267" lon="6.06168">
        <ele>515.59997558594</ele>
        <time>2012-04-09T08:02:32.000Z</time>
      </trkpt>
      <trkpt lat="45.88273" lon="6.06165">
        <ele>515.59997558594</ele>
        <time>2012-04-09T08:02:34.000Z</time>
      </trkpt>
      <trkpt lat="45.88286" lon="6.06167">
        <ele>515.20001220703</ele>
        <time>2012-04-09T08:02:39.000Z</time>
      </trkpt>
      <trkpt lat="45.88301" lon="6.06179">
        <ele>514.79998779297</ele>
        <time>2012-04-09T08:02:45.000Z</time>
      </trkpt>
      <trkpt lat="45.88317" lon="6.06192">
        <ele>514.40002441406</ele>
        <time>2012-04-09T08:02:52.000Z</time>
      </trkpt>
      <trkpt lat="45.88329" lon="6.06199">
        <ele>514.20001220703</ele>
        <time>2012-04-09T08:02:58.000Z</time>
      </trkpt>
      <trkpt lat="45.88345" lon="6.06208">
        <ele>513.79998779297</ele>
        <time>2012-04-09T08:03:04.000Z</time>
      </trkpt>
      <trkpt lat="45.88356" lon="6.06213">
        <ele>513.59997558594</ele>
        <time>2012-04-09T08:03:09.000Z</time>
      </trkpt>
      <trkpt lat="45.88363" lon="6.06201">
        <ele>513.40002441406</ele>
        <time>2012-04-09T08:03:13.000Z</time>
      </trkpt>
      <trkpt lat="45.88366" lon="6.06177">
        <ele>513.20001220703</ele>
        <time>2012-04-09T08:03:19.000Z</time>
      </trkpt>
      <trkpt lat="45.88368" lon="6.06156">
        <ele>513.79998779297</ele>
        <time>2012-04-09T08:03:25.000Z</time>
      </trkpt>
      <trkpt lat="45.88368" lon="6.06146">
        <ele>514.59997558594</ele>
        <time>2012-04-09T08:03:30.000Z</time>
      </trkpt>
      <trkpt lat="45.8837" lon="6.06135">
        <ele>515.20001220703</ele>
        <time>2012-04-09T08:04:30.000Z</time>
      </trkpt>
      <trkpt lat="45.88367" lon="6.06125">
        <ele>516</ele>
        <time>2012-04-09T08:04:34.000Z</time>
      </trkpt>
      <trkpt lat="45.88365" lon="6.0612">
        <ele>516.40002441406</ele>
        <time>2012-04-09T08:04:36.000Z</time>
      </trkpt>
      <trkpt lat="45.88365" lon="6.0611">
        <ele>517</ele>
        <time>2012-04-09T08:04:41.000Z</time>
      </trkpt>
      <trkpt lat="45.88365" lon="6.06107">
        <ele>517.40002441406</ele>
        <time>2012-04-09T08:04:46.000Z</time>
      </trkpt>
      <trkpt lat="45.88365" lon="6.06103">
        <ele>517.59997558594</ele>
        <time>2012-04-09T08:04:48.000Z</time>
      </trkpt>
      <trkpt lat="45.88362" lon="6.06098">
        <ele>518.20001220703</ele>
        <time>2012-04-09T08:04:52.000Z</time>
      </trkpt>
      <trkpt lat="45.8836" lon="6.06095">
        <ele>518.59997558594</ele>
        <time>2012-04-09T08:04:54.000Z</time>
      </trkpt>
      <trkpt lat="45.88358" lon="6.06088">
        <ele>519.20001220703</ele>
        <time>2012-04-09T08:04:58.000Z</time>
      </trkpt>
      <trkpt lat="45.88355" lon="6.06079">
        <ele>520.40002441406</ele>
        <time>2012-04-09T08:05:03.000Z</time>
      </trkpt>
      <trkpt lat="45.88354" lon="6.06072">
        <ele>521.20001220703</ele>
        <time>2012-04-09T08:05:07.000Z</time>
      </trkpt>
      <trkpt lat="45.88349" lon="6.06065">
        <ele>522.40002441406</ele>
        <time>2012-04-09T08:05:12.000Z</time>
      </trkpt>
      <trkpt lat="45.88348" lon="6.06062">
        <ele>522.79998779297</ele>
        <time>2012-04-09T08:05:13.000Z</time>
      </trkpt>
      <trkpt lat="45.88345" lon="6.0605">
        <ele>524.59997558594</ele>
        <time>2012-04-09T08:05:19.000Z</time>
      </trkpt>
      <trkpt lat="45.88345" lon="6.06048">
        <ele>524.79998779297</ele>
        <time>2012-04-09T08:05:20.000Z</time>
      </trkpt>
      <trkpt lat="45.88342" lon="6.0604">
        <ele>526</ele>
        <time>2012-04-09T08:05:24.000Z</time>
      </trkpt>
      <trkpt lat="45.88339" lon="6.06026">
        <ele>528</ele>
        <time>2012-04-09T08:05:30.000Z</time>
      </trkpt>
      <trkpt lat="45.88339" lon="6.06024">
        <ele>528.20001220703</ele>
        <time>2012-04-09T08:05:31.000Z</time>
      </trkpt>
      <trkpt lat="45.88334" lon="6.06011">
        <ele>530.59997558594</ele>
        <time>2012-04-09T08:05:37.000Z</time>
      </trkpt>
      <trkpt lat="45.8833" lon="6.05997">
        <ele>531.79998779297</ele>
        <time>2012-04-09T08:05:43.000Z</time>
      </trkpt>
      <trkpt lat="45.8832" lon="6.05986">
        <ele>531.40002441406</ele>
        <time>2012-04-09T08:05:50.000Z</time>
      </trkpt>
      <trkpt lat="45.88314" lon="6.05971">
        <ele>531.59997558594</ele>
        <time>2012-04-09T08:05:56.000Z</time>
      </trkpt>
      <trkpt lat="45.8831" lon="6.05953">
        <ele>532.40002441406</ele>
        <time>2012-04-09T08:06:03.000Z</time>
      </trkpt>
      <trkpt lat="45.88305" lon="6.0594">
        <ele>532.79998779297</ele>
        <time>2012-04-09T08:06:09.000Z</time>
      </trkpt>
      <trkpt lat="45.88303" lon="6.05936">
        <ele>533.20001220703</ele>
        <time>2012-04-09T08:06:11.000Z</time>
      </trkpt>
      <trkpt lat="45.88304" lon="6.05927">
        <ele>533.59997558594</ele>
        <time>2012-04-09T08:06:14.000Z</time>
      </trkpt>
      <trkpt lat="45.88298" lon="6.05909">
        <ele>534</ele>
        <time>2012-04-09T08:06:20.000Z</time>
      </trkpt>
      <trkpt lat="45.88288" lon="6.05889">
        <ele>533.40002441406</ele>
        <time>2012-04-09T08:06:25.000Z</time>
      </trkpt>
      <trkpt lat="45.88279" lon="6.05866">
        <ele>533</ele>
        <time>2012-04-09T08:06:29.000Z</time>
      </trkpt>
      <trkpt lat="45.88273" lon="6.05854">
        <ele>533</ele>
        <time>2012-04-09T08:06:31.000Z</time>
      </trkpt>
      <trkpt lat="45.88253" lon="6.05782">
        <ele>532</ele>
        <time>2012-04-09T08:06:43.000Z</time>
      </trkpt>
      <trkpt lat="45.88252" lon="6.05778">
        <ele>531.79998779297</ele>
        <time>2012-04-09T08:06:44.000Z</time>
      </trkpt>
      <trkpt lat="45.88248" lon="6.05769">
        <ele>531.59997558594</ele>
        <time>2012-04-09T08:06:48.000Z</time>
      </trkpt>
      <trkpt lat="45.8824" lon="6.05754">
        <ele>530.59997558594</ele>
        <time>2012-04-09T08:06:53.000Z</time>
      </trkpt>
      <trkpt lat="45.88231" lon="6.05736">
        <ele>529.40002441406</ele>
        <time>2012-04-09T08:06:59.000Z</time>
      </trkpt>
      <trkpt lat="45.88222" lon="6.05722">
        <ele>528.40002441406</ele>
        <time>2012-04-09T08:07:04.000Z</time>
      </trkpt>
      <trkpt lat="45.88214" lon="6.05701">
        <ele>527.59997558594</ele>
        <time>2012-04-09T08:07:09.000Z</time>
      </trkpt>
      <trkpt lat="45.8821" lon="6.05689">
        <ele>527</ele>
        <time>2012-04-09T08:07:11.000Z</time>
      </trkpt>
      <trkpt lat="45.88217" lon="6.05666">
        <ele>526.59997558594</ele>
        <time>2012-04-09T08:07:15.000Z</time>
      </trkpt>
      <trkpt lat="45.8822" lon="6.05659">
        <ele>526.59997558594</ele>
        <time>2012-04-09T08:07:16.000Z</time>
      </trkpt>
      <trkpt lat="45.8823" lon="6.05634">
        <ele>526</ele>
        <time>2012-04-09T08:07:19.000Z</time>
      </trkpt>
      <trkpt lat="45.88243" lon="6.05605">
        <ele>525.59997558594</ele>
        <time>2012-04-09T08:07:22.000Z</time>
      </trkpt>
      <trkpt lat="45.88253" lon="6.05574">
        <ele>525</ele>
        <time>2012-04-09T08:07:25.000Z</time>
      </trkpt>
      <trkpt lat="45.88259" lon="6.05547">
        <ele>525</ele>
        <time>2012-04-09T08:07:28.000Z</time>
      </trkpt>
      <trkpt lat="45.88261" lon="6.0554">
        <ele>525</ele>
        <time>2012-04-09T08:07:29.000Z</time>
      </trkpt>
      <trkpt lat="45.8827" lon="6.05527">
        <ele>525</ele>
        <time>2012-04-09T08:07:32.000Z</time>
      </trkpt>
      <trkpt lat="45.88282" lon="6.05513">
        <ele>525</ele>
        <time>2012-04-09T08:07:36.000Z</time>
      </trkpt>
      <trkpt lat="45.88286" lon="6.055">
        <ele>525</ele>
        <time>2012-04-09T08:07:50.000Z</time>
      </trkpt>
      <trkpt lat="45.88285" lon="6.05502">
        <ele>525</ele>
        <time>2012-04-09T08:07:51.000Z</time>
      </trkpt>
      <trkpt lat="45.88285" lon="6.05504">
        <ele>525</ele>
        <time>2012-04-09T08:07:57.000Z</time>
      </trkpt>
      <trkpt lat="45.88281" lon="6.05512">
        <ele>525</ele>
        <time>2012-04-09T08:08:01.000Z</time>
      </trkpt>
      <trkpt lat="45.88278" lon="6.05514">
        <ele>525</ele>
        <time>2012-04-09T08:08:03.000Z</time>
      </trkpt>
      <trkpt lat="45.88276" lon="6.05517">
        <ele>525</ele>
        <time>2012-04-09T08:08:06.000Z</time>
      </trkpt>
      <trkpt lat="45.88273" lon="6.05522">
        <ele>525</ele>
        <time>2012-04-09T08:08:10.000Z</time>
      </trkpt>
      <trkpt lat="45.88272" lon="6.05523">
        <ele>525</ele>
        <time>2012-04-09T08:08:11.000Z</time>
      </trkpt>
      <trkpt lat="45.88272" lon="6.05523">
        <ele>525</ele>
        <time>2012-04-09T08:08:12.000Z</time>
      </trkpt>
      <trkpt lat="45.8827" lon="6.05525">
        <ele>525</ele>
        <time>2012-04-09T08:08:17.000Z</time>
      </trkpt>
      <trkpt lat="45.88271" lon="6.05526">
        <ele>525</ele>
        <time>2012-04-09T08:08:18.000Z</time>
      </trkpt>
      <trkpt lat="45.88275" lon="6.05522">
        <ele>525</ele>
        <time>2012-04-09T08:08:25.000Z</time>
      </trkpt>
      <trkpt lat="45.88275" lon="6.0552">
        <ele>525</ele>
        <time>2012-04-09T08:08:29.000Z</time>
      </trkpt>
      <trkpt lat="45.88277" lon="6.05518">
        <ele>525</ele>
        <time>2012-04-09T08:08:34.000Z</time>
      </trkpt>
      <trkpt lat="45.88279" lon="6.05514">
        <ele>525</ele>
        <time>2012-04-09T08:08:37.000Z</time>
      </trkpt>
      <trkpt lat="45.88276" lon="6.05516">
        <ele>525</ele>
        <time>2012-04-09T08:08:41.000Z</time>
      </trkpt>
      <trkpt lat="45.88274" lon="6.05519">
        <ele>525</ele>
        <time>2012-04-09T08:08:45.000Z</time>
      </trkpt>
      <trkpt lat="45.88275" lon="6.0552">
        <ele>525</ele>
        <time>2012-04-09T08:09:16.000Z</time>
      </trkpt>
      <trkpt lat="45.88275" lon="6.05519">
        <ele>525</ele>
        <time>2012-04-09T08:09:22.000Z</time>
      </trkpt>
      <trkpt lat="45.88277" lon="6.05517">
        <ele>525</ele>
        <time>2012-04-09T08:10:02.000Z</time>
      </trkpt>
      <trkpt lat="45.88281" lon="6.05512">
        <ele>525</ele>
        <time>2012-04-09T08:10:32.000Z</time>
      </trkpt>
      <trkpt lat="45.88288" lon="6.05498">
        <ele>525</ele>
        <time>2012-04-09T08:10:39.000Z</time>
      </trkpt>
      <trkpt lat="45.88294" lon="6.05475">
        <ele>525.20001220703</ele>
        <time>2012-04-09T08:10:47.000Z</time>
      </trkpt>
      <trkpt lat="45.8829" lon="6.0545">
        <ele>525.20001220703</ele>
        <time>2012-04-09T08:10:54.000Z</time>
      </trkpt>
      <trkpt lat="45.88278" lon="6.05429">
        <ele>525.20001220703</ele>
        <time>2012-04-09T08:11:01.000Z</time>
      </trkpt>
      <trkpt lat="45.88264" lon="6.05409">
        <ele>525.40002441406</ele>
        <time>2012-04-09T08:11:09.000Z</time>
      </trkpt>
      <trkpt lat="45.88254" lon="6.05395">
        <ele>525.40002441406</ele>
        <time>2012-04-09T08:11:15.000Z</time>
      </trkpt>
      <trkpt lat="45.88247" lon="6.05385">
        <ele>525.40002441406</ele>
        <time>2012-04-09T08:11:19.000Z</time>
      </trkpt>
      <trkpt lat="45.88245" lon="6.05364">
        <ele>525.59997558594</ele>
        <time>2012-04-09T08:11:25.000Z</time>
      </trkpt>
      <trkpt lat="45.88241" lon="6.05341">
        <ele>526</ele>
        <time>2012-04-09T08:11:32.000Z</time>
      </trkpt>
      <trkpt lat="45.88237" lon="6.05321">
        <ele>526.79998779297</ele>
        <time>2012-04-09T08:11:38.000Z</time>
      </trkpt>
      <trkpt lat="45.88229" lon="6.05306">
        <ele>527.59997558594</ele>
        <time>2012-04-09T08:11:43.000Z</time>
      </trkpt>
      <trkpt lat="45.88227" lon="6.05302">
        <ele>527.59997558594</ele>
        <time>2012-04-09T08:11:44.000Z</time>
      </trkpt>
      <trkpt lat="45.88218" lon="6.05285">
        <ele>528.40002441406</ele>
        <time>2012-04-09T08:11:50.000Z</time>
      </trkpt>
      <trkpt lat="45.88208" lon="6.05269">
        <ele>529.20001220703</ele>
        <time>2012-04-09T08:11:56.000Z</time>
      </trkpt>
      <trkpt lat="45.88194" lon="6.05261">
        <ele>529.59997558594</ele>
        <time>2012-04-09T08:12:02.000Z</time>
      </trkpt>
      <trkpt lat="45.8818" lon="6.05253">
        <ele>529.79998779297</ele>
        <time>2012-04-09T08:12:09.000Z</time>
      </trkpt>
      <trkpt lat="45.88179" lon="6.0525">
        <ele>530</ele>
        <time>2012-04-09T08:12:10.000Z</time>
      </trkpt>
      <trkpt lat="45.88181" lon="6.05235">
        <ele>530.59997558594</ele>
        <time>2012-04-09T08:12:14.000Z</time>
      </trkpt>
      <trkpt lat="45.88181" lon="6.05231">
        <ele>530.79998779297</ele>
        <time>2012-04-09T08:12:15.000Z</time>
      </trkpt>
      <trkpt lat="45.88181" lon="6.05212">
        <ele>531.40002441406</ele>
        <time>2012-04-09T08:12:20.000Z</time>
      </trkpt>
      <trkpt lat="45.88187" lon="6.05202">
        <ele>531.79998779297</ele>
        <time>2012-04-09T08:12:24.000Z</time>
      </trkpt>
      <trkpt lat="45.88193" lon="6.05195">
        <ele>532.20001220703</ele>
        <time>2012-04-09T08:12:27.000Z</time>
      </trkpt>
      <trkpt lat="45.88209" lon="6.05191">
        <ele>532.40002441406</ele>
        <time>2012-04-09T08:12:33.000Z</time>
      </trkpt>
      <trkpt lat="45.88211" lon="6.05189">
        <ele>532.59997558594</ele>
        <time>2012-04-09T08:12:34.000Z</time>
      </trkpt>
      <trkpt lat="45.88219" lon="6.05178">
        <ele>533.20001220703</ele>
        <time>2012-04-09T08:12:38.000Z</time>
      </trkpt>
      <trkpt lat="45.88219" lon="6.05164">
        <ele>533.59997558594</ele>
        <time>2012-04-09T08:12:42.000Z</time>
      </trkpt>
      <trkpt lat="45.88223" lon="6.05137">
        <ele>534.20001220703</ele>
        <time>2012-04-09T08:12:49.000Z</time>
      </trkpt>
      <trkpt lat="45.88224" lon="6.05111">
        <ele>534.59997558594</ele>
        <time>2012-04-09T08:12:56.000Z</time>
      </trkpt>
      <trkpt lat="45.88216" lon="6.0509">
        <ele>534.79998779297</ele>
        <time>2012-04-09T08:13:02.000Z</time>
      </trkpt>
      <trkpt lat="45.88209" lon="6.05068">
        <ele>534.79998779297</ele>
        <time>2012-04-09T08:13:09.000Z</time>
      </trkpt>
      <trkpt lat="45.8821" lon="6.05048">
        <ele>534.59997558594</ele>
        <time>2012-04-09T08:13:15.000Z</time>
      </trkpt>
      <trkpt lat="45.88214" lon="6.05036">
        <ele>534.40002441406</ele>
        <time>2012-04-09T08:13:19.000Z</time>
      </trkpt>
      <trkpt lat="45.88223" lon="6.05034">
        <ele>534.40002441406</ele>
        <time>2012-04-09T08:13:24.000Z</time>
      </trkpt>
      <trkpt lat="45.8823" lon="6.05038">
        <ele>534.40002441406</ele>
        <time>2012-04-09T08:13:27.000Z</time>
      </trkpt>
      <trkpt lat="45.88246" lon="6.05055">
        <ele>534.59997558594</ele>
        <time>2012-04-09T08:13:35.000Z</time>
      </trkpt>
      <trkpt lat="45.88263" lon="6.05072">
        <ele>535.20001220703</ele>
        <time>2012-04-09T08:13:43.000Z</time>
      </trkpt>
      <trkpt lat="45.88278" lon="6.05087">
        <ele>535.59997558594</ele>
        <time>2012-04-09T08:13:51.000Z</time>
      </trkpt>
      <trkpt lat="45.88294" lon="6.05102">
        <ele>536</ele>
        <time>2012-04-09T08:13:59.000Z</time>
      </trkpt>
      <trkpt lat="45.8831" lon="6.05117">
        <ele>536.59997558594</ele>
        <time>2012-04-09T08:14:07.000Z</time>
      </trkpt>
      <trkpt lat="45.88327" lon="6.05133">
        <ele>537.40002441406</ele>
        <time>2012-04-09T08:14:15.000Z</time>
      </trkpt>
      <trkpt lat="45.88344" lon="6.0515">
        <ele>537.59997558594</ele>
        <time>2012-04-09T08:14:23.000Z</time>
      </trkpt>
      <trkpt lat="45.88358" lon="6.05171">
        <ele>537.59997558594</ele>
        <time>2012-04-09T08:14:31.000Z</time>
      </trkpt>
      <trkpt lat="45.88368" lon="6.0519">
        <ele>537.40002441406</ele>
        <time>2012-04-09T08:14:38.000Z</time>
      </trkpt>
      <trkpt lat="45.88379" lon="6.05213">
        <ele>536.79998779297</ele>
        <time>2012-04-09T08:14:46.000Z</time>
      </trkpt>
      <trkpt lat="45.8839" lon="6.05239">
        <ele>536.40002441406</ele>
        <time>2012-04-09T08:14:53.000Z</time>
      </trkpt>
      <trkpt lat="45.884" lon="6.05262">
        <ele>535.59997558594</ele>
        <time>2012-04-09T08:14:57.000Z</time>
      </trkpt>
      <trkpt lat="45.88408" lon="6.05271">
        <ele>535.20001220703</ele>
        <time>2012-04-09T08:14:59.000Z</time>
      </trkpt>
      <trkpt lat="45.88425" lon="6.05268">
        <ele>535.40002441406</ele>
        <time>2012-04-09T08:15:03.000Z</time>
      </trkpt>
      <trkpt lat="45.88433" lon="6.05254">
        <ele>535.79998779297</ele>
        <time>2012-04-09T08:15:06.000Z</time>
      </trkpt>
      <trkpt lat="45.88435" lon="6.05244">
        <ele>536</ele>
        <time>2012-04-09T08:15:08.000Z</time>
      </trkpt>
      <trkpt lat="45.88434" lon="6.05245">
        <ele>536</ele>
        <time>2012-04-09T08:15:12.000Z</time>
      </trkpt>
      <trkpt lat="45.88439" lon="6.05243">
        <ele>536</ele>
        <time>2012-04-09T08:15:24.000Z</time>
      </trkpt>
      <trkpt lat="45.88451" lon="6.05245">
        <ele>536</ele>
        <time>2012-04-09T08:15:29.000Z</time>
      </trkpt>
      <trkpt lat="45.88453" lon="6.05244">
        <ele>536</ele>
        <time>2012-04-09T08:15:33.000Z</time>
      </trkpt>
      <trkpt lat="45.88454" lon="6.05244">
        <ele>536</ele>
        <time>2012-04-09T08:15:40.000Z</time>
      </trkpt>
      <trkpt lat="45.88457" lon="6.05241">
        <ele>536</ele>
        <time>2012-04-09T08:15:45.000Z</time>
      </trkpt>
      <trkpt lat="45.8847" lon="6.05232">
        <ele>535.79998779297</ele>
        <time>2012-04-09T08:15:50.000Z</time>
      </trkpt>
      <trkpt lat="45.88486" lon="6.05219">
        <ele>535.40002441406</ele>
        <time>2012-04-09T08:15:54.000Z</time>
      </trkpt>
      <trkpt lat="45.88498" lon="6.05208">
        <ele>535</ele>
        <time>2012-04-09T08:15:57.000Z</time>
      </trkpt>
      <trkpt lat="45.88506" lon="6.05185">
        <ele>534.20001220703</ele>
        <time>2012-04-09T08:16:02.000Z</time>
      </trkpt>
      <trkpt lat="45.88509" lon="6.05165">
        <ele>533.40002441406</ele>
        <time>2012-04-09T08:16:08.000Z</time>
      </trkpt>
      <trkpt lat="45.88515" lon="6.05143">
        <ele>532.59997558594</ele>
        <time>2012-04-09T08:16:15.000Z</time>
      </trkpt>
      <trkpt lat="45.88522" lon="6.05123">
        <ele>531.40002441406</ele>
        <time>2012-04-09T08:16:22.000Z</time>
      </trkpt>
      <trkpt lat="45.88528" lon="6.05104">
        <ele>530.40002441406</ele>
        <time>2012-04-09T08:16:29.000Z</time>
      </trkpt>
      <trkpt lat="45.88537" lon="6.05093">
        <ele>529</ele>
        <time>2012-04-09T08:16:35.000Z</time>
      </trkpt>
      <trkpt lat="45.88544" lon="6.05075">
        <ele>527.59997558594</ele>
        <time>2012-04-09T08:16:41.000Z</time>
      </trkpt>
      <trkpt lat="45.88553" lon="6.05051">
        <ele>525.59997558594</ele>
        <time>2012-04-09T08:16:48.000Z</time>
      </trkpt>
      <trkpt lat="45.88561" lon="6.05025">
        <ele>523.40002441406</ele>
        <time>2012-04-09T08:16:55.000Z</time>
      </trkpt>
      <trkpt lat="45.88569" lon="6.04998">
        <ele>521.20001220703</ele>
        <time>2012-04-09T08:17:02.000Z</time>
      </trkpt>
      <trkpt lat="45.88572" lon="6.04985">
        <ele>520</ele>
        <time>2012-04-09T08:17:06.000Z</time>
      </trkpt>
      <trkpt lat="45.88577" lon="6.04983">
        <ele>519.20001220703</ele>
        <time>2012-04-09T08:17:10.000Z</time>
      </trkpt>
      <trkpt lat="45.88578" lon="6.04986">
        <ele>519</ele>
        <time>2012-04-09T08:17:11.000Z</time>
      </trkpt>
      <trkpt lat="45.88587" lon="6.04997">
        <ele>518.40002441406</ele>
        <time>2012-04-09T08:17:15.000Z</time>
      </trkpt>
      <trkpt lat="45.88599" lon="6.05015">
        <ele>517.79998779297</ele>
        <time>2012-04-09T08:17:21.000Z</time>
      </trkpt>
      <trkpt lat="45.88612" lon="6.05035">
        <ele>516.79998779297</ele>
        <time>2012-04-09T08:17:28.000Z</time>
      </trkpt>
      <trkpt lat="45.88625" lon="6.05057">
        <ele>515.79998779297</ele>
        <time>2012-04-09T08:17:36.000Z</time>
      </trkpt>
      <trkpt lat="45.88635" lon="6.05079">
        <ele>514.79998779297</ele>
        <time>2012-04-09T08:17:43.000Z</time>
      </trkpt>
      <trkpt lat="45.8864" lon="6.05093">
        <ele>514.59997558594</ele>
        <time>2012-04-09T08:17:47.000Z</time>
      </trkpt>
      <trkpt lat="45.88644" lon="6.05103">
        <ele>514.40002441406</ele>
        <time>2012-04-09T08:17:50.000Z</time>
      </trkpt>
      <trkpt lat="45.88653" lon="6.05127">
        <ele>514</ele>
        <time>2012-04-09T08:17:57.000Z</time>
      </trkpt>
      <trkpt lat="45.88661" lon="6.05151">
        <ele>513.40002441406</ele>
        <time>2012-04-09T08:18:04.000Z</time>
      </trkpt>
      <trkpt lat="45.8867" lon="6.05176">
        <ele>513.40002441406</ele>
        <time>2012-04-09T08:18:11.000Z</time>
      </trkpt>
      <trkpt lat="45.88677" lon="6.05196">
        <ele>514</ele>
        <time>2012-04-09T08:18:17.000Z</time>
      </trkpt>
      <trkpt lat="45.88685" lon="6.0522">
        <ele>514.59997558594</ele>
        <time>2012-04-09T08:18:24.000Z</time>
      </trkpt>
      <trkpt lat="45.88693" lon="6.05243">
        <ele>514.79998779297</ele>
        <time>2012-04-09T08:18:31.000Z</time>
      </trkpt>
      <trkpt lat="45.887" lon="6.05264">
        <ele>514.79998779297</ele>
        <time>2012-04-09T08:18:37.000Z</time>
      </trkpt>
      <trkpt lat="45.88708" lon="6.05287">
        <ele>514.40002441406</ele>
        <time>2012-04-09T08:18:44.000Z</time>
      </trkpt>
      <trkpt lat="45.88716" lon="6.0531">
        <ele>513.59997558594</ele>
        <time>2012-04-09T08:18:51.000Z</time>
      </trkpt>
      <trkpt lat="45.88722" lon="6.0533">
        <ele>513</ele>
        <time>2012-04-09T08:18:57.000Z</time>
      </trkpt>
      <trkpt lat="45.88729" lon="6.0535">
        <ele>513</ele>
        <time>2012-04-09T08:19:03.000Z</time>
      </trkpt>
      <trkpt lat="45.88737" lon="6.05377">
        <ele>514</ele>
        <time>2012-04-09T08:19:11.000Z</time>
      </trkpt>
      <trkpt lat="45.88743" lon="6.054">
        <ele>515.40002441406</ele>
        <time>2012-04-09T08:19:18.000Z</time>
      </trkpt>
      <trkpt lat="45.88749" lon="6.05419">
        <ele>516.59997558594</ele>
        <time>2012-04-09T08:19:24.000Z</time>
      </trkpt>
      <trkpt lat="45.88756" lon="6.05434">
        <ele>518.20001220703</ele>
        <time>2012-04-09T08:19:29.000Z</time>
      </trkpt>
      <trkpt lat="45.88763" lon="6.0545">
        <ele>519.20001220703</ele>
        <time>2012-04-09T08:19:34.000Z</time>
      </trkpt>
      <trkpt lat="45.88766" lon="6.0546">
        <ele>520.40002441406</ele>
        <time>2012-04-09T08:19:37.000Z</time>
      </trkpt>
      <trkpt lat="45.88767" lon="6.05479">
        <ele>523.20001220703</ele>
        <time>2012-04-09T08:19:43.000Z</time>
      </trkpt>
      <trkpt lat="45.8877" lon="6.05497">
        <ele>525.20001220703</ele>
        <time>2012-04-09T08:19:49.000Z</time>
      </trkpt>
      <trkpt lat="45.88771" lon="6.05499">
        <ele>525.20001220703</ele>
        <time>2012-04-09T08:19:50.000Z</time>
      </trkpt>
      <trkpt lat="45.8878" lon="6.05515">
        <ele>522.79998779297</ele>
        <time>2012-04-09T08:19:56.000Z</time>
      </trkpt>
      <trkpt lat="45.88782" lon="6.05517">
        <ele>522.40002441406</ele>
        <time>2012-04-09T08:19:57.000Z</time>
      </trkpt>
      <trkpt lat="45.88786" lon="6.05525">
        <ele>521.59997558594</ele>
        <time>2012-04-09T08:20:00.000Z</time>
      </trkpt>
      <trkpt lat="45.88796" lon="6.05543">
        <ele>519.20001220703</ele>
        <time>2012-04-09T08:20:07.000Z</time>
      </trkpt>
      <trkpt lat="45.88801" lon="6.05559">
        <ele>518.20001220703</ele>
        <time>2012-04-09T08:20:12.000Z</time>
      </trkpt>
      <trkpt lat="45.88807" lon="6.05586">
        <ele>517.40002441406</ele>
        <time>2012-04-09T08:20:19.000Z</time>
      </trkpt>
      <trkpt lat="45.88811" lon="6.05609">
        <ele>516</ele>
        <time>2012-04-09T08:20:25.000Z</time>
      </trkpt>
      <trkpt lat="45.88817" lon="6.05635">
        <ele>514.20001220703</ele>
        <time>2012-04-09T08:20:32.000Z</time>
      </trkpt>
      <trkpt lat="45.88822" lon="6.05661">
        <ele>513</ele>
        <time>2012-04-09T08:20:39.000Z</time>
      </trkpt>
      <trkpt lat="45.88827" lon="6.05685">
        <ele>512</ele>
        <time>2012-04-09T08:20:46.000Z</time>
      </trkpt>
      <trkpt lat="45.88829" lon="6.05703">
        <ele>511.39999389648</ele>
        <time>2012-04-09T08:20:51.000Z</time>
      </trkpt>
      <trkpt lat="45.88831" lon="6.05731">
        <ele>510.60000610352</ele>
        <time>2012-04-09T08:20:58.000Z</time>
      </trkpt>
      <trkpt lat="45.88834" lon="6.05758">
        <ele>509.39999389648</ele>
        <time>2012-04-09T08:21:05.000Z</time>
      </trkpt>
      <trkpt lat="45.88843" lon="6.05782">
        <ele>507.60000610352</ele>
        <time>2012-04-09T08:21:12.000Z</time>
      </trkpt>
      <trkpt lat="45.88852" lon="6.05798">
        <ele>506.39999389648</ele>
        <time>2012-04-09T08:21:18.000Z</time>
      </trkpt>
      <trkpt lat="45.88857" lon="6.05814">
        <ele>505.20001220703</ele>
        <time>2012-04-09T08:21:24.000Z</time>
      </trkpt>
      <trkpt lat="45.88856" lon="6.05818">
        <ele>505</ele>
        <time>2012-04-09T08:21:25.000Z</time>
      </trkpt>
      <trkpt lat="45.88844" lon="6.05835">
        <ele>504.60000610352</ele>
        <time>2012-04-09T08:21:31.000Z</time>
      </trkpt>
      <trkpt lat="45.8883" lon="6.05854">
        <ele>505</ele>
        <time>2012-04-09T08:21:38.000Z</time>
      </trkpt>
      <trkpt lat="45.88816" lon="6.05874">
        <ele>506</ele>
        <time>2012-04-09T08:21:45.000Z</time>
      </trkpt>
      <trkpt lat="45.88809" lon="6.05884">
        <ele>506.39999389648</ele>
        <time>2012-04-09T08:21:50.000Z</time>
      </trkpt>
      <trkpt lat="45.88809" lon="6.0589">
        <ele>506.20001220703</ele>
        <time>2012-04-09T08:21:54.000Z</time>
      </trkpt>
      <trkpt lat="45.88814" lon="6.05895">
        <ele>505.39999389648</ele>
        <time>2012-04-09T08:21:58.000Z</time>
      </trkpt>
      <trkpt lat="45.88821" lon="6.05901">
        <ele>504.60000610352</ele>
        <time>2012-04-09T08:22:46.000Z</time>
      </trkpt>
      <trkpt lat="45.88836" lon="6.05909">
        <ele>503</ele>
        <time>2012-04-09T08:22:51.000Z</time>
      </trkpt>
      <trkpt lat="45.8885" lon="6.05912">
        <ele>502</ele>
        <time>2012-04-09T08:22:56.000Z</time>
      </trkpt>
      <trkpt lat="45.88863" lon="6.05916">
        <ele>501</ele>
        <time>2012-04-09T08:23:01.000Z</time>
      </trkpt>
      <trkpt lat="45.88879" lon="6.05924">
        <ele>499.60000610352</ele>
        <time>2012-04-09T08:23:07.000Z</time>
      </trkpt>
      <trkpt lat="45.88896" lon="6.05934">
        <ele>498.60000610352</ele>
        <time>2012-04-09T08:23:13.000Z</time>
      </trkpt>
      <trkpt lat="45.88912" lon="6.05939">
        <ele>497.39999389648</ele>
        <time>2012-04-09T08:23:20.000Z</time>
      </trkpt>
      <trkpt lat="45.88924" lon="6.05935">
        <ele>496.79998779297</ele>
        <time>2012-04-09T08:23:25.000Z</time>
      </trkpt>
      <trkpt lat="45.88939" lon="6.05932">
        <ele>496.60000610352</ele>
        <time>2012-04-09T08:23:30.000Z</time>
      </trkpt>
      <trkpt lat="45.88959" lon="6.0593">
        <ele>496.20001220703</ele>
        <time>2012-04-09T08:23:35.000Z</time>
      </trkpt>
      <trkpt lat="45.88967" lon="6.05929">
        <ele>496</ele>
        <time>2012-04-09T08:23:37.000Z</time>
      </trkpt>
      <trkpt lat="45.88978" lon="6.05925">
        <ele>495.79998779297</ele>
        <time>2012-04-09T08:23:39.000Z</time>
      </trkpt>
      <trkpt lat="45.88987" lon="6.05914">
        <ele>495.60000610352</ele>
        <time>2012-04-09T08:23:43.000Z</time>
      </trkpt>
      <trkpt lat="45.88993" lon="6.05909">
        <ele>495.79998779297</ele>
        <time>2012-04-09T08:23:47.000Z</time>
      </trkpt>
      <trkpt lat="45.88998" lon="6.05906">
        <ele>496</ele>
        <time>2012-04-09T08:23:51.000Z</time>
      </trkpt>
      <trkpt lat="45.89005" lon="6.05903">
        <ele>495.79998779297</ele>
        <time>2012-04-09T08:23:56.000Z</time>
      </trkpt>
      <trkpt lat="45.89006" lon="6.05902">
        <ele>495.60000610352</ele>
        <time>2012-04-09T08:24:00.000Z</time>
      </trkpt>
      <trkpt lat="45.89012" lon="6.059">
        <ele>495.20001220703</ele>
        <time>2012-04-09T08:24:10.000Z</time>
      </trkpt>
      <trkpt lat="45.89023" lon="6.05892">
        <ele>494.39999389648</ele>
        <time>2012-04-09T08:24:14.000Z</time>
      </trkpt>
      <trkpt lat="45.89033" lon="6.05877">
        <ele>494.20001220703</ele>
        <time>2012-04-09T08:24:19.000Z</time>
      </trkpt>
      <trkpt lat="45.89035" lon="6.05874">
        <ele>494.20001220703</ele>
        <time>2012-04-09T08:24:20.000Z</time>
      </trkpt>
      <trkpt lat="45.89042" lon="6.05854">
        <ele>494.39999389648</ele>
        <time>2012-04-09T08:24:26.000Z</time>
      </trkpt>
      <trkpt lat="45.89046" lon="6.05845">
        <ele>494.39999389648</ele>
        <time>2012-04-09T08:24:29.000Z</time>
      </trkpt>
      <trkpt lat="45.89049" lon="6.05839">
        <ele>494.39999389648</ele>
        <time>2012-04-09T08:24:31.000Z</time>
      </trkpt>
      <trkpt lat="45.89058" lon="6.05828">
        <ele>493.39999389648</ele>
        <time>2012-04-09T08:24:35.000Z</time>
      </trkpt>
      <trkpt lat="45.89065" lon="6.05817">
        <ele>492.20001220703</ele>
        <time>2012-04-09T08:24:39.000Z</time>
      </trkpt>
      <trkpt lat="45.89068" lon="6.058">
        <ele>491.60000610352</ele>
        <time>2012-04-09T08:24:45.000Z</time>
      </trkpt>
      <trkpt lat="45.89073" lon="6.05786">
        <ele>490.79998779297</ele>
        <time>2012-04-09T08:24:50.000Z</time>
      </trkpt>
      <trkpt lat="45.89077" lon="6.05765">
        <ele>490.20001220703</ele>
        <time>2012-04-09T08:24:56.000Z</time>
      </trkpt>
      <trkpt lat="45.89076" lon="6.05741">
        <ele>489.79998779297</ele>
        <time>2012-04-09T08:25:03.000Z</time>
      </trkpt>
      <trkpt lat="45.89068" lon="6.05716">
        <ele>489.20001220703</ele>
        <time>2012-04-09T08:25:11.000Z</time>
      </trkpt>
      <trkpt lat="45.89059" lon="6.05694">
        <ele>489</ele>
        <time>2012-04-09T08:25:18.000Z</time>
      </trkpt>
      <trkpt lat="45.89048" lon="6.0567">
        <ele>488.60000610352</ele>
        <time>2012-04-09T08:25:26.000Z</time>
      </trkpt>
      <trkpt lat="45.89037" lon="6.05647">
        <ele>489.39999389648</ele>
        <time>2012-04-09T08:25:33.000Z</time>
      </trkpt>
      <trkpt lat="45.89027" lon="6.05626">
        <ele>490.20001220703</ele>
        <time>2012-04-09T08:25:40.000Z</time>
      </trkpt>
      <trkpt lat="45.89015" lon="6.05603">
        <ele>490.60000610352</ele>
        <time>2012-04-09T08:25:48.000Z</time>
      </trkpt>
      <trkpt lat="45.89004" lon="6.05579">
        <ele>490.60000610352</ele>
        <time>2012-04-09T08:25:56.000Z</time>
      </trkpt>
      <trkpt lat="45.88993" lon="6.05558">
        <ele>491.39999389648</ele>
        <time>2012-04-09T08:26:03.000Z</time>
      </trkpt>
      <trkpt lat="45.88981" lon="6.05535">
        <ele>492.60000610352</ele>
        <time>2012-04-09T08:26:11.000Z</time>
      </trkpt>
      <trkpt lat="45.8897" lon="6.05514">
        <ele>493.39999389648</ele>
        <time>2012-04-09T08:26:18.000Z</time>
      </trkpt>
      <trkpt lat="45.88959" lon="6.05493">
        <ele>494</ele>
        <time>2012-04-09T08:26:25.000Z</time>
      </trkpt>
      <trkpt lat="45.88947" lon="6.05471">
        <ele>494.39999389648</ele>
        <time>2012-04-09T08:26:33.000Z</time>
      </trkpt>
      <trkpt lat="45.88936" lon="6.05448">
        <ele>493.79998779297</ele>
        <time>2012-04-09T08:26:41.000Z</time>
      </trkpt>
      <trkpt lat="45.88929" lon="6.05421">
        <ele>492</ele>
        <time>2012-04-09T08:26:49.000Z</time>
      </trkpt>
      <trkpt lat="45.88926" lon="6.05393">
        <ele>491.20001220703</ele>
        <time>2012-04-09T08:26:57.000Z</time>
      </trkpt>
      <trkpt lat="45.88924" lon="6.05364">
        <ele>490.60000610352</ele>
        <time>2012-04-09T08:27:05.000Z</time>
      </trkpt>
      <trkpt lat="45.88924" lon="6.05338">
        <ele>490.20001220703</ele>
        <time>2012-04-09T08:27:12.000Z</time>
      </trkpt>
      <trkpt lat="45.88928" lon="6.05312">
        <ele>490.39999389648</ele>
        <time>2012-04-09T08:27:19.000Z</time>
      </trkpt>
      <trkpt lat="45.88935" lon="6.05287">
        <ele>490.79998779297</ele>
        <time>2012-04-09T08:27:26.000Z</time>
      </trkpt>
      <trkpt lat="45.88942" lon="6.05268">
        <ele>491</ele>
        <time>2012-04-09T08:27:32.000Z</time>
      </trkpt>
      <trkpt lat="45.88943" lon="6.05264">
        <ele>491.20001220703</ele>
        <time>2012-04-09T08:27:33.000Z</time>
      </trkpt>
      <trkpt lat="45.88945" lon="6.05256">
        <ele>491.20001220703</ele>
        <time>2012-04-09T08:27:36.000Z</time>
      </trkpt>
      <trkpt lat="45.88947" lon="6.0525">
        <ele>491.39999389648</ele>
        <time>2012-04-09T08:27:43.000Z</time>
      </trkpt>
      <trkpt lat="45.88948" lon="6.05251">
        <ele>491.39999389648</ele>
        <time>2012-04-09T08:27:44.000Z</time>
      </trkpt>
      <trkpt lat="45.88955" lon="6.05258">
        <ele>491.39999389648</ele>
        <time>2012-04-09T08:27:49.000Z</time>
      </trkpt>
      <trkpt lat="45.88957" lon="6.05261">
        <ele>491.39999389648</ele>
        <time>2012-04-09T08:27:51.000Z</time>
      </trkpt>
      <trkpt lat="45.88962" lon="6.0527">
        <ele>491.39999389648</ele>
        <time>2012-04-09T08:27:57.000Z</time>
      </trkpt>
      <trkpt lat="45.88968" lon="6.05275">
        <ele>491.39999389648</ele>
        <time>2012-04-09T08:28:01.000Z</time>
      </trkpt>
      <trkpt lat="45.88972" lon="6.05283">
        <ele>491.20001220703</ele>
        <time>2012-04-09T08:28:05.000Z</time>
      </trkpt>
      <trkpt lat="45.88975" lon="6.05297">
        <ele>491.20001220703</ele>
        <time>2012-04-09T08:28:11.000Z</time>
      </trkpt>
      <trkpt lat="45.8898" lon="6.0531">
        <ele>491</ele>
        <time>2012-04-09T08:28:16.000Z</time>
      </trkpt>
      <trkpt lat="45.88981" lon="6.05312">
        <ele>491</ele>
        <time>2012-04-09T08:28:17.000Z</time>
      </trkpt>
      <trkpt lat="45.8899" lon="6.05328">
        <ele>491</ele>
        <time>2012-04-09T08:28:24.000Z</time>
      </trkpt>
      <trkpt lat="45.88996" lon="6.05335">
        <ele>491</ele>
        <time>2012-04-09T08:28:29.000Z</time>
      </trkpt>
      <trkpt lat="45.88998" lon="6.05336">
        <ele>491</ele>
        <time>2012-04-09T08:28:30.000Z</time>
      </trkpt>
      <trkpt lat="45.89011" lon="6.05344">
        <ele>490.79998779297</ele>
        <time>2012-04-09T08:28:37.000Z</time>
      </trkpt>
      <trkpt lat="45.89018" lon="6.05348">
        <ele>490.60000610352</ele>
        <time>2012-04-09T08:28:41.000Z</time>
      </trkpt>
      <trkpt lat="45.89023" lon="6.05351">
        <ele>490.60000610352</ele>
        <time>2012-04-09T08:28:45.000Z</time>
      </trkpt>
      <trkpt lat="45.89027" lon="6.05354">
        <ele>490.60000610352</ele>
        <time>2012-04-09T08:28:50.000Z</time>
      </trkpt>
      <trkpt lat="45.89028" lon="6.05355">
        <ele>490.39999389648</ele>
        <time>2012-04-09T08:28:51.000Z</time>
      </trkpt>
      <trkpt lat="45.89034" lon="6.05358">
        <ele>490.39999389648</ele>
        <time>2012-04-09T08:28:56.000Z</time>
      </trkpt>
      <trkpt lat="45.89042" lon="6.05361">
        <ele>490.39999389648</ele>
        <time>2012-04-09T08:29:00.000Z</time>
      </trkpt>
      <trkpt lat="45.89054" lon="6.05364">
        <ele>490.20001220703</ele>
        <time>2012-04-09T08:29:05.000Z</time>
      </trkpt>
      <trkpt lat="45.89063" lon="6.05368">
        <ele>490.20001220703</ele>
        <time>2012-04-09T08:29:10.000Z</time>
      </trkpt>
      <trkpt lat="45.8907" lon="6.05378">
        <ele>490</ele>
        <time>2012-04-09T08:29:14.000Z</time>
      </trkpt>
      <trkpt lat="45.89074" lon="6.05381">
        <ele>489.79998779297</ele>
        <time>2012-04-09T08:29:16.000Z</time>
      </trkpt>
      <trkpt lat="45.89086" lon="6.05391">
        <ele>489.60000610352</ele>
        <time>2012-04-09T08:29:21.000Z</time>
      </trkpt>
      <trkpt lat="45.89097" lon="6.05397">
        <ele>489.39999389648</ele>
        <time>2012-04-09T08:29:25.000Z</time>
      </trkpt>
      <trkpt lat="45.891" lon="6.05398">
        <ele>489.20001220703</ele>
        <time>2012-04-09T08:29:26.000Z</time>
      </trkpt>
      <trkpt lat="45.89115" lon="6.05405">
        <ele>488.79998779297</ele>
        <time>2012-04-09T08:29:31.000Z</time>
      </trkpt>
      <trkpt lat="45.89127" lon="6.0541">
        <ele>488.60000610352</ele>
        <time>2012-04-09T08:29:35.000Z</time>
      </trkpt>
      <trkpt lat="45.89141" lon="6.05416">
        <ele>488.39999389648</ele>
        <time>2012-04-09T08:29:39.000Z</time>
      </trkpt>
      <trkpt lat="45.89153" lon="6.05422">
        <ele>488</ele>
        <time>2012-04-09T08:29:44.000Z</time>
      </trkpt>
      <trkpt lat="45.89166" lon="6.05422">
        <ele>487.79998779297</ele>
        <time>2012-04-09T08:29:51.000Z</time>
      </trkpt>
      <trkpt lat="45.89168" lon="6.05421">
        <ele>487.79998779297</ele>
        <time>2012-04-09T08:29:52.000Z</time>
      </trkpt>
      <trkpt lat="45.89182" lon="6.05422">
        <ele>487</ele>
        <time>2012-04-09T08:29:57.000Z</time>
      </trkpt>
      <trkpt lat="45.89188" lon="6.05423">
        <ele>486.60000610352</ele>
        <time>2012-04-09T08:29:59.000Z</time>
      </trkpt>
      <trkpt lat="45.89202" lon="6.05422">
        <ele>486</ele>
        <time>2012-04-09T08:30:04.000Z</time>
      </trkpt>
      <trkpt lat="45.89218" lon="6.0542">
        <ele>485.39999389648</ele>
        <time>2012-04-09T08:30:09.000Z</time>
      </trkpt>
      <trkpt lat="45.89226" lon="6.0542">
        <ele>485</ele>
        <time>2012-04-09T08:30:12.000Z</time>
      </trkpt>
      <trkpt lat="45.89237" lon="6.05422">
        <ele>484.39999389648</ele>
        <time>2012-04-09T08:30:18.000Z</time>
      </trkpt>
      <trkpt lat="45.89243" lon="6.05423">
        <ele>484.20001220703</ele>
        <time>2012-04-09T08:30:20.000Z</time>
      </trkpt>
      <trkpt lat="45.89259" lon="6.05427">
        <ele>482.39999389648</ele>
        <time>2012-04-09T08:30:25.000Z</time>
      </trkpt>
      <trkpt lat="45.89274" lon="6.05429">
        <ele>480.20001220703</ele>
        <time>2012-04-09T08:30:31.000Z</time>
      </trkpt>
      <trkpt lat="45.89276" lon="6.05429">
        <ele>480</ele>
        <time>2012-04-09T08:30:32.000Z</time>
      </trkpt>
      <trkpt lat="45.89285" lon="6.05422">
        <ele>479</ele>
        <time>2012-04-09T08:30:37.000Z</time>
      </trkpt>
      <trkpt lat="45.89292" lon="6.05411">
        <ele>478.60000610352</ele>
        <time>2012-04-09T08:30:41.000Z</time>
      </trkpt>
      <trkpt lat="45.89297" lon="6.05392">
        <ele>477.79998779297</ele>
        <time>2012-04-09T08:30:47.000Z</time>
      </trkpt>
      <trkpt lat="45.89297" lon="6.05376">
        <ele>477.79998779297</ele>
        <time>2012-04-09T08:30:52.000Z</time>
      </trkpt>
      <trkpt lat="45.89299" lon="6.05361">
        <ele>477.79998779297</ele>
        <time>2012-04-09T08:30:56.000Z</time>
      </trkpt>
      <trkpt lat="45.89299" lon="6.05353">
        <ele>477.79998779297</ele>
        <time>2012-04-09T08:30:58.000Z</time>
      </trkpt>
      <trkpt lat="45.89299" lon="6.05349">
        <ele>477.79998779297</ele>
        <time>2012-04-09T08:30:59.000Z</time>
      </trkpt>
      <trkpt lat="45.89301" lon="6.05327">
        <ele>477.79998779297</ele>
        <time>2012-04-09T08:31:05.000Z</time>
      </trkpt>
      <trkpt lat="45.89302" lon="6.05316">
        <ele>478</ele>
        <time>2012-04-09T08:31:08.000Z</time>
      </trkpt>
      <trkpt lat="45.89312" lon="6.05295">
        <ele>477.60000610352</ele>
        <time>2012-04-09T08:31:14.000Z</time>
      </trkpt>
      <trkpt lat="45.89315" lon="6.05284">
        <ele>477.60000610352</ele>
        <time>2012-04-09T08:31:17.000Z</time>
      </trkpt>
      <trkpt lat="45.89316" lon="6.05277">
        <ele>477.60000610352</ele>
        <time>2012-04-09T08:31:19.000Z</time>
      </trkpt>
      <trkpt lat="45.89319" lon="6.05255">
        <ele>478</ele>
        <time>2012-04-09T08:31:24.000Z</time>
      </trkpt>
      <trkpt lat="45.89319" lon="6.05244">
        <ele>477.79998779297</ele>
        <time>2012-04-09T08:31:27.000Z</time>
      </trkpt>
      <trkpt lat="45.89313" lon="6.05234">
        <ele>477.79998779297</ele>
        <time>2012-04-09T08:31:31.000Z</time>
      </trkpt>
      <trkpt lat="45.89296" lon="6.05228">
        <ele>478.79998779297</ele>
        <time>2012-04-09T08:31:39.000Z</time>
      </trkpt>
      <trkpt lat="45.89283" lon="6.05222">
        <ele>479.60000610352</ele>
        <time>2012-04-09T08:31:45.000Z</time>
      </trkpt>
      <trkpt lat="45.8926" lon="6.05203">
        <ele>481</ele>
        <time>2012-04-09T08:31:56.000Z</time>
      </trkpt>
      <trkpt lat="45.89246" lon="6.05193">
        <ele>482</ele>
        <time>2012-04-09T08:32:02.000Z</time>
      </trkpt>
      <trkpt lat="45.89242" lon="6.05193">
        <ele>482.20001220703</ele>
        <time>2012-04-09T08:32:04.000Z</time>
      </trkpt>
      <trkpt lat="45.89224" lon="6.05184">
        <ele>483.20001220703</ele>
        <time>2012-04-09T08:32:12.000Z</time>
      </trkpt>
      <trkpt lat="45.89211" lon="6.05176">
        <ele>484</ele>
        <time>2012-04-09T08:32:18.000Z</time>
      </trkpt>
      <trkpt lat="45.89198" lon="6.0517">
        <ele>484.79998779297</ele>
        <time>2012-04-09T08:32:24.000Z</time>
      </trkpt>
      <trkpt lat="45.89187" lon="6.05165">
        <ele>485.60000610352</ele>
        <time>2012-04-09T08:32:29.000Z</time>
      </trkpt>
      <trkpt lat="45.89172" lon="6.05158">
        <ele>486.20001220703</ele>
        <time>2012-04-09T08:32:35.000Z</time>
      </trkpt>
      <trkpt lat="45.89156" lon="6.05146">
        <ele>486.79998779297</ele>
        <time>2012-04-09T08:32:42.000Z</time>
      </trkpt>
      <trkpt lat="45.89139" lon="6.0514">
        <ele>487.60000610352</ele>
        <time>2012-04-09T08:32:49.000Z</time>
      </trkpt>
      <trkpt lat="45.89123" lon="6.05132">
        <ele>488.60000610352</ele>
        <time>2012-04-09T08:32:56.000Z</time>
      </trkpt>
      <trkpt lat="45.89109" lon="6.05124">
        <ele>489.39999389648</ele>
        <time>2012-04-09T08:33:02.000Z</time>
      </trkpt>
      <trkpt lat="45.89091" lon="6.05115">
        <ele>490.39999389648</ele>
        <time>2012-04-09T08:33:09.000Z</time>
      </trkpt>
      <trkpt lat="45.89078" lon="6.05108">
        <ele>491.20001220703</ele>
        <time>2012-04-09T08:33:14.000Z</time>
      </trkpt>
      <trkpt lat="45.89065" lon="6.05098">
        <ele>491.39999389648</ele>
        <time>2012-04-09T08:33:20.000Z</time>
      </trkpt>
      <trkpt lat="45.8905" lon="6.05081">
        <ele>491.79998779297</ele>
        <time>2012-04-09T08:33:27.000Z</time>
      </trkpt>
      <trkpt lat="45.89035" lon="6.05062">
        <ele>492</ele>
        <time>2012-04-09T08:33:34.000Z</time>
      </trkpt>
      <trkpt lat="45.89023" lon="6.05051">
        <ele>492.39999389648</ele>
        <time>2012-04-09T08:33:40.000Z</time>
      </trkpt>
      <trkpt lat="45.89009" lon="6.05036">
        <ele>492.79998779297</ele>
        <time>2012-04-09T08:33:47.000Z</time>
      </trkpt>
      <trkpt lat="45.89003" lon="6.05027">
        <ele>492.79998779297</ele>
        <time>2012-04-09T08:33:54.000Z</time>
      </trkpt>
      <trkpt lat="45.88991" lon="6.05012">
        <ele>493.20001220703</ele>
        <time>2012-04-09T08:38:05.000Z</time>
      </trkpt>
      <trkpt lat="45.88991" lon="6.05007">
        <ele>493.20001220703</ele>
        <time>2012-04-09T08:39:20.000Z</time>
      </trkpt>
      <trkpt lat="45.88988" lon="6.05004">
        <ele>493.39999389648</ele>
        <time>2012-04-09T08:40:02.000Z</time>
      </trkpt>
      <trkpt lat="45.8898" lon="6.04995">
        <ele>493.79998779297</ele>
        <time>2012-04-09T08:40:08.000Z</time>
      </trkpt>
      <trkpt lat="45.88972" lon="6.04981">
        <ele>494</ele>
        <time>2012-04-09T08:40:14.000Z</time>
      </trkpt>
      <trkpt lat="45.88966" lon="6.0496">
        <ele>494</ele>
        <time>2012-04-09T08:40:21.000Z</time>
      </trkpt>
      <trkpt lat="45.88959" lon="6.04935">
        <ele>494</ele>
        <time>2012-04-09T08:40:29.000Z</time>
      </trkpt>
      <trkpt lat="45.88953" lon="6.04912">
        <ele>494</ele>
        <time>2012-04-09T08:40:36.000Z</time>
      </trkpt>
      <trkpt lat="45.88949" lon="6.04886">
        <ele>493.39999389648</ele>
        <time>2012-04-09T08:40:43.000Z</time>
      </trkpt>
      <trkpt lat="45.88948" lon="6.0486">
        <ele>492.79998779297</ele>
        <time>2012-04-09T08:40:49.000Z</time>
      </trkpt>
      <trkpt lat="45.88951" lon="6.04831">
        <ele>492</ele>
        <time>2012-04-09T08:40:55.000Z</time>
      </trkpt>
      <trkpt lat="45.88953" lon="6.04803">
        <ele>492.20001220703</ele>
        <time>2012-04-09T08:41:01.000Z</time>
      </trkpt>
      <trkpt lat="45.88956" lon="6.04774">
        <ele>492.39999389648</ele>
        <time>2012-04-09T08:41:07.000Z</time>
      </trkpt>
      <trkpt lat="45.88959" lon="6.04745">
        <ele>492.60000610352</ele>
        <time>2012-04-09T08:41:13.000Z</time>
      </trkpt>
      <trkpt lat="45.88958" lon="6.04717">
        <ele>493.39999389648</ele>
        <time>2012-04-09T08:41:19.000Z</time>
      </trkpt>
      <trkpt lat="45.88954" lon="6.04689">
        <ele>494.39999389648</ele>
        <time>2012-04-09T08:41:25.000Z</time>
      </trkpt>
      <trkpt lat="45.88954" lon="6.04659">
        <ele>495</ele>
        <time>2012-04-09T08:41:31.000Z</time>
      </trkpt>
      <trkpt lat="45.88953" lon="6.04629">
        <ele>495.79998779297</ele>
        <time>2012-04-09T08:41:37.000Z</time>
      </trkpt>
      <trkpt lat="45.8895" lon="6.04601">
        <ele>496.60000610352</ele>
        <time>2012-04-09T08:41:43.000Z</time>
      </trkpt>
      <trkpt lat="45.88947" lon="6.04573">
        <ele>497.39999389648</ele>
        <time>2012-04-09T08:41:50.000Z</time>
      </trkpt>
      <trkpt lat="45.88951" lon="6.04553">
        <ele>497.39999389648</ele>
        <time>2012-04-09T08:41:55.000Z</time>
      </trkpt>
      <trkpt lat="45.88959" lon="6.04526">
        <ele>497.39999389648</ele>
        <time>2012-04-09T08:42:01.000Z</time>
      </trkpt>
      <trkpt lat="45.88958" lon="6.04501">
        <ele>498</ele>
        <time>2012-04-09T08:42:06.000Z</time>
      </trkpt>
      <trkpt lat="45.8895" lon="6.04475">
        <ele>498.79998779297</ele>
        <time>2012-04-09T08:42:12.000Z</time>
      </trkpt>
      <trkpt lat="45.88947" lon="6.04462">
        <ele>499.20001220703</ele>
        <time>2012-04-09T08:42:18.000Z</time>
      </trkpt>
      <trkpt lat="45.88945" lon="6.04458">
        <ele>499.20001220703</ele>
        <time>2012-04-09T08:42:25.000Z</time>
      </trkpt>
      <trkpt lat="45.88943" lon="6.04449">
        <ele>499.60000610352</ele>
        <time>2012-04-09T08:42:40.000Z</time>
      </trkpt>
      <trkpt lat="45.88935" lon="6.04424">
        <ele>500.60000610352</ele>
        <time>2012-04-09T08:42:46.000Z</time>
      </trkpt>
      <trkpt lat="45.8893" lon="6.04398">
        <ele>501.20001220703</ele>
        <time>2012-04-09T08:42:52.000Z</time>
      </trkpt>
      <trkpt lat="45.88926" lon="6.04372">
        <ele>502</ele>
        <time>2012-04-09T08:42:58.000Z</time>
      </trkpt>
      <trkpt lat="45.88924" lon="6.04346">
        <ele>502.39999389648</ele>
        <time>2012-04-09T08:43:04.000Z</time>
      </trkpt>
      <trkpt lat="45.88928" lon="6.04328">
        <ele>502.39999389648</ele>
        <time>2012-04-09T08:43:09.000Z</time>
      </trkpt>
      <trkpt lat="45.88933" lon="6.04308">
        <ele>502.20001220703</ele>
        <time>2012-04-09T08:43:15.000Z</time>
      </trkpt>
      <trkpt lat="45.88941" lon="6.04284">
        <ele>501.79998779297</ele>
        <time>2012-04-09T08:43:22.000Z</time>
      </trkpt>
      <trkpt lat="45.88946" lon="6.04259">
        <ele>501.79998779297</ele>
        <time>2012-04-09T08:43:29.000Z</time>
      </trkpt>
      <trkpt lat="45.88944" lon="6.04237">
        <ele>502.20001220703</ele>
        <time>2012-04-09T08:43:35.000Z</time>
      </trkpt>
      <trkpt lat="45.88935" lon="6.04223">
        <ele>502.39999389648</ele>
        <time>2012-04-09T08:43:40.000Z</time>
      </trkpt>
      <trkpt lat="45.88918" lon="6.04211">
        <ele>503</ele>
        <time>2012-04-09T08:43:47.000Z</time>
      </trkpt>
      <trkpt lat="45.88904" lon="6.04198">
        <ele>503.39999389648</ele>
        <time>2012-04-09T08:43:54.000Z</time>
      </trkpt>
      <trkpt lat="45.88908" lon="6.04188">
        <ele>503.20001220703</ele>
        <time>2012-04-09T08:43:58.000Z</time>
      </trkpt>
      <trkpt lat="45.8891" lon="6.04188">
        <ele>503.20001220703</ele>
        <time>2012-04-09T08:43:59.000Z</time>
      </trkpt>
      <trkpt lat="45.88922" lon="6.04187">
        <ele>502.79998779297</ele>
        <time>2012-04-09T08:44:04.000Z</time>
      </trkpt>
      <trkpt lat="45.8894" lon="6.04189">
        <ele>502.60000610352</ele>
        <time>2012-04-09T08:44:10.000Z</time>
      </trkpt>
      <trkpt lat="45.88959" lon="6.04192">
        <ele>502.20001220703</ele>
        <time>2012-04-09T08:44:16.000Z</time>
      </trkpt>
      <trkpt lat="45.88979" lon="6.04197">
        <ele>501.79998779297</ele>
        <time>2012-04-09T08:44:22.000Z</time>
      </trkpt>
      <trkpt lat="45.88996" lon="6.04201">
        <ele>501.20001220703</ele>
        <time>2012-04-09T08:44:28.000Z</time>
      </trkpt>
      <trkpt lat="45.8901" lon="6.04205">
        <ele>500.60000610352</ele>
        <time>2012-04-09T08:44:34.000Z</time>
      </trkpt>
      <trkpt lat="45.89029" lon="6.04209">
        <ele>499.60000610352</ele>
        <time>2012-04-09T08:44:40.000Z</time>
      </trkpt>
      <trkpt lat="45.89041" lon="6.04212">
        <ele>499</ele>
        <time>2012-04-09T08:44:45.000Z</time>
      </trkpt>
      <trkpt lat="45.89058" lon="6.04216">
        <ele>498</ele>
        <time>2012-04-09T08:44:52.000Z</time>
      </trkpt>
      <trkpt lat="45.89077" lon="6.04221">
        <ele>496.60000610352</ele>
        <time>2012-04-09T08:44:58.000Z</time>
      </trkpt>
      <trkpt lat="45.89095" lon="6.04228">
        <ele>495.79998779297</ele>
        <time>2012-04-09T08:45:05.000Z</time>
      </trkpt>
      <trkpt lat="45.89104" lon="6.04232">
        <ele>495.60000610352</ele>
        <time>2012-04-09T08:45:08.000Z</time>
      </trkpt>
      <trkpt lat="45.89121" lon="6.04241">
        <ele>494.79998779297</ele>
        <time>2012-04-09T08:45:14.000Z</time>
      </trkpt>
      <trkpt lat="45.89139" lon="6.0425">
        <ele>494.39999389648</ele>
        <time>2012-04-09T08:45:20.000Z</time>
      </trkpt>
      <trkpt lat="45.89155" lon="6.04258">
        <ele>493.79998779297</ele>
        <time>2012-04-09T08:45:26.000Z</time>
      </trkpt>
      <trkpt lat="45.89173" lon="6.04266">
        <ele>493.20001220703</ele>
        <time>2012-04-09T08:45:32.000Z</time>
      </trkpt>
      <trkpt lat="45.89192" lon="6.04265">
        <ele>492.79998779297</ele>
        <time>2012-04-09T08:45:38.000Z</time>
      </trkpt>
      <trkpt lat="45.89208" lon="6.04253">
        <ele>492.79998779297</ele>
        <time>2012-04-09T08:45:44.000Z</time>
      </trkpt>
      <trkpt lat="45.89224" lon="6.04236">
        <ele>493</ele>
        <time>2012-04-09T08:45:50.000Z</time>
      </trkpt>
      <trkpt lat="45.89239" lon="6.04219">
        <ele>493</ele>
        <time>2012-04-09T08:45:56.000Z</time>
      </trkpt>
      <trkpt lat="45.89253" lon="6.04202">
        <ele>492.60000610352</ele>
        <time>2012-04-09T08:46:02.000Z</time>
      </trkpt>
      <trkpt lat="45.89268" lon="6.04185">
        <ele>490.60000610352</ele>
        <time>2012-04-09T08:46:08.000Z</time>
      </trkpt>
      <trkpt lat="45.89279" lon="6.04171">
        <ele>489.39999389648</ele>
        <time>2012-04-09T08:46:14.000Z</time>
      </trkpt>
      <trkpt lat="45.89289" lon="6.04156">
        <ele>487.79998779297</ele>
        <time>2012-04-09T08:46:19.000Z</time>
      </trkpt>
      <trkpt lat="45.89298" lon="6.0414">
        <ele>486.60000610352</ele>
        <time>2012-04-09T08:46:24.000Z</time>
      </trkpt>
      <trkpt lat="45.8931" lon="6.04115">
        <ele>484.60000610352</ele>
        <time>2012-04-09T08:46:30.000Z</time>
      </trkpt>
      <trkpt lat="45.89319" lon="6.04098">
        <ele>483.20001220703</ele>
        <time>2012-04-09T08:46:35.000Z</time>
      </trkpt>
      <trkpt lat="45.8933" lon="6.04077">
        <ele>481.20001220703</ele>
        <time>2012-04-09T08:46:41.000Z</time>
      </trkpt>
      <trkpt lat="45.89343" lon="6.04058">
        <ele>479.39999389648</ele>
        <time>2012-04-09T08:46:47.000Z</time>
      </trkpt>
      <trkpt lat="45.89356" lon="6.04037">
        <ele>478.20001220703</ele>
        <time>2012-04-09T08:46:53.000Z</time>
      </trkpt>
      <trkpt lat="45.8937" lon="6.04014">
        <ele>477.39999389648</ele>
        <time>2012-04-09T08:47:00.000Z</time>
      </trkpt>
      <trkpt lat="45.89377" lon="6.03991">
        <ele>476.60000610352</ele>
        <time>2012-04-09T08:47:06.000Z</time>
      </trkpt>
      <trkpt lat="45.89378" lon="6.03983">
        <ele>475.79998779297</ele>
        <time>2012-04-09T08:47:08.000Z</time>
      </trkpt>
      <trkpt lat="45.89376" lon="6.03962">
        <ele>473.79998779297</ele>
        <time>2012-04-09T08:47:15.000Z</time>
      </trkpt>
      <trkpt lat="45.89369" lon="6.03947">
        <ele>472.39999389648</ele>
        <time>2012-04-09T08:47:20.000Z</time>
      </trkpt>
      <trkpt lat="45.89367" lon="6.03937">
        <ele>471.60000610352</ele>
        <time>2012-04-09T08:47:22.000Z</time>
      </trkpt>
      <trkpt lat="45.89378" lon="6.03918">
        <ele>469.60000610352</ele>
        <time>2012-04-09T08:47:26.000Z</time>
      </trkpt>
      <trkpt lat="45.89389" lon="6.0392">
        <ele>469.60000610352</ele>
        <time>2012-04-09T08:47:30.000Z</time>
      </trkpt>
      <trkpt lat="45.89399" lon="6.03932">
        <ele>470.60000610352</ele>
        <time>2012-04-09T08:47:34.000Z</time>
      </trkpt>
      <trkpt lat="45.894" lon="6.03934">
        <ele>470.79998779297</ele>
        <time>2012-04-09T08:47:35.000Z</time>
      </trkpt>
      <trkpt lat="45.89404" lon="6.03943">
        <ele>471.60000610352</ele>
        <time>2012-04-09T08:47:37.000Z</time>
      </trkpt>
      <trkpt lat="45.89408" lon="6.03962">
        <ele>473.39999389648</ele>
        <time>2012-04-09T08:47:42.000Z</time>
      </trkpt>
      <trkpt lat="45.89412" lon="6.03978">
        <ele>475</ele>
        <time>2012-04-09T08:47:46.000Z</time>
      </trkpt>
      <trkpt lat="45.89418" lon="6.03992">
        <ele>475.60000610352</ele>
        <time>2012-04-09T08:47:50.000Z</time>
      </trkpt>
      <trkpt lat="45.89425" lon="6.04006">
        <ele>473.79998779297</ele>
        <time>2012-04-09T08:47:55.000Z</time>
      </trkpt>
      <trkpt lat="45.89427" lon="6.0401">
        <ele>472.79998779297</ele>
        <time>2012-04-09T08:47:56.000Z</time>
      </trkpt>
      <trkpt lat="45.89434" lon="6.04022">
        <ele>470</ele>
        <time>2012-04-09T08:47:59.000Z</time>
      </trkpt>
      <trkpt lat="45.89444" lon="6.04044">
        <ele>466</ele>
        <time>2012-04-09T08:48:05.000Z</time>
      </trkpt>
      <trkpt lat="45.89446" lon="6.04064">
        <ele>464.60000610352</ele>
        <time>2012-04-09T08:48:10.000Z</time>
      </trkpt>
      <trkpt lat="45.89446" lon="6.04076">
        <ele>464.20001220703</ele>
        <time>2012-04-09T08:48:13.000Z</time>
      </trkpt>
      <trkpt lat="45.89438" lon="6.04098">
        <ele>463.60000610352</ele>
        <time>2012-04-09T08:48:18.000Z</time>
      </trkpt>
      <trkpt lat="45.89436" lon="6.04102">
        <ele>463.60000610352</ele>
        <time>2012-04-09T08:48:19.000Z</time>
      </trkpt>
      <trkpt lat="45.89426" lon="6.04121">
        <ele>463</ele>
        <time>2012-04-09T08:48:24.000Z</time>
      </trkpt>
      <trkpt lat="45.89424" lon="6.04127">
        <ele>462.20001220703</ele>
        <time>2012-04-09T08:48:25.000Z</time>
      </trkpt>
      <trkpt lat="45.89432" lon="6.04144">
        <ele>457.60000610352</ele>
        <time>2012-04-09T08:48:28.000Z</time>
      </trkpt>
      <trkpt lat="45.8944" lon="6.04146">
        <ele>455.39999389648</ele>
        <time>2012-04-09T08:48:30.000Z</time>
      </trkpt>
      <trkpt lat="45.89467" lon="6.04123">
        <ele>452.20001220703</ele>
        <time>2012-04-09T08:48:38.000Z</time>
      </trkpt>
      <trkpt lat="45.89471" lon="6.04123">
        <ele>451.60000610352</ele>
        <time>2012-04-09T08:48:39.000Z</time>
      </trkpt>
      <trkpt lat="45.89491" lon="6.04112">
        <ele>447.79998779297</ele>
        <time>2012-04-09T08:48:44.000Z</time>
      </trkpt>
      <trkpt lat="45.89496" lon="6.0411">
        <ele>446.79998779297</ele>
        <time>2012-04-09T08:48:45.000Z</time>
      </trkpt>
      <trkpt lat="45.89512" lon="6.04098">
        <ele>441.39999389648</ele>
        <time>2012-04-09T08:48:49.000Z</time>
      </trkpt>
      <trkpt lat="45.89527" lon="6.04069">
        <ele>433.60000610352</ele>
        <time>2012-04-09T08:48:55.000Z</time>
      </trkpt>
      <trkpt lat="45.89529" lon="6.04063">
        <ele>432.39999389648</ele>
        <time>2012-04-09T08:48:56.000Z</time>
      </trkpt>
      <trkpt lat="45.8953" lon="6.0404">
        <ele>430.60000610352</ele>
        <time>2012-04-09T08:49:00.000Z</time>
      </trkpt>
      <trkpt lat="45.89528" lon="6.04007">
        <ele>430.20001220703</ele>
        <time>2012-04-09T08:49:06.000Z</time>
      </trkpt>
      <trkpt lat="45.89525" lon="6.03981">
        <ele>429.60000610352</ele>
        <time>2012-04-09T08:49:11.000Z</time>
      </trkpt>
      <trkpt lat="45.89521" lon="6.03953">
        <ele>428</ele>
        <time>2012-04-09T08:49:16.000Z</time>
      </trkpt>
      <trkpt lat="45.89516" lon="6.03927">
        <ele>426.20001220703</ele>
        <time>2012-04-09T08:49:21.000Z</time>
      </trkpt>
      <trkpt lat="45.89512" lon="6.03902">
        <ele>426.39999389648</ele>
        <time>2012-04-09T08:49:26.000Z</time>
      </trkpt>
      <trkpt lat="45.89507" lon="6.0388">
        <ele>427.39999389648</ele>
        <time>2012-04-09T08:49:30.000Z</time>
      </trkpt>
      <trkpt lat="45.89503" lon="6.03861">
        <ele>428.39999389648</ele>
        <time>2012-04-09T08:49:34.000Z</time>
      </trkpt>
      <trkpt lat="45.89502" lon="6.0385">
        <ele>428</ele>
        <time>2012-04-09T08:49:36.000Z</time>
      </trkpt>
      <trkpt lat="45.895" lon="6.03822">
        <ele>427.60000610352</ele>
        <time>2012-04-09T08:49:41.000Z</time>
      </trkpt>
      <trkpt lat="45.89497" lon="6.03802">
        <ele>427.60000610352</ele>
        <time>2012-04-09T08:49:44.000Z</time>
      </trkpt>
      <trkpt lat="45.89489" lon="6.03772">
        <ele>428</ele>
        <time>2012-04-09T08:49:48.000Z</time>
      </trkpt>
      <trkpt lat="45.89487" lon="6.03754">
        <ele>427.20001220703</ele>
        <time>2012-04-09T08:49:50.000Z</time>
      </trkpt>
      <trkpt lat="45.89488" lon="6.03734">
        <ele>423</ele>
        <time>2012-04-09T08:49:52.000Z</time>
      </trkpt>
      <trkpt lat="45.89509" lon="6.03703">
        <ele>412.39999389648</ele>
        <time>2012-04-09T08:49:56.000Z</time>
      </trkpt>
      <trkpt lat="45.89514" lon="6.03701">
        <ele>411.60000610352</ele>
        <time>2012-04-09T08:49:57.000Z</time>
      </trkpt>
      <trkpt lat="45.89522" lon="6.037">
        <ele>410.39999389648</ele>
        <time>2012-04-09T08:49:59.000Z</time>
      </trkpt>
      <trkpt lat="45.8953" lon="6.03698">
        <ele>409.39999389648</ele>
        <time>2012-04-09T08:50:01.000Z</time>
      </trkpt>
      <trkpt lat="45.89541" lon="6.03691">
        <ele>407.60000610352</ele>
        <time>2012-04-09T08:50:05.000Z</time>
      </trkpt>
      <trkpt lat="45.89545" lon="6.03687">
        <ele>406.60000610352</ele>
        <time>2012-04-09T08:50:08.000Z</time>
      </trkpt>
      <trkpt lat="45.89543" lon="6.0368">
        <ele>405.79998779297</ele>
        <time>2012-04-09T08:50:13.000Z</time>
      </trkpt>
      <trkpt lat="45.89541" lon="6.03679">
        <ele>405.79998779297</ele>
        <time>2012-04-09T08:50:24.000Z</time>
      </trkpt>
      <trkpt lat="45.89529" lon="6.03677">
        <ele>405.79998779297</ele>
        <time>2012-04-09T08:51:15.000Z</time>
      </trkpt>
      <trkpt lat="45.89527" lon="6.03677">
        <ele>405.79998779297</ele>
        <time>2012-04-09T08:51:18.000Z</time>
      </trkpt>
      <trkpt lat="45.89525" lon="6.03676">
        <ele>405.79998779297</ele>
        <time>2012-04-09T08:51:26.000Z</time>
      </trkpt>
      <trkpt lat="45.89516" lon="6.03676">
        <ele>406</ele>
        <time>2012-04-09T08:51:53.000Z</time>
      </trkpt>
      <trkpt lat="45.89498" lon="6.03675">
        <ele>406.39999389648</ele>
        <time>2012-04-09T08:51:59.000Z</time>
      </trkpt>
      <trkpt lat="45.89485" lon="6.03676">
        <ele>409.39999389648</ele>
        <time>2012-04-09T08:52:04.000Z</time>
      </trkpt>
      <trkpt lat="45.89482" lon="6.03673">
        <ele>409.39999389648</ele>
        <time>2012-04-09T08:52:05.000Z</time>
      </trkpt>
      <trkpt lat="45.89481" lon="6.03659">
        <ele>406.39999389648</ele>
        <time>2012-04-09T08:52:08.000Z</time>
      </trkpt>
      <trkpt lat="45.89481" lon="6.03655">
        <ele>405.39999389648</ele>
        <time>2012-04-09T08:52:09.000Z</time>
      </trkpt>
      <trkpt lat="45.89475" lon="6.03642">
        <ele>403.20001220703</ele>
        <time>2012-04-09T08:52:13.000Z</time>
      </trkpt>
      <trkpt lat="45.89471" lon="6.03637">
        <ele>402.79998779297</ele>
        <time>2012-04-09T08:52:15.000Z</time>
      </trkpt>
      <trkpt lat="45.89458" lon="6.03622">
        <ele>400.79998779297</ele>
        <time>2012-04-09T08:52:20.000Z</time>
      </trkpt>
      <trkpt lat="45.89444" lon="6.03604">
        <ele>397.39999389648</ele>
        <time>2012-04-09T08:52:26.000Z</time>
      </trkpt>
      <trkpt lat="45.89434" lon="6.03586">
        <ele>392.60000610352</ele>
        <time>2012-04-09T08:52:31.000Z</time>
      </trkpt>
      <trkpt lat="45.89421" lon="6.03575">
        <ele>390.79998779297</ele>
        <time>2012-04-09T08:52:36.000Z</time>
      </trkpt>
      <trkpt lat="45.89409" lon="6.0357">
        <ele>392</ele>
        <time>2012-04-09T08:52:40.000Z</time>
      </trkpt>
      <trkpt lat="45.89406" lon="6.03567">
        <ele>392</ele>
        <time>2012-04-09T08:52:41.000Z</time>
      </trkpt>
      <trkpt lat="45.89397" lon="6.03548">
        <ele>389.79998779297</ele>
        <time>2012-04-09T08:52:46.000Z</time>
      </trkpt>
      <trkpt lat="45.89382" lon="6.03535">
        <ele>389.60000610352</ele>
        <time>2012-04-09T08:52:52.000Z</time>
      </trkpt>
      <trkpt lat="45.89367" lon="6.03531">
        <ele>391.79998779297</ele>
        <time>2012-04-09T08:52:57.000Z</time>
      </trkpt>
      <trkpt lat="45.89356" lon="6.03525">
        <ele>392.39999389648</ele>
        <time>2012-04-09T08:53:01.000Z</time>
      </trkpt>
      <trkpt lat="45.89344" lon="6.03512">
        <ele>391</ele>
        <time>2012-04-09T08:53:06.000Z</time>
      </trkpt>
      <trkpt lat="45.89337" lon="6.03501">
        <ele>388.79998779297</ele>
        <time>2012-04-09T08:53:10.000Z</time>
      </trkpt>
      <trkpt lat="45.89332" lon="6.03482">
        <ele>387</ele>
        <time>2012-04-09T08:53:15.000Z</time>
      </trkpt>
      <trkpt lat="45.89333" lon="6.0346">
        <ele>383.60000610352</ele>
        <time>2012-04-09T08:53:19.000Z</time>
      </trkpt>
      <trkpt lat="45.89335" lon="6.0344">
        <ele>380.20001220703</ele>
        <time>2012-04-09T08:53:24.000Z</time>
      </trkpt>
      <trkpt lat="45.89335" lon="6.03421">
        <ele>377.60000610352</ele>
        <time>2012-04-09T08:53:29.000Z</time>
      </trkpt>
      <trkpt lat="45.89331" lon="6.03399">
        <ele>377.39999389648</ele>
        <time>2012-04-09T08:53:35.000Z</time>
      </trkpt>
      <trkpt lat="45.89327" lon="6.03388">
        <ele>378.39999389648</ele>
        <time>2012-04-09T08:53:38.000Z</time>
      </trkpt>
      <trkpt lat="45.89327" lon="6.03362">
        <ele>377.20001220703</ele>
        <time>2012-04-09T08:53:45.000Z</time>
      </trkpt>
      <trkpt lat="45.89325" lon="6.03339">
        <ele>376.39999389648</ele>
        <time>2012-04-09T08:53:52.000Z</time>
      </trkpt>
      <trkpt lat="45.89323" lon="6.03328">
        <ele>377.20001220703</ele>
        <time>2012-04-09T08:53:55.000Z</time>
      </trkpt>
      <trkpt lat="45.89322" lon="6.03311">
        <ele>378.20001220703</ele>
        <time>2012-04-09T08:54:00.000Z</time>
      </trkpt>
      <trkpt lat="45.89321" lon="6.03308">
        <ele>378.39999389648</ele>
        <time>2012-04-09T08:54:01.000Z</time>
      </trkpt>
      <trkpt lat="45.89317" lon="6.03285">
        <ele>380</ele>
        <time>2012-04-09T08:54:08.000Z</time>
      </trkpt>
      <trkpt lat="45.89317" lon="6.03282">
        <ele>380.39999389648</ele>
        <time>2012-04-09T08:54:09.000Z</time>
      </trkpt>
      <trkpt lat="45.89316" lon="6.0327">
        <ele>380.79998779297</ele>
        <time>2012-04-09T08:54:13.000Z</time>
      </trkpt>
      <trkpt lat="45.89316" lon="6.0326">
        <ele>380.79998779297</ele>
        <time>2012-04-09T08:54:16.000Z</time>
      </trkpt>
      <trkpt lat="45.89316" lon="6.03254">
        <ele>381</ele>
        <time>2012-04-09T08:54:18.000Z</time>
      </trkpt>
      <trkpt lat="45.89319" lon="6.03234">
        <ele>380.39999389648</ele>
        <time>2012-04-09T08:54:25.000Z</time>
      </trkpt>
      <trkpt lat="45.89317" lon="6.03221">
        <ele>381</ele>
        <time>2012-04-09T08:54:31.000Z</time>
      </trkpt>
      <trkpt lat="45.89313" lon="6.03208">
        <ele>382</ele>
        <time>2012-04-09T08:54:37.000Z</time>
      </trkpt>
      <trkpt lat="45.89312" lon="6.03193">
        <ele>382.39999389648</ele>
        <time>2012-04-09T08:54:43.000Z</time>
      </trkpt>
      <trkpt lat="45.89312" lon="6.03191">
        <ele>382.39999389648</ele>
        <time>2012-04-09T08:54:44.000Z</time>
      </trkpt>
      <trkpt lat="45.89305" lon="6.03168">
        <ele>383.79998779297</ele>
        <time>2012-04-09T08:54:53.000Z</time>
      </trkpt>
      <trkpt lat="45.89303" lon="6.03164">
        <ele>384.20001220703</ele>
        <time>2012-04-09T08:54:55.000Z</time>
      </trkpt>
      <trkpt lat="45.89302" lon="6.03148">
        <ele>384.39999389648</ele>
        <time>2012-04-09T08:55:01.000Z</time>
      </trkpt>
      <trkpt lat="45.89302" lon="6.03145">
        <ele>384.39999389648</ele>
        <time>2012-04-09T08:55:02.000Z</time>
      </trkpt>
      <trkpt lat="45.89299" lon="6.03114">
        <ele>384.79998779297</ele>
        <time>2012-04-09T08:55:10.000Z</time>
      </trkpt>
      <trkpt lat="45.89294" lon="6.0309">
        <ele>385</ele>
        <time>2012-04-09T08:55:16.000Z</time>
      </trkpt>
      <trkpt lat="45.89289" lon="6.03075">
        <ele>385</ele>
        <time>2012-04-09T08:55:20.000Z</time>
      </trkpt>
      <trkpt lat="45.89288" lon="6.03071">
        <ele>385</ele>
        <time>2012-04-09T08:55:21.000Z</time>
      </trkpt>
      <trkpt lat="45.89281" lon="6.03064">
        <ele>385</ele>
        <time>2012-04-09T08:55:26.000Z</time>
      </trkpt>
      <trkpt lat="45.89279" lon="6.03055">
        <ele>385</ele>
        <time>2012-04-09T08:55:32.000Z</time>
      </trkpt>
      <trkpt lat="45.89281" lon="6.0305">
        <ele>384.79998779297</ele>
        <time>2012-04-09T08:55:41.000Z</time>
      </trkpt>
      <trkpt lat="45.89288" lon="6.0304">
        <ele>384.39999389648</ele>
        <time>2012-04-09T08:55:45.000Z</time>
      </trkpt>
      <trkpt lat="45.89294" lon="6.03035">
        <ele>384</ele>
        <time>2012-04-09T08:55:47.000Z</time>
      </trkpt>
      <trkpt lat="45.89294" lon="6.03012">
        <ele>383.60000610352</ele>
        <time>2012-04-09T08:55:51.000Z</time>
      </trkpt>
      <trkpt lat="45.89282" lon="6.02996">
        <ele>384</ele>
        <time>2012-04-09T08:55:55.000Z</time>
      </trkpt>
      <trkpt lat="45.89277" lon="6.02993">
        <ele>384.39999389648</ele>
        <time>2012-04-09T08:55:57.000Z</time>
      </trkpt>
      <trkpt lat="45.89256" lon="6.02991">
        <ele>385</ele>
        <time>2012-04-09T08:56:05.000Z</time>
      </trkpt>
      <trkpt lat="45.89244" lon="6.02984">
        <ele>386.20001220703</ele>
        <time>2012-04-09T08:56:11.000Z</time>
      </trkpt>
      <trkpt lat="45.89238" lon="6.02969">
        <ele>388.20001220703</ele>
        <time>2012-04-09T08:56:17.000Z</time>
      </trkpt>
      <trkpt lat="45.89236" lon="6.02952">
        <ele>390.20001220703</ele>
        <time>2012-04-09T08:56:23.000Z</time>
      </trkpt>
      <trkpt lat="45.89233" lon="6.02935">
        <ele>392</ele>
        <time>2012-04-09T08:56:29.000Z</time>
      </trkpt>
      <trkpt lat="45.89227" lon="6.02921">
        <ele>393.79998779297</ele>
        <time>2012-04-09T08:56:35.000Z</time>
      </trkpt>
      <trkpt lat="45.8922" lon="6.02907">
        <ele>396.60000610352</ele>
        <time>2012-04-09T08:56:42.000Z</time>
      </trkpt>
      <trkpt lat="45.8922" lon="6.02905">
        <ele>397</ele>
        <time>2012-04-09T08:56:43.000Z</time>
      </trkpt>
      <trkpt lat="45.89215" lon="6.02898">
        <ele>398.79998779297</ele>
        <time>2012-04-09T08:56:48.000Z</time>
      </trkpt>
      <trkpt lat="45.89213" lon="6.02896">
        <ele>399.39999389648</ele>
        <time>2012-04-09T08:56:50.000Z</time>
      </trkpt>
      <trkpt lat="45.89203" lon="6.02891">
        <ele>400.79998779297</ele>
        <time>2012-04-09T08:56:57.000Z</time>
      </trkpt>
      <trkpt lat="45.89195" lon="6.02886">
        <ele>402.20001220703</ele>
        <time>2012-04-09T08:57:04.000Z</time>
      </trkpt>
      <trkpt lat="45.89188" lon="6.02885">
        <ele>402.39999389648</ele>
        <time>2012-04-09T08:57:09.000Z</time>
      </trkpt>
      <trkpt lat="45.89186" lon="6.02885">
        <ele>402.60000610352</ele>
        <time>2012-04-09T08:57:10.000Z</time>
      </trkpt>
      <trkpt lat="45.8918" lon="6.02878">
        <ele>404</ele>
        <time>2012-04-09T08:57:15.000Z</time>
      </trkpt>
      <trkpt lat="45.89176" lon="6.02877">
        <ele>404.39999389648</ele>
        <time>2012-04-09T08:57:18.000Z</time>
      </trkpt>
      <trkpt lat="45.89168" lon="6.02874">
        <ele>405.20001220703</ele>
        <time>2012-04-09T08:57:24.000Z</time>
      </trkpt>
      <trkpt lat="45.89167" lon="6.02874">
        <ele>405.20001220703</ele>
        <time>2012-04-09T08:57:25.000Z</time>
      </trkpt>
      <trkpt lat="45.8916" lon="6.02873">
        <ele>405.20001220703</ele>
        <time>2012-04-09T08:57:30.000Z</time>
      </trkpt>
      <trkpt lat="45.89153" lon="6.02872">
        <ele>405.20001220703</ele>
        <time>2012-04-09T08:57:35.000Z</time>
      </trkpt>
      <trkpt lat="45.89145" lon="6.0287">
        <ele>405.20001220703</ele>
        <time>2012-04-09T08:57:39.000Z</time>
      </trkpt>
      <trkpt lat="45.89134" lon="6.0287">
        <ele>404.79998779297</ele>
        <time>2012-04-09T08:57:45.000Z</time>
      </trkpt>
      <trkpt lat="45.89132" lon="6.0287">
        <ele>404.79998779297</ele>
        <time>2012-04-09T08:57:46.000Z</time>
      </trkpt>
      <trkpt lat="45.89122" lon="6.02867">
        <ele>405</ele>
        <time>2012-04-09T08:57:51.000Z</time>
      </trkpt>
      <trkpt lat="45.8911" lon="6.02863">
        <ele>405</ele>
        <time>2012-04-09T08:57:57.000Z</time>
      </trkpt>
      <trkpt lat="45.89099" lon="6.02858">
        <ele>405</ele>
        <time>2012-04-09T08:58:02.000Z</time>
      </trkpt>
      <trkpt lat="45.89086" lon="6.02852">
        <ele>405.20001220703</ele>
        <time>2012-04-09T08:58:09.000Z</time>
      </trkpt>
      <trkpt lat="45.89072" lon="6.02845">
        <ele>405.60000610352</ele>
        <time>2012-04-09T08:58:16.000Z</time>
      </trkpt>
      <trkpt lat="45.89058" lon="6.02837">
        <ele>406.39999389648</ele>
        <time>2012-04-09T08:58:23.000Z</time>
      </trkpt>
      <trkpt lat="45.89042" lon="6.0283">
        <ele>407.20001220703</ele>
        <time>2012-04-09T08:58:31.000Z</time>
      </trkpt>
      <trkpt lat="45.8903" lon="6.02824">
        <ele>408</ele>
        <time>2012-04-09T08:58:37.000Z</time>
      </trkpt>
      <trkpt lat="45.89019" lon="6.0282">
        <ele>408.39999389648</ele>
        <time>2012-04-09T08:58:43.000Z</time>
      </trkpt>
      <trkpt lat="45.89005" lon="6.02816">
        <ele>408.79998779297</ele>
        <time>2012-04-09T08:58:50.000Z</time>
      </trkpt>
      <trkpt lat="45.88992" lon="6.0281">
        <ele>410.20001220703</ele>
        <time>2012-04-09T08:58:57.000Z</time>
      </trkpt>
      <trkpt lat="45.88982" lon="6.02801">
        <ele>412.20001220703</ele>
        <time>2012-04-09T08:59:04.000Z</time>
      </trkpt>
      <trkpt lat="45.88978" lon="6.02787">
        <ele>414.39999389648</ele>
        <time>2012-04-09T08:59:10.000Z</time>
      </trkpt>
      <trkpt lat="45.88977" lon="6.02782">
        <ele>415</ele>
        <time>2012-04-09T08:59:12.000Z</time>
      </trkpt>
      <trkpt lat="45.88971" lon="6.0277">
        <ele>417</ele>
        <time>2012-04-09T08:59:18.000Z</time>
      </trkpt>
      <trkpt lat="45.8897" lon="6.02768">
        <ele>417.20001220703</ele>
        <time>2012-04-09T08:59:19.000Z</time>
      </trkpt>
      <trkpt lat="45.88962" lon="6.02749">
        <ele>420.20001220703</ele>
        <time>2012-04-09T08:59:28.000Z</time>
      </trkpt>
      <trkpt lat="45.88965" lon="6.02734">
        <ele>422.60000610352</ele>
        <time>2012-04-09T08:59:34.000Z</time>
      </trkpt>
      <trkpt lat="45.88968" lon="6.02723">
        <ele>424.39999389648</ele>
        <time>2012-04-09T08:59:39.000Z</time>
      </trkpt>
      <trkpt lat="45.88966" lon="6.02711">
        <ele>426.39999389648</ele>
        <time>2012-04-09T08:59:44.000Z</time>
      </trkpt>
      <trkpt lat="45.88958" lon="6.0269">
        <ele>429.60000610352</ele>
        <time>2012-04-09T08:59:53.000Z</time>
      </trkpt>
      <trkpt lat="45.88954" lon="6.0268">
        <ele>431.20001220703</ele>
        <time>2012-04-09T08:59:59.000Z</time>
      </trkpt>
      <trkpt lat="45.88949" lon="6.0267">
        <ele>432.20001220703</ele>
        <time>2012-04-09T09:00:04.000Z</time>
      </trkpt>
      <trkpt lat="45.88948" lon="6.02669">
        <ele>432.39999389648</ele>
        <time>2012-04-09T09:00:05.000Z</time>
      </trkpt>
      <trkpt lat="45.88948" lon="6.02667">
        <ele>432.60000610352</ele>
        <time>2012-04-09T09:00:14.000Z</time>
      </trkpt>
      <trkpt lat="45.88944" lon="6.02667">
        <ele>432.20001220703</ele>
        <time>2012-04-09T09:00:53.000Z</time>
      </trkpt>
      <trkpt lat="45.88943" lon="6.02667">
        <ele>432.20001220703</ele>
        <time>2012-04-09T09:00:57.000Z</time>
      </trkpt>
      <trkpt lat="45.88939" lon="6.02665">
        <ele>432.39999389648</ele>
        <time>2012-04-09T09:01:42.000Z</time>
      </trkpt>
      <trkpt lat="45.88935" lon="6.02666">
        <ele>431.79998779297</ele>
        <time>2012-04-09T09:01:53.000Z</time>
      </trkpt>
      <trkpt lat="45.88934" lon="6.02667">
        <ele>431.39999389648</ele>
        <time>2012-04-09T09:01:54.000Z</time>
      </trkpt>
      <trkpt lat="45.88917" lon="6.02679">
        <ele>428.79998779297</ele>
        <time>2012-04-09T09:02:01.000Z</time>
      </trkpt>
      <trkpt lat="45.88901" lon="6.02682">
        <ele>427</ele>
        <time>2012-04-09T09:02:07.000Z</time>
      </trkpt>
      <trkpt lat="45.88886" lon="6.0269">
        <ele>425</ele>
        <time>2012-04-09T09:02:13.000Z</time>
      </trkpt>
      <trkpt lat="45.88885" lon="6.02692">
        <ele>424.79998779297</ele>
        <time>2012-04-09T09:02:14.000Z</time>
      </trkpt>
      <trkpt lat="45.88886" lon="6.02707">
        <ele>423.79998779297</ele>
        <time>2012-04-09T09:02:18.000Z</time>
      </trkpt>
      <trkpt lat="45.88888" lon="6.02736">
        <ele>421.79998779297</ele>
        <time>2012-04-09T09:02:26.000Z</time>
      </trkpt>
      <trkpt lat="45.88883" lon="6.02754">
        <ele>420.20001220703</ele>
        <time>2012-04-09T09:02:31.000Z</time>
      </trkpt>
      <trkpt lat="45.88869" lon="6.02763">
        <ele>419.60000610352</ele>
        <time>2012-04-09T09:02:36.000Z</time>
      </trkpt>
      <trkpt lat="45.88856" lon="6.02763">
        <ele>419.60000610352</ele>
        <time>2012-04-09T09:02:41.000Z</time>
      </trkpt>
      <trkpt lat="45.88836" lon="6.02758">
        <ele>419.79998779297</ele>
        <time>2012-04-09T09:02:47.000Z</time>
      </trkpt>
      <trkpt lat="45.88834" lon="6.02757">
        <ele>419.79998779297</ele>
        <time>2012-04-09T09:02:48.000Z</time>
      </trkpt>
      <trkpt lat="45.88822" lon="6.02749">
        <ele>422</ele>
        <time>2012-04-09T09:02:53.000Z</time>
      </trkpt>
      <trkpt lat="45.88809" lon="6.02738">
        <ele>423.60000610352</ele>
        <time>2012-04-09T09:02:58.000Z</time>
      </trkpt>
      <trkpt lat="45.88796" lon="6.02716">
        <ele>424.39999389648</ele>
        <time>2012-04-09T09:03:05.000Z</time>
      </trkpt>
      <trkpt lat="45.88785" lon="6.02702">
        <ele>424.39999389648</ele>
        <time>2012-04-09T09:03:10.000Z</time>
      </trkpt>
      <trkpt lat="45.88768" lon="6.02693">
        <ele>424.60000610352</ele>
        <time>2012-04-09T09:03:16.000Z</time>
      </trkpt>
      <trkpt lat="45.88755" lon="6.02696">
        <ele>426</ele>
        <time>2012-04-09T09:03:21.000Z</time>
      </trkpt>
      <trkpt lat="45.88745" lon="6.0271">
        <ele>429.79998779297</ele>
        <time>2012-04-09T09:03:27.000Z</time>
      </trkpt>
      <trkpt lat="45.88741" lon="6.02732">
        <ele>435</ele>
        <time>2012-04-09T09:03:34.000Z</time>
      </trkpt>
      <trkpt lat="45.88739" lon="6.02751">
        <ele>438.60000610352</ele>
        <time>2012-04-09T09:03:40.000Z</time>
      </trkpt>
      <trkpt lat="45.88741" lon="6.02769">
        <ele>441.20001220703</ele>
        <time>2012-04-09T09:03:46.000Z</time>
      </trkpt>
      <trkpt lat="45.88747" lon="6.02786">
        <ele>442.39999389648</ele>
        <time>2012-04-09T09:03:53.000Z</time>
      </trkpt>
      <trkpt lat="45.88753" lon="6.02797">
        <ele>442.20001220703</ele>
        <time>2012-04-09T09:03:58.000Z</time>
      </trkpt>
      <trkpt lat="45.8876" lon="6.0281">
        <ele>442</ele>
        <time>2012-04-09T09:04:04.000Z</time>
      </trkpt>
      <trkpt lat="45.88767" lon="6.02821">
        <ele>441.60000610352</ele>
        <time>2012-04-09T09:04:09.000Z</time>
      </trkpt>
      <trkpt lat="45.88771" lon="6.02838">
        <ele>442.39999389648</ele>
        <time>2012-04-09T09:04:15.000Z</time>
      </trkpt>
      <trkpt lat="45.88774" lon="6.02859">
        <ele>444.20001220703</ele>
        <time>2012-04-09T09:04:22.000Z</time>
      </trkpt>
      <trkpt lat="45.88777" lon="6.02881">
        <ele>446.20001220703</ele>
        <time>2012-04-09T09:04:29.000Z</time>
      </trkpt>
      <trkpt lat="45.88777" lon="6.02894">
        <ele>447.60000610352</ele>
        <time>2012-04-09T09:04:33.000Z</time>
      </trkpt>
      <trkpt lat="45.88778" lon="6.02906">
        <ele>448.79998779297</ele>
        <time>2012-04-09T09:04:37.000Z</time>
      </trkpt>
      <trkpt lat="45.8878" lon="6.0292">
        <ele>449.79998779297</ele>
        <time>2012-04-09T09:04:42.000Z</time>
      </trkpt>
      <trkpt lat="45.88781" lon="6.02935">
        <ele>450.39999389648</ele>
        <time>2012-04-09T09:04:47.000Z</time>
      </trkpt>
      <trkpt lat="45.88783" lon="6.02954">
        <ele>451</ele>
        <time>2012-04-09T09:04:53.000Z</time>
      </trkpt>
      <trkpt lat="45.88783" lon="6.02963">
        <ele>451.39999389648</ele>
        <time>2012-04-09T09:04:56.000Z</time>
      </trkpt>
      <trkpt lat="45.88783" lon="6.02974">
        <ele>452.39999389648</ele>
        <time>2012-04-09T09:05:00.000Z</time>
      </trkpt>
      <trkpt lat="45.88785" lon="6.02995">
        <ele>453.20001220703</ele>
        <time>2012-04-09T09:05:07.000Z</time>
      </trkpt>
      <trkpt lat="45.88784" lon="6.03013">
        <ele>454</ele>
        <time>2012-04-09T09:05:13.000Z</time>
      </trkpt>
      <trkpt lat="45.88784" lon="6.03018">
        <ele>454.20001220703</ele>
        <time>2012-04-09T09:05:15.000Z</time>
      </trkpt>
      <trkpt lat="45.88781" lon="6.0303">
        <ele>455</ele>
        <time>2012-04-09T09:05:19.000Z</time>
      </trkpt>
      <trkpt lat="45.88783" lon="6.03055">
        <ele>454.60000610352</ele>
        <time>2012-04-09T09:05:28.000Z</time>
      </trkpt>
      <trkpt lat="45.88792" lon="6.03073">
        <ele>452.79998779297</ele>
        <time>2012-04-09T09:05:35.000Z</time>
      </trkpt>
      <trkpt lat="45.88798" lon="6.03083">
        <ele>451.60000610352</ele>
        <time>2012-04-09T09:05:40.000Z</time>
      </trkpt>
      <trkpt lat="45.8881" lon="6.03096">
        <ele>450.79998779297</ele>
        <time>2012-04-09T09:05:48.000Z</time>
      </trkpt>
      <trkpt lat="45.88819" lon="6.03104">
        <ele>450.20001220703</ele>
        <time>2012-04-09T09:05:53.000Z</time>
      </trkpt>
      <trkpt lat="45.88832" lon="6.03115">
        <ele>449.60000610352</ele>
        <time>2012-04-09T09:06:00.000Z</time>
      </trkpt>
      <trkpt lat="45.88841" lon="6.03126">
        <ele>450.20001220703</ele>
        <time>2012-04-09T09:06:07.000Z</time>
      </trkpt>
      <trkpt lat="45.8885" lon="6.03133">
        <ele>450.60000610352</ele>
        <time>2012-04-09T09:06:12.000Z</time>
      </trkpt>
      <trkpt lat="45.88862" lon="6.03144">
        <ele>451</ele>
        <time>2012-04-09T09:06:19.000Z</time>
      </trkpt>
      <trkpt lat="45.8887" lon="6.03155">
        <ele>451.79998779297</ele>
        <time>2012-04-09T09:06:25.000Z</time>
      </trkpt>
      <trkpt lat="45.88878" lon="6.03167">
        <ele>452.60000610352</ele>
        <time>2012-04-09T09:06:31.000Z</time>
      </trkpt>
      <trkpt lat="45.88879" lon="6.03183">
        <ele>454</ele>
        <time>2012-04-09T09:06:36.000Z</time>
      </trkpt>
      <trkpt lat="45.88878" lon="6.03186">
        <ele>454.39999389648</ele>
        <time>2012-04-09T09:06:37.000Z</time>
      </trkpt>
      <trkpt lat="45.88868" lon="6.03191">
        <ele>456.39999389648</ele>
        <time>2012-04-09T09:06:42.000Z</time>
      </trkpt>
      <trkpt lat="45.88853" lon="6.03189">
        <ele>458.39999389648</ele>
        <time>2012-04-09T09:06:49.000Z</time>
      </trkpt>
      <trkpt lat="45.88835" lon="6.03189">
        <ele>460.79998779297</ele>
        <time>2012-04-09T09:06:57.000Z</time>
      </trkpt>
      <trkpt lat="45.88821" lon="6.03188">
        <ele>462.39999389648</ele>
        <time>2012-04-09T09:07:04.000Z</time>
      </trkpt>
      <trkpt lat="45.88814" lon="6.03192">
        <ele>463.79998779297</ele>
        <time>2012-04-09T09:07:08.000Z</time>
      </trkpt>
      <trkpt lat="45.88816" lon="6.03203">
        <ele>465.39999389648</ele>
        <time>2012-04-09T09:07:12.000Z</time>
      </trkpt>
      <trkpt lat="45.88823" lon="6.03214">
        <ele>466.20001220703</ele>
        <time>2012-04-09T09:07:17.000Z</time>
      </trkpt>
      <trkpt lat="45.88832" lon="6.03223">
        <ele>466.20001220703</ele>
        <time>2012-04-09T09:07:22.000Z</time>
      </trkpt>
      <trkpt lat="45.8884" lon="6.03232">
        <ele>466.20001220703</ele>
        <time>2012-04-09T09:07:27.000Z</time>
      </trkpt>
      <trkpt lat="45.88842" lon="6.03233">
        <ele>466</ele>
        <time>2012-04-09T09:07:28.000Z</time>
      </trkpt>
      <trkpt lat="45.88854" lon="6.03252">
        <ele>466.20001220703</ele>
        <time>2012-04-09T09:07:36.000Z</time>
      </trkpt>
      <trkpt lat="45.88862" lon="6.03266">
        <ele>467.60000610352</ele>
        <time>2012-04-09T09:07:42.000Z</time>
      </trkpt>
      <trkpt lat="45.88872" lon="6.03288">
        <ele>470.20001220703</ele>
        <time>2012-04-09T09:07:50.000Z</time>
      </trkpt>
      <trkpt lat="45.88881" lon="6.03306">
        <ele>472.39999389648</ele>
        <time>2012-04-09T09:07:57.000Z</time>
      </trkpt>
      <trkpt lat="45.88893" lon="6.03326">
        <ele>474.60000610352</ele>
        <time>2012-04-09T09:08:05.000Z</time>
      </trkpt>
      <trkpt lat="45.88905" lon="6.03343">
        <ele>476.60000610352</ele>
        <time>2012-04-09T09:08:12.000Z</time>
      </trkpt>
      <trkpt lat="45.88919" lon="6.03362">
        <ele>479.20001220703</ele>
        <time>2012-04-09T09:08:20.000Z</time>
      </trkpt>
      <trkpt lat="45.88932" lon="6.03378">
        <ele>479.79998779297</ele>
        <time>2012-04-09T09:08:27.000Z</time>
      </trkpt>
      <trkpt lat="45.8894" lon="6.03394">
        <ele>481.39999389648</ele>
        <time>2012-04-09T09:08:33.000Z</time>
      </trkpt>
      <trkpt lat="45.88943" lon="6.03414">
        <ele>485</ele>
        <time>2012-04-09T09:08:39.000Z</time>
      </trkpt>
      <trkpt lat="45.88941" lon="6.03431">
        <ele>487.39999389648</ele>
        <time>2012-04-09T09:08:44.000Z</time>
      </trkpt>
      <trkpt lat="45.8894" lon="6.03441">
        <ele>488.79998779297</ele>
        <time>2012-04-09T09:08:47.000Z</time>
      </trkpt>
      <trkpt lat="45.88944" lon="6.03463">
        <ele>489.79998779297</ele>
        <time>2012-04-09T09:08:54.000Z</time>
      </trkpt>
      <trkpt lat="45.8895" lon="6.03478">
        <ele>489.39999389648</ele>
        <time>2012-04-09T09:08:59.000Z</time>
      </trkpt>
      <trkpt lat="45.88955" lon="6.03491">
        <ele>489</ele>
        <time>2012-04-09T09:09:04.000Z</time>
      </trkpt>
      <trkpt lat="45.88963" lon="6.03512">
        <ele>487.79998779297</ele>
        <time>2012-04-09T09:09:11.000Z</time>
      </trkpt>
      <trkpt lat="45.88966" lon="6.03522">
        <ele>487.39999389648</ele>
        <time>2012-04-09T09:09:14.000Z</time>
      </trkpt>
      <trkpt lat="45.88965" lon="6.03542">
        <ele>488.20001220703</ele>
        <time>2012-04-09T09:09:20.000Z</time>
      </trkpt>
      <trkpt lat="45.88964" lon="6.03545">
        <ele>488.39999389648</ele>
        <time>2012-04-09T09:09:21.000Z</time>
      </trkpt>
      <trkpt lat="45.88956" lon="6.03572">
        <ele>490.79998779297</ele>
        <time>2012-04-09T09:09:28.000Z</time>
      </trkpt>
      <trkpt lat="45.88951" lon="6.03584">
        <ele>492</ele>
        <time>2012-04-09T09:09:31.000Z</time>
      </trkpt>
      <trkpt lat="45.88945" lon="6.03599">
        <ele>492.79998779297</ele>
        <time>2012-04-09T09:09:35.000Z</time>
      </trkpt>
      <trkpt lat="45.88936" lon="6.03628">
        <ele>493.79998779297</ele>
        <time>2012-04-09T09:09:42.000Z</time>
      </trkpt>
      <trkpt lat="45.88931" lon="6.03654">
        <ele>493.60000610352</ele>
        <time>2012-04-09T09:09:48.000Z</time>
      </trkpt>
      <trkpt lat="45.88925" lon="6.03678">
        <ele>494</ele>
        <time>2012-04-09T09:09:54.000Z</time>
      </trkpt>
      <trkpt lat="45.88916" lon="6.03701">
        <ele>495</ele>
        <time>2012-04-09T09:10:00.000Z</time>
      </trkpt>
      <trkpt lat="45.88902" lon="6.03717">
        <ele>495.79998779297</ele>
        <time>2012-04-09T09:10:06.000Z</time>
      </trkpt>
      <trkpt lat="45.88887" lon="6.03733">
        <ele>496.60000610352</ele>
        <time>2012-04-09T09:10:12.000Z</time>
      </trkpt>
      <trkpt lat="45.88874" lon="6.03753">
        <ele>497.20001220703</ele>
        <time>2012-04-09T09:10:18.000Z</time>
      </trkpt>
      <trkpt lat="45.88862" lon="6.03776">
        <ele>497.79998779297</ele>
        <time>2012-04-09T09:10:25.000Z</time>
      </trkpt>
      <trkpt lat="45.88861" lon="6.03777">
        <ele>497.79998779297</ele>
        <time>2012-04-09T09:10:29.000Z</time>
      </trkpt>
      <trkpt lat="45.88858" lon="6.03788">
        <ele>498</ele>
        <time>2012-04-09T09:12:31.000Z</time>
      </trkpt>
      <trkpt lat="45.88863" lon="6.03808">
        <ele>498.20001220703</ele>
        <time>2012-04-09T09:12:37.000Z</time>
      </trkpt>
      <trkpt lat="45.88876" lon="6.03819">
        <ele>498.20001220703</ele>
        <time>2012-04-09T09:12:43.000Z</time>
      </trkpt>
      <trkpt lat="45.88889" lon="6.03821">
        <ele>498.39999389648</ele>
        <time>2012-04-09T09:12:48.000Z</time>
      </trkpt>
      <trkpt lat="45.88907" lon="6.03831">
        <ele>498.79998779297</ele>
        <time>2012-04-09T09:12:56.000Z</time>
      </trkpt>
      <trkpt lat="45.88922" lon="6.03848">
        <ele>500</ele>
        <time>2012-04-09T09:13:04.000Z</time>
      </trkpt>
      <trkpt lat="45.88935" lon="6.03871">
        <ele>501.60000610352</ele>
        <time>2012-04-09T09:13:12.000Z</time>
      </trkpt>
      <trkpt lat="45.88945" lon="6.03893">
        <ele>503</ele>
        <time>2012-04-09T09:13:20.000Z</time>
      </trkpt>
      <trkpt lat="45.88953" lon="6.03908">
        <ele>504</ele>
        <time>2012-04-09T09:13:26.000Z</time>
      </trkpt>
      <trkpt lat="45.88964" lon="6.03921">
        <ele>504.60000610352</ele>
        <time>2012-04-09T09:13:32.000Z</time>
      </trkpt>
      <trkpt lat="45.88974" lon="6.03933">
        <ele>505</ele>
        <time>2012-04-09T09:13:37.000Z</time>
      </trkpt>
      <trkpt lat="45.88988" lon="6.0395">
        <ele>505.20001220703</ele>
        <time>2012-04-09T09:13:45.000Z</time>
      </trkpt>
      <trkpt lat="45.88997" lon="6.03961">
        <ele>505.39999389648</ele>
        <time>2012-04-09T09:13:50.000Z</time>
      </trkpt>
      <trkpt lat="45.88997" lon="6.03964">
        <ele>505.39999389648</ele>
        <time>2012-04-09T09:13:51.000Z</time>
      </trkpt>
      <trkpt lat="45.88995" lon="6.03975">
        <ele>505.20001220703</ele>
        <time>2012-04-09T09:13:54.000Z</time>
      </trkpt>
      <trkpt lat="45.88983" lon="6.04">
        <ele>504.60000610352</ele>
        <time>2012-04-09T09:14:02.000Z</time>
      </trkpt>
      <trkpt lat="45.88971" lon="6.04023">
        <ele>504.20001220703</ele>
        <time>2012-04-09T09:14:10.000Z</time>
      </trkpt>
      <trkpt lat="45.88961" lon="6.04044">
        <ele>504</ele>
        <time>2012-04-09T09:14:17.000Z</time>
      </trkpt>
      <trkpt lat="45.8895" lon="6.04069">
        <ele>504</ele>
        <time>2012-04-09T09:14:25.000Z</time>
      </trkpt>
      <trkpt lat="45.88934" lon="6.04101">
        <ele>503.79998779297</ele>
        <time>2012-04-09T09:14:35.000Z</time>
      </trkpt>
      <trkpt lat="45.8892" lon="6.04124">
        <ele>503.39999389648</ele>
        <time>2012-04-09T09:14:43.000Z</time>
      </trkpt>
      <trkpt lat="45.88907" lon="6.04144">
        <ele>503.39999389648</ele>
        <time>2012-04-09T09:14:50.000Z</time>
      </trkpt>
      <trkpt lat="45.88894" lon="6.04164">
        <ele>503.60000610352</ele>
        <time>2012-04-09T09:14:57.000Z</time>
      </trkpt>
      <trkpt lat="45.88881" lon="6.04181">
        <ele>504</ele>
        <time>2012-04-09T09:15:04.000Z</time>
      </trkpt>
      <trkpt lat="45.88872" lon="6.04193">
        <ele>504.39999389648</ele>
        <time>2012-04-09T09:15:09.000Z</time>
      </trkpt>
      <trkpt lat="45.88859" lon="6.04216">
        <ele>505.20001220703</ele>
        <time>2012-04-09T09:15:16.000Z</time>
      </trkpt>
      <trkpt lat="45.88851" lon="6.04237">
        <ele>506</ele>
        <time>2012-04-09T09:15:23.000Z</time>
      </trkpt>
      <trkpt lat="45.8884" lon="6.04256">
        <ele>506.79998779297</ele>
        <time>2012-04-09T09:15:30.000Z</time>
      </trkpt>
      <trkpt lat="45.8883" lon="6.04269">
        <ele>507.39999389648</ele>
        <time>2012-04-09T09:15:36.000Z</time>
      </trkpt>
      <trkpt lat="45.88832" lon="6.04309">
        <ele>507.79998779297</ele>
        <time>2012-04-09T09:15:47.000Z</time>
      </trkpt>
      <trkpt lat="45.88836" lon="6.04337">
        <ele>507.79998779297</ele>
        <time>2012-04-09T09:15:54.000Z</time>
      </trkpt>
      <trkpt lat="45.88836" lon="6.04365">
        <ele>507.39999389648</ele>
        <time>2012-04-09T09:16:01.000Z</time>
      </trkpt>
      <trkpt lat="45.88836" lon="6.04384">
        <ele>507.20001220703</ele>
        <time>2012-04-09T09:16:06.000Z</time>
      </trkpt>
      <trkpt lat="45.88835" lon="6.0441">
        <ele>507</ele>
        <time>2012-04-09T09:16:13.000Z</time>
      </trkpt>
      <trkpt lat="45.88831" lon="6.04436">
        <ele>507</ele>
        <time>2012-04-09T09:16:20.000Z</time>
      </trkpt>
      <trkpt lat="45.88826" lon="6.0446">
        <ele>507.20001220703</ele>
        <time>2012-04-09T09:16:27.000Z</time>
      </trkpt>
      <trkpt lat="45.88817" lon="6.04482">
        <ele>507.39999389648</ele>
        <time>2012-04-09T09:16:34.000Z</time>
      </trkpt>
      <trkpt lat="45.88805" lon="6.04502">
        <ele>507.60000610352</ele>
        <time>2012-04-09T09:16:41.000Z</time>
      </trkpt>
      <trkpt lat="45.8879" lon="6.04522">
        <ele>507.60000610352</ele>
        <time>2012-04-09T09:16:49.000Z</time>
      </trkpt>
      <trkpt lat="45.88777" lon="6.04539">
        <ele>507.60000610352</ele>
        <time>2012-04-09T09:16:56.000Z</time>
      </trkpt>
      <trkpt lat="45.88763" lon="6.04556">
        <ele>507.60000610352</ele>
        <time>2012-04-09T09:17:03.000Z</time>
      </trkpt>
      <trkpt lat="45.8875" lon="6.04574">
        <ele>507.39999389648</ele>
        <time>2012-04-09T09:17:10.000Z</time>
      </trkpt>
      <trkpt lat="45.88745" lon="6.04583">
        <ele>507.39999389648</ele>
        <time>2012-04-09T09:17:13.000Z</time>
      </trkpt>
      <trkpt lat="45.88736" lon="6.04596">
        <ele>507.79998779297</ele>
        <time>2012-04-09T09:17:18.000Z</time>
      </trkpt>
      <trkpt lat="45.88723" lon="6.04615">
        <ele>508.60000610352</ele>
        <time>2012-04-09T09:17:25.000Z</time>
      </trkpt>
      <trkpt lat="45.88711" lon="6.04633">
        <ele>509.39999389648</ele>
        <time>2012-04-09T09:17:32.000Z</time>
      </trkpt>
      <trkpt lat="45.88702" lon="6.04647">
        <ele>510</ele>
        <time>2012-04-09T09:17:38.000Z</time>
      </trkpt>
      <trkpt lat="45.88687" lon="6.04665">
        <ele>510.79998779297</ele>
        <time>2012-04-09T09:17:46.000Z</time>
      </trkpt>
      <trkpt lat="45.88677" lon="6.04686">
        <ele>511.20001220703</ele>
        <time>2012-04-09T09:17:53.000Z</time>
      </trkpt>
      <trkpt lat="45.88671" lon="6.04711">
        <ele>511.20001220703</ele>
        <time>2012-04-09T09:18:00.000Z</time>
      </trkpt>
      <trkpt lat="45.88665" lon="6.04737">
        <ele>511.20001220703</ele>
        <time>2012-04-09T09:18:08.000Z</time>
      </trkpt>
      <trkpt lat="45.88659" lon="6.04758">
        <ele>510.79998779297</ele>
        <time>2012-04-09T09:18:14.000Z</time>
      </trkpt>
      <trkpt lat="45.88653" lon="6.04779">
        <ele>510</ele>
        <time>2012-04-09T09:18:21.000Z</time>
      </trkpt>
      <trkpt lat="45.88647" lon="6.04804">
        <ele>509.39999389648</ele>
        <time>2012-04-09T09:18:29.000Z</time>
      </trkpt>
      <trkpt lat="45.88637" lon="6.04827">
        <ele>509</ele>
        <time>2012-04-09T09:18:36.000Z</time>
      </trkpt>
      <trkpt lat="45.88627" lon="6.04848">
        <ele>509.79998779297</ele>
        <time>2012-04-09T09:18:43.000Z</time>
      </trkpt>
      <trkpt lat="45.88616" lon="6.04867">
        <ele>511</ele>
        <time>2012-04-09T09:18:50.000Z</time>
      </trkpt>
      <trkpt lat="45.88607" lon="6.04883">
        <ele>512</ele>
        <time>2012-04-09T09:18:56.000Z</time>
      </trkpt>
      <trkpt lat="45.88596" lon="6.04899">
        <ele>513.40002441406</ele>
        <time>2012-04-09T09:19:03.000Z</time>
      </trkpt>
      <trkpt lat="45.88588" lon="6.04916">
        <ele>514.59997558594</ele>
        <time>2012-04-09T09:19:10.000Z</time>
      </trkpt>
      <trkpt lat="45.8858" lon="6.04931">
        <ele>516.20001220703</ele>
        <time>2012-04-09T09:19:16.000Z</time>
      </trkpt>
      <trkpt lat="45.88575" lon="6.04951">
        <ele>518</ele>
        <time>2012-04-09T09:19:23.000Z</time>
      </trkpt>
      <trkpt lat="45.88573" lon="6.04971">
        <ele>519.20001220703</ele>
        <time>2012-04-09T09:19:30.000Z</time>
      </trkpt>
      <trkpt lat="45.88569" lon="6.04994">
        <ele>521</ele>
        <time>2012-04-09T09:19:38.000Z</time>
      </trkpt>
      <trkpt lat="45.88563" lon="6.05018">
        <ele>523</ele>
        <time>2012-04-09T09:19:46.000Z</time>
      </trkpt>
      <trkpt lat="45.88554" lon="6.05043">
        <ele>525.20001220703</ele>
        <time>2012-04-09T09:19:55.000Z</time>
      </trkpt>
      <trkpt lat="45.88547" lon="6.05063">
        <ele>526.59997558594</ele>
        <time>2012-04-09T09:20:02.000Z</time>
      </trkpt>
      <trkpt lat="45.88538" lon="6.05086">
        <ele>528.59997558594</ele>
        <time>2012-04-09T09:20:11.000Z</time>
      </trkpt>
      <trkpt lat="45.88536" lon="6.0509">
        <ele>529</ele>
        <time>2012-04-09T09:20:15.000Z</time>
      </trkpt>
      <trkpt lat="45.88534" lon="6.05096">
        <ele>529.40002441406</ele>
        <time>2012-04-09T09:20:41.000Z</time>
      </trkpt>
      <trkpt lat="45.88526" lon="6.05105">
        <ele>530.59997558594</ele>
        <time>2012-04-09T09:20:47.000Z</time>
      </trkpt>
      <trkpt lat="45.88522" lon="6.05115">
        <ele>531.20001220703</ele>
        <time>2012-04-09T09:20:52.000Z</time>
      </trkpt>
      <trkpt lat="45.8852" lon="6.05125">
        <ele>531.79998779297</ele>
        <time>2012-04-09T09:20:57.000Z</time>
      </trkpt>
      <trkpt lat="45.88514" lon="6.05146">
        <ele>532.79998779297</ele>
        <time>2012-04-09T09:21:05.000Z</time>
      </trkpt>
      <trkpt lat="45.88511" lon="6.05162">
        <ele>533.20001220703</ele>
        <time>2012-04-09T09:21:11.000Z</time>
      </trkpt>
      <trkpt lat="45.88506" lon="6.05181">
        <ele>534</ele>
        <time>2012-04-09T09:21:18.000Z</time>
      </trkpt>
      <trkpt lat="45.885" lon="6.05202">
        <ele>534.79998779297</ele>
        <time>2012-04-09T09:21:25.000Z</time>
      </trkpt>
      <trkpt lat="45.88489" lon="6.05215">
        <ele>535.40002441406</ele>
        <time>2012-04-09T09:21:31.000Z</time>
      </trkpt>
      <trkpt lat="45.88472" lon="6.0523">
        <ele>535.79998779297</ele>
        <time>2012-04-09T09:21:38.000Z</time>
      </trkpt>
      <trkpt lat="45.88456" lon="6.05243">
        <ele>536</ele>
        <time>2012-04-09T09:21:45.000Z</time>
      </trkpt>
      <trkpt lat="45.88454" lon="6.05245">
        <ele>536</ele>
        <time>2012-04-09T09:21:46.000Z</time>
      </trkpt>
      <trkpt lat="45.88453" lon="6.05246">
        <ele>536</ele>
        <time>2012-04-09T09:21:51.000Z</time>
      </trkpt>
      <trkpt lat="45.88446" lon="6.0525">
        <ele>536</ele>
        <time>2012-04-09T09:21:55.000Z</time>
      </trkpt>
      <trkpt lat="45.88432" lon="6.05263">
        <ele>535.59997558594</ele>
        <time>2012-04-09T09:22:01.000Z</time>
      </trkpt>
      <trkpt lat="45.88414" lon="6.05273">
        <ele>535.20001220703</ele>
        <time>2012-04-09T09:22:07.000Z</time>
      </trkpt>
      <trkpt lat="45.88411" lon="6.05273">
        <ele>535.20001220703</ele>
        <time>2012-04-09T09:22:08.000Z</time>
      </trkpt>
      <trkpt lat="45.88396" lon="6.0525">
        <ele>536.20001220703</ele>
        <time>2012-04-09T09:22:15.000Z</time>
      </trkpt>
      <trkpt lat="45.88386" lon="6.05228">
        <ele>536.59997558594</ele>
        <time>2012-04-09T09:22:21.000Z</time>
      </trkpt>
      <trkpt lat="45.88376" lon="6.05206">
        <ele>537</ele>
        <time>2012-04-09T09:22:27.000Z</time>
      </trkpt>
      <trkpt lat="45.88367" lon="6.05183">
        <ele>537.40002441406</ele>
        <time>2012-04-09T09:22:33.000Z</time>
      </trkpt>
      <trkpt lat="45.88355" lon="6.05161">
        <ele>537.59997558594</ele>
        <time>2012-04-09T09:22:39.000Z</time>
      </trkpt>
      <trkpt lat="45.88341" lon="6.05142">
        <ele>537.59997558594</ele>
        <time>2012-04-09T09:22:45.000Z</time>
      </trkpt>
      <trkpt lat="45.88324" lon="6.05125">
        <ele>537.20001220703</ele>
        <time>2012-04-09T09:22:51.000Z</time>
      </trkpt>
      <trkpt lat="45.88306" lon="6.05108">
        <ele>536.40002441406</ele>
        <time>2012-04-09T09:22:56.000Z</time>
      </trkpt>
      <trkpt lat="45.88289" lon="6.05092">
        <ele>536</ele>
        <time>2012-04-09T09:23:00.000Z</time>
      </trkpt>
      <trkpt lat="45.88285" lon="6.05088">
        <ele>535.79998779297</ele>
        <time>2012-04-09T09:23:01.000Z</time>
      </trkpt>
      <trkpt lat="45.88267" lon="6.05072">
        <ele>535.20001220703</ele>
        <time>2012-04-09T09:23:05.000Z</time>
      </trkpt>
      <trkpt lat="45.88245" lon="6.0505">
        <ele>534.59997558594</ele>
        <time>2012-04-09T09:23:10.000Z</time>
      </trkpt>
      <trkpt lat="45.8823" lon="6.05035">
        <ele>534.40002441406</ele>
        <time>2012-04-09T09:23:13.000Z</time>
      </trkpt>
      <trkpt lat="45.88222" lon="6.05027">
        <ele>534.40002441406</ele>
        <time>2012-04-09T09:23:15.000Z</time>
      </trkpt>
      <trkpt lat="45.88217" lon="6.05024">
        <ele>534.20001220703</ele>
        <time>2012-04-09T09:23:20.000Z</time>
      </trkpt>
      <trkpt lat="45.88212" lon="6.05027">
        <ele>534.40002441406</ele>
        <time>2012-04-09T09:23:25.000Z</time>
      </trkpt>
      <trkpt lat="45.88206" lon="6.05046">
        <ele>534.59997558594</ele>
        <time>2012-04-09T09:23:30.000Z</time>
      </trkpt>
      <trkpt lat="45.88204" lon="6.05053">
        <ele>534.59997558594</ele>
        <time>2012-04-09T09:23:32.000Z</time>
      </trkpt>
      <trkpt lat="45.88203" lon="6.05065">
        <ele>534.79998779297</ele>
        <time>2012-04-09T09:23:36.000Z</time>
      </trkpt>
      <trkpt lat="45.88204" lon="6.05077">
        <ele>535</ele>
        <time>2012-04-09T09:23:41.000Z</time>
      </trkpt>
      <trkpt lat="45.88209" lon="6.05096">
        <ele>534.79998779297</ele>
        <time>2012-04-09T09:23:45.000Z</time>
      </trkpt>
      <trkpt lat="45.88214" lon="6.05121">
        <ele>534.40002441406</ele>
        <time>2012-04-09T09:23:50.000Z</time>
      </trkpt>
      <trkpt lat="45.88209" lon="6.05136">
        <ele>534</ele>
        <time>2012-04-09T09:23:54.000Z</time>
      </trkpt>
      <trkpt lat="45.88202" lon="6.05139">
        <ele>534</ele>
        <time>2012-04-09T09:23:58.000Z</time>
      </trkpt>
      <trkpt lat="45.88186" lon="6.0515">
        <ele>533.59997558594</ele>
        <time>2012-04-09T09:24:02.000Z</time>
      </trkpt>
      <trkpt lat="45.8818" lon="6.0517">
        <ele>533</ele>
        <time>2012-04-09T09:24:05.000Z</time>
      </trkpt>
      <trkpt lat="45.88176" lon="6.0519">
        <ele>532.20001220703</ele>
        <time>2012-04-09T09:24:08.000Z</time>
      </trkpt>
      <trkpt lat="45.88176" lon="6.05215">
        <ele>531.20001220703</ele>
        <time>2012-04-09T09:24:12.000Z</time>
      </trkpt>
      <trkpt lat="45.88177" lon="6.05229">
        <ele>530.79998779297</ele>
        <time>2012-04-09T09:24:14.000Z</time>
      </trkpt>
      <trkpt lat="45.88176" lon="6.05252">
        <ele>530</ele>
        <time>2012-04-09T09:24:18.000Z</time>
      </trkpt>
      <trkpt lat="45.88176" lon="6.05252">
        <ele>530</ele>
        <time>2012-04-09T09:24:19.000Z</time>
      </trkpt>
      <trkpt lat="45.88176" lon="6.05253">
        <ele>529.79998779297</ele>
        <time>2012-04-09T09:24:23.000Z</time>
      </trkpt>
      <trkpt lat="45.88181" lon="6.05261">
        <ele>529.59997558594</ele>
        <time>2012-04-09T09:24:29.000Z</time>
      </trkpt>
      <trkpt lat="45.88183" lon="6.05262">
        <ele>529.59997558594</ele>
        <time>2012-04-09T09:24:30.000Z</time>
      </trkpt>
      <trkpt lat="45.88189" lon="6.05263">
        <ele>529.59997558594</ele>
        <time>2012-04-09T09:24:35.000Z</time>
      </trkpt>
      <trkpt lat="45.88203" lon="6.0527">
        <ele>529.20001220703</ele>
        <time>2012-04-09T09:24:40.000Z</time>
      </trkpt>
      <trkpt lat="45.88213" lon="6.05283">
        <ele>528.59997558594</ele>
        <time>2012-04-09T09:24:44.000Z</time>
      </trkpt>
      <trkpt lat="45.88226" lon="6.05307">
        <ele>527.40002441406</ele>
        <time>2012-04-09T09:24:50.000Z</time>
      </trkpt>
      <trkpt lat="45.88236" lon="6.05331">
        <ele>526.20001220703</ele>
        <time>2012-04-09T09:24:56.000Z</time>
      </trkpt>
      <trkpt lat="45.88244" lon="6.05354">
        <ele>525.79998779297</ele>
        <time>2012-04-09T09:25:03.000Z</time>
      </trkpt>
      <trkpt lat="45.88248" lon="6.05359">
        <ele>525.79998779297</ele>
        <time>2012-04-09T09:25:10.000Z</time>
      </trkpt>
      <trkpt lat="45.88249" lon="6.05359">
        <ele>525.79998779297</ele>
        <time>2012-04-09T09:25:17.000Z</time>
      </trkpt>
    </trkseg>
  </trk>
</gpx>